<?xml version='1.0' encoding='UTF-8'?>
<gpx version="1.1" creator="https://www.komoot.de" xmlns="http://www.topografix.com/GPX/1/1" xmlns:xsi="http://www.w3.org/2001/XMLSchema-instance" xsi:schemaLocation="http://www.topografix.com/GPX/1/1 http://www.topografix.com/GPX/1/1/gpx.xsd">
  <metadata>
    <name>Veluwe gravel &amp; bos avontuur (104 km)</name>
    <author>
      <link href="https://www.komoot.de">
        <text>komoot</text>
        <type>text/html</type>
      </link>
    </author>
  </metadata>
  <trk>
    <name>Veluwe gravel &amp; bos avontuur (104 km)</name>
    <trkseg>
      <trkpt lat="52.004072" lon="5.875664">
        <ele>61.827783</ele>
        <time>2020-11-05T14:29:46.911Z</time>
      </trkpt>
      <trkpt lat="52.004859" lon="5.874734">
        <ele>61.873897</ele>
        <time>2020-11-05T14:30:04.315Z</time>
      </trkpt>
      <trkpt lat="52.005844" lon="5.873568">
        <ele>62.634560</ele>
        <time>2020-11-05T14:30:28.234Z</time>
      </trkpt>
      <trkpt lat="52.006311" lon="5.873017">
        <ele>63.085001</ele>
        <time>2020-11-05T14:30:41.830Z</time>
      </trkpt>
      <trkpt lat="52.006442" lon="5.872859">
        <ele>63.393553</ele>
        <time>2020-11-05T14:30:46.460Z</time>
      </trkpt>
      <trkpt lat="52.007008" lon="5.872188">
        <ele>64.718640</ele>
        <time>2020-11-05T14:31:06.444Z</time>
      </trkpt>
      <trkpt lat="52.007266" lon="5.871886">
        <ele>65.320013</ele>
        <time>2020-11-05T14:31:15.245Z</time>
      </trkpt>
      <trkpt lat="52.007370" lon="5.871764">
        <ele>65.562607</ele>
        <time>2020-11-05T14:31:18.387Z</time>
      </trkpt>
      <trkpt lat="52.007470" lon="5.871637">
        <ele>65.802649</ele>
        <time>2020-11-05T14:31:21.354Z</time>
      </trkpt>
      <trkpt lat="52.007489" lon="5.871699">
        <ele>65.883272</ele>
        <time>2020-11-05T14:31:22.954Z</time>
      </trkpt>
      <trkpt lat="52.007572" lon="5.871740">
        <ele>66.047331</ele>
        <time>2020-11-05T14:31:25.002Z</time>
      </trkpt>
      <trkpt lat="52.008350" lon="5.871860">
        <ele>65.892563</ele>
        <time>2020-11-05T14:31:42.497Z</time>
      </trkpt>
      <trkpt lat="52.009137" lon="5.871959">
        <ele>65.308348</ele>
        <time>2020-11-05T14:31:56.532Z</time>
      </trkpt>
      <trkpt lat="52.010691" lon="5.872070">
        <ele>59.622290</ele>
        <time>2020-11-05T14:32:17.981Z</time>
      </trkpt>
      <trkpt lat="52.011359" lon="5.872118">
        <ele>56.482127</ele>
        <time>2020-11-05T14:32:26.694Z</time>
      </trkpt>
      <trkpt lat="52.012436" lon="5.872128">
        <ele>50.139611</ele>
        <time>2020-11-05T14:32:40.309Z</time>
      </trkpt>
      <trkpt lat="52.012771" lon="5.872097">
        <ele>48.163612</ele>
        <time>2020-11-05T14:32:44.649Z</time>
      </trkpt>
      <trkpt lat="52.012808" lon="5.872092">
        <ele>47.944968</ele>
        <time>2020-11-05T14:32:45.149Z</time>
      </trkpt>
      <trkpt lat="52.012920" lon="5.872078">
        <ele>47.283455</ele>
        <time>2020-11-05T14:32:46.668Z</time>
      </trkpt>
      <trkpt lat="52.012965" lon="5.872141">
        <ele>46.933642</ele>
        <time>2020-11-05T14:32:47.407Z</time>
      </trkpt>
      <trkpt lat="52.012997" lon="5.872218">
        <ele>46.596887</ele>
        <time>2020-11-05T14:32:48.110Z</time>
      </trkpt>
      <trkpt lat="52.013098" lon="5.872664">
        <ele>45.642355</ele>
        <time>2020-11-05T14:32:51.954Z</time>
      </trkpt>
      <trkpt lat="52.013104" lon="5.872807">
        <ele>45.446720</ele>
        <time>2020-11-05T14:32:53.052Z</time>
      </trkpt>
      <trkpt lat="52.013550" lon="5.874723">
        <ele>42.650776</ele>
        <time>2020-11-05T14:33:18.101Z</time>
      </trkpt>
      <trkpt lat="52.013916" lon="5.876350">
        <ele>42.473750</ele>
        <time>2020-11-05T14:33:45.169Z</time>
      </trkpt>
      <trkpt lat="52.014006" lon="5.876309">
        <ele>42.514077</ele>
        <time>2020-11-05T14:33:47.576Z</time>
      </trkpt>
      <trkpt lat="52.014711" lon="5.875982">
        <ele>42.830397</ele>
        <time>2020-11-05T14:34:06.889Z</time>
      </trkpt>
      <trkpt lat="52.014749" lon="5.875964">
        <ele>42.847475</ele>
        <time>2020-11-05T14:34:08.030Z</time>
      </trkpt>
      <trkpt lat="52.014833" lon="5.876253">
        <ele>42.955207</ele>
        <time>2020-11-05T14:34:12.414Z</time>
      </trkpt>
      <trkpt lat="52.014854" lon="5.876365">
        <ele>43.004608</ele>
        <time>2020-11-05T14:34:13.870Z</time>
      </trkpt>
      <trkpt lat="52.014869" lon="5.877272">
        <ele>43.387446</ele>
        <time>2020-11-05T14:34:25.586Z</time>
      </trkpt>
      <trkpt lat="52.014801" lon="5.877383">
        <ele>43.453528</ele>
        <time>2020-11-05T14:34:27.497Z</time>
      </trkpt>
      <trkpt lat="52.014737" lon="5.877486">
        <ele>43.515285</ele>
        <time>2020-11-05T14:34:29.275Z</time>
      </trkpt>
      <trkpt lat="52.014734" lon="5.877555">
        <ele>43.544472</ele>
        <time>2020-11-05T14:34:30.146Z</time>
      </trkpt>
      <trkpt lat="52.014752" lon="5.878477">
        <ele>43.933697</ele>
        <time>2020-11-05T14:34:42.170Z</time>
      </trkpt>
      <trkpt lat="52.014792" lon="5.879969">
        <ele>44.704351</ele>
        <time>2020-11-05T14:35:02.167Z</time>
      </trkpt>
      <trkpt lat="52.014811" lon="5.880731">
        <ele>45.129556</ele>
        <time>2020-11-05T14:35:12.970Z</time>
      </trkpt>
      <trkpt lat="52.014835" lon="5.881635">
        <ele>45.634054</ele>
        <time>2020-11-05T14:35:25.089Z</time>
      </trkpt>
      <trkpt lat="52.014879" lon="5.883067">
        <ele>46.469421</ele>
        <time>2020-11-05T14:35:45.286Z</time>
      </trkpt>
      <trkpt lat="52.014944" lon="5.883475">
        <ele>46.716873</ele>
        <time>2020-11-05T14:35:51.129Z</time>
      </trkpt>
      <trkpt lat="52.014992" lon="5.885057">
        <ele>47.637432</ele>
        <time>2020-11-05T14:36:12.622Z</time>
      </trkpt>
      <trkpt lat="52.015036" lon="5.886539">
        <ele>48.461607</ele>
        <time>2020-11-05T14:36:33.036Z</time>
      </trkpt>
      <trkpt lat="52.014948" lon="5.886846">
        <ele>48.649727</ele>
        <time>2020-11-05T14:36:37.593Z</time>
      </trkpt>
      <trkpt lat="52.014770" lon="5.887031">
        <ele>48.840437</ele>
        <time>2020-11-05T14:36:42.240Z</time>
      </trkpt>
      <trkpt lat="52.014716" lon="5.887135">
        <ele>48.916019</ele>
        <time>2020-11-05T14:36:43.933Z</time>
      </trkpt>
      <trkpt lat="52.014671" lon="5.887336">
        <ele>49.034828</ele>
        <time>2020-11-05T14:36:46.904Z</time>
      </trkpt>
      <trkpt lat="52.014602" lon="5.890158">
        <ele>50.515005</ele>
        <time>2020-11-05T14:37:25.337Z</time>
      </trkpt>
      <trkpt lat="52.014568" lon="5.890812">
        <ele>50.631662</ele>
        <time>2020-11-05T14:37:34.625Z</time>
      </trkpt>
      <trkpt lat="52.014556" lon="5.893089">
        <ele>50.674112</ele>
        <time>2020-11-05T14:38:00.171Z</time>
      </trkpt>
      <trkpt lat="52.014730" lon="5.894222">
        <ele>50.453708</ele>
        <time>2020-11-05T14:38:12.403Z</time>
      </trkpt>
      <trkpt lat="52.014761" lon="5.894252">
        <ele>50.440188</ele>
        <time>2020-11-05T14:38:13.378Z</time>
      </trkpt>
      <trkpt lat="52.014775" lon="5.894352">
        <ele>50.416539</ele>
        <time>2020-11-05T14:38:15.161Z</time>
      </trkpt>
      <trkpt lat="52.014916" lon="5.894308">
        <ele>50.362742</ele>
        <time>2020-11-05T14:38:17.598Z</time>
      </trkpt>
      <trkpt lat="52.015452" lon="5.894138">
        <ele>50.158120</ele>
        <time>2020-11-05T14:38:26.416Z</time>
      </trkpt>
      <trkpt lat="52.015554" lon="5.894106">
        <ele>50.119196</ele>
        <time>2020-11-05T14:38:28.205Z</time>
      </trkpt>
      <trkpt lat="52.015599" lon="5.894096">
        <ele>50.102178</ele>
        <time>2020-11-05T14:38:28.981Z</time>
      </trkpt>
      <trkpt lat="52.015619" lon="5.894227">
        <ele>50.071054</ele>
        <time>2020-11-05T14:38:31.391Z</time>
      </trkpt>
      <trkpt lat="52.015579" lon="5.894236">
        <ele>50.055923</ele>
        <time>2020-11-05T14:38:32.550Z</time>
      </trkpt>
      <trkpt lat="52.015603" lon="5.894615">
        <ele>50.149696</ele>
        <time>2020-11-05T14:38:39.981Z</time>
      </trkpt>
      <trkpt lat="52.015697" lon="5.896068">
        <ele>51.523306</ele>
        <time>2020-11-05T14:39:10.931Z</time>
      </trkpt>
      <trkpt lat="52.015689" lon="5.896457">
        <ele>51.889240</ele>
        <time>2020-11-05T14:39:20.069Z</time>
      </trkpt>
      <trkpt lat="52.015625" lon="5.896666">
        <ele>52.108717</ele>
        <time>2020-11-05T14:39:25.774Z</time>
      </trkpt>
      <trkpt lat="52.015565" lon="5.896921">
        <ele>52.365387</ele>
        <time>2020-11-05T14:39:32.232Z</time>
      </trkpt>
      <trkpt lat="52.015561" lon="5.897052">
        <ele>52.488703</ele>
        <time>2020-11-05T14:39:35.232Z</time>
      </trkpt>
      <trkpt lat="52.015745" lon="5.900264">
        <ele>57.535574</ele>
        <time>2020-11-05T14:40:55.819Z</time>
      </trkpt>
      <trkpt lat="52.015761" lon="5.900598">
        <ele>57.908438</ele>
        <time>2020-11-05T14:41:04.237Z</time>
      </trkpt>
      <trkpt lat="52.015826" lon="5.901707">
        <ele>59.148333</ele>
        <time>2020-11-05T14:41:30.626Z</time>
      </trkpt>
      <trkpt lat="52.015892" lon="5.903090">
        <ele>60.692221</ele>
        <time>2020-11-05T14:42:01.094Z</time>
      </trkpt>
      <trkpt lat="52.015870" lon="5.903381">
        <ele>60.755055</ele>
        <time>2020-11-05T14:42:06.930Z</time>
      </trkpt>
      <trkpt lat="52.015800" lon="5.903590">
        <ele>60.748123</ele>
        <time>2020-11-05T14:42:11.617Z</time>
      </trkpt>
      <trkpt lat="52.015859" lon="5.904115">
        <ele>60.732577</ele>
        <time>2020-11-05T14:42:21.408Z</time>
      </trkpt>
      <trkpt lat="52.016080" lon="5.905562">
        <ele>60.689147</ele>
        <time>2020-11-05T14:42:47.633Z</time>
      </trkpt>
      <trkpt lat="52.016306" lon="5.906815">
        <ele>60.533127</ele>
        <time>2020-11-05T14:43:10.640Z</time>
      </trkpt>
      <trkpt lat="52.016337" lon="5.906934">
        <ele>60.511966</ele>
        <time>2020-11-05T14:43:12.961Z</time>
      </trkpt>
      <trkpt lat="52.016631" lon="5.908092">
        <ele>60.306835</ele>
        <time>2020-11-05T14:43:35.429Z</time>
      </trkpt>
      <trkpt lat="52.016908" lon="5.909267">
        <ele>60.179198</ele>
        <time>2020-11-05T14:43:57.955Z</time>
      </trkpt>
      <trkpt lat="52.017266" lon="5.910722">
        <ele>60.129444</ele>
        <time>2020-11-05T14:44:26.497Z</time>
      </trkpt>
      <trkpt lat="52.017289" lon="5.911044">
        <ele>60.119152</ele>
        <time>2020-11-05T14:44:32.542Z</time>
      </trkpt>
      <trkpt lat="52.017124" lon="5.911697">
        <ele>60.196643</ele>
        <time>2020-11-05T14:44:45.550Z</time>
      </trkpt>
      <trkpt lat="52.016662" lon="5.913173">
        <ele>60.760402</ele>
        <time>2020-11-05T14:45:16.589Z</time>
      </trkpt>
      <trkpt lat="52.016504" lon="5.913946">
        <ele>61.037704</ele>
        <time>2020-11-05T14:45:32.958Z</time>
      </trkpt>
      <trkpt lat="52.016382" lon="5.914431">
        <ele>61.583458</ele>
        <time>2020-11-05T14:45:44.641Z</time>
      </trkpt>
      <trkpt lat="52.016315" lon="5.914629">
        <ele>61.904361</ele>
        <time>2020-11-05T14:45:49.810Z</time>
      </trkpt>
      <trkpt lat="52.016096" lon="5.915281">
        <ele>62.959274</ele>
        <time>2020-11-05T14:46:07.510Z</time>
      </trkpt>
      <trkpt lat="52.015982" lon="5.915679">
        <ele>63.582740</ele>
        <time>2020-11-05T14:46:17.565Z</time>
      </trkpt>
      <trkpt lat="52.015867" lon="5.916204">
        <ele>64.374175</ele>
        <time>2020-11-05T14:46:30.617Z</time>
      </trkpt>
      <trkpt lat="52.015774" lon="5.916935">
        <ele>65.627334</ele>
        <time>2020-11-05T14:46:50.048Z</time>
      </trkpt>
      <trkpt lat="52.015778" lon="5.917629">
        <ele>67.650225</ele>
        <time>2020-11-05T14:47:10.039Z</time>
      </trkpt>
      <trkpt lat="52.015746" lon="5.918196">
        <ele>69.309795</ele>
        <time>2020-11-05T14:47:27.488Z</time>
      </trkpt>
      <trkpt lat="52.015615" lon="5.918598">
        <ele>70.635621</ele>
        <time>2020-11-05T14:47:41.663Z</time>
      </trkpt>
      <trkpt lat="52.015122" lon="5.918641">
        <ele>72.973795</ele>
        <time>2020-11-05T14:48:00.900Z</time>
      </trkpt>
      <trkpt lat="52.014408" lon="5.918238">
        <ele>77.015959</ele>
        <time>2020-11-05T14:48:29.970Z</time>
      </trkpt>
      <trkpt lat="52.013501" lon="5.917696">
        <ele>82.352989</ele>
        <time>2020-11-05T14:49:10.016Z</time>
      </trkpt>
      <trkpt lat="52.013022" lon="5.917421">
        <ele>84.710079</ele>
        <time>2020-11-05T14:49:30.174Z</time>
      </trkpt>
      <trkpt lat="52.012607" lon="5.917172">
        <ele>86.400781</ele>
        <time>2020-11-05T14:49:46.744Z</time>
      </trkpt>
      <trkpt lat="52.011524" lon="5.916535">
        <ele>90.570514</ele>
        <time>2020-11-05T14:50:23.469Z</time>
      </trkpt>
      <trkpt lat="52.010260" lon="5.915786">
        <ele>90.441594</ele>
        <time>2020-11-05T14:50:47.249Z</time>
      </trkpt>
      <trkpt lat="52.009815" lon="5.915517">
        <ele>90.249653</ele>
        <time>2020-11-05T14:50:54.149Z</time>
      </trkpt>
      <trkpt lat="52.009469" lon="5.915309">
        <ele>89.546032</ele>
        <time>2020-11-05T14:50:59.485Z</time>
      </trkpt>
      <trkpt lat="52.008793" lon="5.914900">
        <ele>88.170254</ele>
        <time>2020-11-05T14:51:09.811Z</time>
      </trkpt>
      <trkpt lat="52.008137" lon="5.914504">
        <ele>86.920990</ele>
        <time>2020-11-05T14:51:20.252Z</time>
      </trkpt>
      <trkpt lat="52.008139" lon="5.914707">
        <ele>86.830308</ele>
        <time>2020-11-05T14:51:22.319Z</time>
      </trkpt>
      <trkpt lat="52.008100" lon="5.914711">
        <ele>86.801953</ele>
        <time>2020-11-05T14:51:22.967Z</time>
      </trkpt>
      <trkpt lat="52.008042" lon="5.914720">
        <ele>86.759676</ele>
        <time>2020-11-05T14:51:23.917Z</time>
      </trkpt>
      <trkpt lat="52.007932" lon="5.914737">
        <ele>86.679498</ele>
        <time>2020-11-05T14:51:25.790Z</time>
      </trkpt>
      <trkpt lat="52.007982" lon="5.915168">
        <ele>86.483602</ele>
        <time>2020-11-05T14:51:30.365Z</time>
      </trkpt>
      <trkpt lat="52.008205" lon="5.918582">
        <ele>84.710434</ele>
        <time>2020-11-05T14:52:07.468Z</time>
      </trkpt>
      <trkpt lat="52.008284" lon="5.919259">
        <ele>84.299927</ele>
        <time>2020-11-05T14:52:14.512Z</time>
      </trkpt>
      <trkpt lat="52.008369" lon="5.920009">
        <ele>83.656732</ele>
        <time>2020-11-05T14:52:21.936Z</time>
      </trkpt>
      <trkpt lat="52.008410" lon="5.920126">
        <ele>83.391653</ele>
        <time>2020-11-05T14:52:23.239Z</time>
      </trkpt>
      <trkpt lat="52.008486" lon="5.920299">
        <ele>82.973177</ele>
        <time>2020-11-05T14:52:25.202Z</time>
      </trkpt>
      <trkpt lat="52.008964" lon="5.922349">
        <ele>78.657015</ele>
        <time>2020-11-05T14:52:44.587Z</time>
      </trkpt>
      <trkpt lat="52.009081" lon="5.923042">
        <ele>76.719293</ele>
        <time>2020-11-05T14:52:50.453Z</time>
      </trkpt>
      <trkpt lat="52.009161" lon="5.923836">
        <ele>74.246553</ele>
        <time>2020-11-05T14:52:56.934Z</time>
      </trkpt>
      <trkpt lat="52.009180" lon="5.924247">
        <ele>72.979837</ele>
        <time>2020-11-05T14:53:00.227Z</time>
      </trkpt>
      <trkpt lat="52.009195" lon="5.926038">
        <ele>68.166041</ele>
        <time>2020-11-05T14:53:14.978Z</time>
      </trkpt>
      <trkpt lat="52.009196" lon="5.926340">
        <ele>67.611105</ele>
        <time>2020-11-05T14:53:17.558Z</time>
      </trkpt>
      <trkpt lat="52.009195" lon="5.926637">
        <ele>67.065357</ele>
        <time>2020-11-05T14:53:20.139Z</time>
      </trkpt>
      <trkpt lat="52.009328" lon="5.926635">
        <ele>66.668306</ele>
        <time>2020-11-05T14:53:21.933Z</time>
      </trkpt>
      <trkpt lat="52.009467" lon="5.926618">
        <ele>66.252186</ele>
        <time>2020-11-05T14:53:23.819Z</time>
      </trkpt>
      <trkpt lat="52.009708" lon="5.926418">
        <ele>65.444321</ele>
        <time>2020-11-05T14:53:27.637Z</time>
      </trkpt>
      <trkpt lat="52.009881" lon="5.926336">
        <ele>64.906347</ele>
        <time>2020-11-05T14:53:30.239Z</time>
      </trkpt>
      <trkpt lat="52.010648" lon="5.926157">
        <ele>63.824118</ele>
        <time>2020-11-05T14:53:42.533Z</time>
      </trkpt>
      <trkpt lat="52.011295" lon="5.926076">
        <ele>63.823866</ele>
        <time>2020-11-05T14:53:54.899Z</time>
      </trkpt>
      <trkpt lat="52.012480" lon="5.926044">
        <ele>63.788233</ele>
        <time>2020-11-05T14:54:18.782Z</time>
      </trkpt>
      <trkpt lat="52.012681" lon="5.926070">
        <ele>63.772318</ele>
        <time>2020-11-05T14:54:22.777Z</time>
      </trkpt>
      <trkpt lat="52.013044" lon="5.926179">
        <ele>63.743182</ele>
        <time>2020-11-05T14:54:29.513Z</time>
      </trkpt>
      <trkpt lat="52.013794" lon="5.926143">
        <ele>63.683960</ele>
        <time>2020-11-05T14:54:41.870Z</time>
      </trkpt>
      <trkpt lat="52.014259" lon="5.926087">
        <ele>63.331961</ele>
        <time>2020-11-05T14:54:49.427Z</time>
      </trkpt>
      <trkpt lat="52.014900" lon="5.925943">
        <ele>62.813702</ele>
        <time>2020-11-05T14:54:59.512Z</time>
      </trkpt>
      <trkpt lat="52.015014" lon="5.925942">
        <ele>62.722399</ele>
        <time>2020-11-05T14:55:01.324Z</time>
      </trkpt>
      <trkpt lat="52.015076" lon="5.925941">
        <ele>62.672741</ele>
        <time>2020-11-05T14:55:02.253Z</time>
      </trkpt>
      <trkpt lat="52.015320" lon="5.925867">
        <ele>62.473947</ele>
        <time>2020-11-05T14:55:06.353Z</time>
      </trkpt>
      <trkpt lat="52.016187" lon="5.925787">
        <ele>62.903004</ele>
        <time>2020-11-05T14:55:21.199Z</time>
      </trkpt>
      <trkpt lat="52.016600" lon="5.925796">
        <ele>63.376294</ele>
        <time>2020-11-05T14:55:30.533Z</time>
      </trkpt>
      <trkpt lat="52.016627" lon="5.926558">
        <ele>63.914554</ele>
        <time>2020-11-05T14:55:47.953Z</time>
      </trkpt>
      <trkpt lat="52.016610" lon="5.926785">
        <ele>64.075818</ele>
        <time>2020-11-05T14:55:53.403Z</time>
      </trkpt>
      <trkpt lat="52.016657" lon="5.927253">
        <ele>64.590145</ele>
        <time>2020-11-05T14:56:04.962Z</time>
      </trkpt>
      <trkpt lat="52.016673" lon="5.927608">
        <ele>65.258932</ele>
        <time>2020-11-05T14:56:14.033Z</time>
      </trkpt>
      <trkpt lat="52.016754" lon="5.928011">
        <ele>66.055476</ele>
        <time>2020-11-05T14:56:25.234Z</time>
      </trkpt>
      <trkpt lat="52.016755" lon="5.928177">
        <ele>66.367384</ele>
        <time>2020-11-05T14:56:29.474Z</time>
      </trkpt>
      <trkpt lat="52.016701" lon="5.928623">
        <ele>67.221424</ele>
        <time>2020-11-05T14:56:41.424Z</time>
      </trkpt>
      <trkpt lat="52.016701" lon="5.929204">
        <ele>68.313051</ele>
        <time>2020-11-05T14:56:56.504Z</time>
      </trkpt>
      <trkpt lat="52.016747" lon="5.929963">
        <ele>69.746014</ele>
        <time>2020-11-05T14:57:16.158Z</time>
      </trkpt>
      <trkpt lat="52.016784" lon="5.931437">
        <ele>73.295278</ele>
        <time>2020-11-05T14:57:56.283Z</time>
      </trkpt>
      <trkpt lat="52.016878" lon="5.931819">
        <ele>74.288838</ele>
        <time>2020-11-05T14:58:07.997Z</time>
      </trkpt>
      <trkpt lat="52.016877" lon="5.931916">
        <ele>74.523130</ele>
        <time>2020-11-05T14:58:11.020Z</time>
      </trkpt>
      <trkpt lat="52.016823" lon="5.932209">
        <ele>75.261787</ele>
        <time>2020-11-05T14:58:19.868Z</time>
      </trkpt>
      <trkpt lat="52.016819" lon="5.932846">
        <ele>76.800253</ele>
        <time>2020-11-05T14:58:37.860Z</time>
      </trkpt>
      <trkpt lat="52.016891" lon="5.935001">
        <ele>82.206196</ele>
        <time>2020-11-05T14:59:41.608Z</time>
      </trkpt>
      <trkpt lat="52.016947" lon="5.937327">
        <ele>85.284531</ele>
        <time>2020-11-05T15:00:41.424Z</time>
      </trkpt>
      <trkpt lat="52.017006" lon="5.937681">
        <ele>85.548460</ele>
        <time>2020-11-05T15:00:48.132Z</time>
      </trkpt>
      <trkpt lat="52.016975" lon="5.937831">
        <ele>85.662329</ele>
        <time>2020-11-05T15:00:51.056Z</time>
      </trkpt>
      <trkpt lat="52.016256" lon="5.937603">
        <ele>85.882716</ele>
        <time>2020-11-05T15:01:10.901Z</time>
      </trkpt>
      <trkpt lat="52.015869" lon="5.937479">
        <ele>85.126370</ele>
        <time>2020-11-05T15:01:21.146Z</time>
      </trkpt>
      <trkpt lat="52.015348" lon="5.937265">
        <ele>84.095949</ele>
        <time>2020-11-05T15:01:34.638Z</time>
      </trkpt>
      <trkpt lat="52.015248" lon="5.937262">
        <ele>83.904171</ele>
        <time>2020-11-05T15:01:37.162Z</time>
      </trkpt>
      <trkpt lat="52.015222" lon="5.937329">
        <ele>83.810699</ele>
        <time>2020-11-05T15:01:38.401Z</time>
      </trkpt>
      <trkpt lat="52.015239" lon="5.938818">
        <ele>83.260717</ele>
        <time>2020-11-05T15:02:02.631Z</time>
      </trkpt>
      <trkpt lat="52.015390" lon="5.939081">
        <ele>83.496832</ele>
        <time>2020-11-05T15:02:09.151Z</time>
      </trkpt>
      <trkpt lat="52.015412" lon="5.939671">
        <ele>83.884860</ele>
        <time>2020-11-05T15:02:21.802Z</time>
      </trkpt>
      <trkpt lat="52.015393" lon="5.940236">
        <ele>84.256318</ele>
        <time>2020-11-05T15:02:35.094Z</time>
      </trkpt>
      <trkpt lat="52.015308" lon="5.940594">
        <ele>84.508217</ele>
        <time>2020-11-05T15:02:44.556Z</time>
      </trkpt>
      <trkpt lat="52.015375" lon="5.940643">
        <ele>84.586588</ele>
        <time>2020-11-05T15:02:47.582Z</time>
      </trkpt>
      <trkpt lat="52.015425" lon="5.940739">
        <ele>84.669148</ele>
        <time>2020-11-05T15:02:50.757Z</time>
      </trkpt>
      <trkpt lat="52.015460" lon="5.940819">
        <ele>84.733582</ele>
        <time>2020-11-05T15:02:53.804Z</time>
      </trkpt>
      <trkpt lat="52.015525" lon="5.940830">
        <ele>84.932601</ele>
        <time>2020-11-05T15:02:56.451Z</time>
      </trkpt>
      <trkpt lat="52.016171" lon="5.940769">
        <ele>87.226391</ele>
        <time>2020-11-05T15:03:25.894Z</time>
      </trkpt>
      <trkpt lat="52.016198" lon="5.940855">
        <ele>87.437010</ele>
        <time>2020-11-05T15:03:28.631Z</time>
      </trkpt>
      <trkpt lat="52.016206" lon="5.941443">
        <ele>88.720100</ele>
        <time>2020-11-05T15:03:46.099Z</time>
      </trkpt>
      <trkpt lat="52.016287" lon="5.941497">
        <ele>89.030455</ele>
        <time>2020-11-05T15:03:49.974Z</time>
      </trkpt>
      <trkpt lat="52.016771" lon="5.942001">
        <ele>91.068214</ele>
        <time>2020-11-05T15:04:15.340Z</time>
      </trkpt>
      <trkpt lat="52.017143" lon="5.941977">
        <ele>91.133498</ele>
        <time>2020-11-05T15:04:28.954Z</time>
      </trkpt>
      <trkpt lat="52.017479" lon="5.942083">
        <ele>91.143169</ele>
        <time>2020-11-05T15:04:40.528Z</time>
      </trkpt>
      <trkpt lat="52.017553" lon="5.942932">
        <ele>91.158078</ele>
        <time>2020-11-05T15:04:56.596Z</time>
      </trkpt>
      <trkpt lat="52.017611" lon="5.943017">
        <ele>91.160284</ele>
        <time>2020-11-05T15:04:58.818Z</time>
      </trkpt>
      <trkpt lat="52.018030" lon="5.943117">
        <ele>91.172249</ele>
        <time>2020-11-05T15:05:09.831Z</time>
      </trkpt>
      <trkpt lat="52.018482" lon="5.943309">
        <ele>89.524620</ele>
        <time>2020-11-05T15:05:21.353Z</time>
      </trkpt>
      <trkpt lat="52.018811" lon="5.943398">
        <ele>88.138204</ele>
        <time>2020-11-05T15:05:29.201Z</time>
      </trkpt>
      <trkpt lat="52.019169" lon="5.943422">
        <ele>86.648797</ele>
        <time>2020-11-05T15:05:37.482Z</time>
      </trkpt>
      <trkpt lat="52.019773" lon="5.943294">
        <ele>84.116817</ele>
        <time>2020-11-05T15:05:51.656Z</time>
      </trkpt>
      <trkpt lat="52.020518" lon="5.943340">
        <ele>80.609034</ele>
        <time>2020-11-05T15:06:08.907Z</time>
      </trkpt>
      <trkpt lat="52.020904" lon="5.943288">
        <ele>78.753442</ele>
        <time>2020-11-05T15:06:17.805Z</time>
      </trkpt>
      <trkpt lat="52.021446" lon="5.943064">
        <ele>76.074171</ele>
        <time>2020-11-05T15:06:30.774Z</time>
      </trkpt>
      <trkpt lat="52.021486" lon="5.943047">
        <ele>75.876094</ele>
        <time>2020-11-05T15:06:31.661Z</time>
      </trkpt>
      <trkpt lat="52.022962" lon="5.943010">
        <ele>69.679016</ele>
        <time>2020-11-05T15:07:06.770Z</time>
      </trkpt>
      <trkpt lat="52.023108" lon="5.942946">
        <ele>69.055551</ele>
        <time>2020-11-05T15:07:10.439Z</time>
      </trkpt>
      <trkpt lat="52.023492" lon="5.942510">
        <ele>67.238877</ele>
        <time>2020-11-05T15:07:21.595Z</time>
      </trkpt>
      <trkpt lat="52.023670" lon="5.942421">
        <ele>66.633874</ele>
        <time>2020-11-05T15:07:26.007Z</time>
      </trkpt>
      <trkpt lat="52.023855" lon="5.942509">
        <ele>66.007664</ele>
        <time>2020-11-05T15:07:30.496Z</time>
      </trkpt>
      <trkpt lat="52.024382" lon="5.942914">
        <ele>64.113875</ele>
        <time>2020-11-05T15:07:44.484Z</time>
      </trkpt>
      <trkpt lat="52.024995" lon="5.943316">
        <ele>61.966455</ele>
        <time>2020-11-05T15:08:01.286Z</time>
      </trkpt>
      <trkpt lat="52.025346" lon="5.943508">
        <ele>61.623526</ele>
        <time>2020-11-05T15:08:11.103Z</time>
      </trkpt>
      <trkpt lat="52.025527" lon="5.945717">
        <ele>60.788898</ele>
        <time>2020-11-05T15:08:49.716Z</time>
      </trkpt>
      <trkpt lat="52.026035" lon="5.945467">
        <ele>61.317242</ele>
        <time>2020-11-05T15:09:09.415Z</time>
      </trkpt>
      <trkpt lat="52.027501" lon="5.944910">
        <ele>63.193879</ele>
        <time>2020-11-05T15:10:04.024Z</time>
      </trkpt>
      <trkpt lat="52.028141" lon="5.944679">
        <ele>63.162753</ele>
        <time>2020-11-05T15:10:25.130Z</time>
      </trkpt>
      <trkpt lat="52.028338" lon="5.944646">
        <ele>63.153351</ele>
        <time>2020-11-05T15:10:30.950Z</time>
      </trkpt>
      <trkpt lat="52.028433" lon="5.944648">
        <ele>63.148840</ele>
        <time>2020-11-05T15:10:33.671Z</time>
      </trkpt>
      <trkpt lat="52.028794" lon="5.944535">
        <ele>63.131386</ele>
        <time>2020-11-05T15:10:43.902Z</time>
      </trkpt>
      <trkpt lat="52.029195" lon="5.944371">
        <ele>63.021497</ele>
        <time>2020-11-05T15:10:55.214Z</time>
      </trkpt>
      <trkpt lat="52.029646" lon="5.944110">
        <ele>62.355904</ele>
        <time>2020-11-05T15:11:08.114Z</time>
      </trkpt>
      <trkpt lat="52.030055" lon="5.943615">
        <ele>61.646936</ele>
        <time>2020-11-05T15:11:21.557Z</time>
      </trkpt>
      <trkpt lat="52.030030" lon="5.943885">
        <ele>61.413381</ele>
        <time>2020-11-05T15:11:25.974Z</time>
      </trkpt>
      <trkpt lat="52.030037" lon="5.944129">
        <ele>61.204439</ele>
        <time>2020-11-05T15:11:29.922Z</time>
      </trkpt>
      <trkpt lat="52.030078" lon="5.944226">
        <ele>61.103772</ele>
        <time>2020-11-05T15:11:31.806Z</time>
      </trkpt>
      <trkpt lat="52.030182" lon="5.944475">
        <ele>60.846338</ele>
        <time>2020-11-05T15:11:36.781Z</time>
      </trkpt>
      <trkpt lat="52.031738" lon="5.946814">
        <ele>59.105487</ele>
        <time>2020-11-05T15:12:36.413Z</time>
      </trkpt>
      <trkpt lat="52.031865" lon="5.947028">
        <ele>58.992151</ele>
        <time>2020-11-05T15:12:41.573Z</time>
      </trkpt>
      <trkpt lat="52.032170" lon="5.947757">
        <ele>58.656114</ele>
        <time>2020-11-05T15:12:56.756Z</time>
      </trkpt>
      <trkpt lat="52.033141" lon="5.949117">
        <ele>58.243050</ele>
        <time>2020-11-05T15:13:33.198Z</time>
      </trkpt>
      <trkpt lat="52.034125" lon="5.950377">
        <ele>58.784564</ele>
        <time>2020-11-05T15:14:13.156Z</time>
      </trkpt>
      <trkpt lat="52.034828" lon="5.951437">
        <ele>60.013325</ele>
        <time>2020-11-05T15:14:46.860Z</time>
      </trkpt>
      <trkpt lat="52.035417" lon="5.952235">
        <ele>61.150218</ele>
        <time>2020-11-05T15:15:14.444Z</time>
      </trkpt>
      <trkpt lat="52.035680" lon="5.952524">
        <ele>61.667382</ele>
        <time>2020-11-05T15:15:25.762Z</time>
      </trkpt>
      <trkpt lat="52.036157" lon="5.953312">
        <ele>63.196235</ele>
        <time>2020-11-05T15:15:51.349Z</time>
      </trkpt>
      <trkpt lat="52.036699" lon="5.954069">
        <ele>64.802629</ele>
        <time>2020-11-05T15:16:18.984Z</time>
      </trkpt>
      <trkpt lat="52.036751" lon="5.954317">
        <ele>65.164962</ele>
        <time>2020-11-05T15:16:25.240Z</time>
      </trkpt>
      <trkpt lat="52.036766" lon="5.954617">
        <ele>65.583346</ele>
        <time>2020-11-05T15:16:33.118Z</time>
      </trkpt>
      <trkpt lat="52.036706" lon="5.955024">
        <ele>66.342493</ele>
        <time>2020-11-05T15:16:43.729Z</time>
      </trkpt>
      <trkpt lat="52.036750" lon="5.955229">
        <ele>66.736321</ele>
        <time>2020-11-05T15:16:49.548Z</time>
      </trkpt>
      <trkpt lat="52.038005" lon="5.956776">
        <ele>71.107934</ele>
        <time>2020-11-05T15:17:55.872Z</time>
      </trkpt>
      <trkpt lat="52.038272" lon="5.957067">
        <ele>71.541873</ele>
        <time>2020-11-05T15:18:08.159Z</time>
      </trkpt>
      <trkpt lat="52.038459" lon="5.957174">
        <ele>71.809491</ele>
        <time>2020-11-05T15:18:15.191Z</time>
      </trkpt>
      <trkpt lat="52.038797" lon="5.957520">
        <ele>72.348692</ele>
        <time>2020-11-05T15:18:28.505Z</time>
      </trkpt>
      <trkpt lat="52.038848" lon="5.957572">
        <ele>72.429959</ele>
        <time>2020-11-05T15:18:30.516Z</time>
      </trkpt>
      <trkpt lat="52.039181" lon="5.958215">
        <ele>73.127926</ele>
        <time>2020-11-05T15:18:47.244Z</time>
      </trkpt>
      <trkpt lat="52.039216" lon="5.959189">
        <ele>74.082769</ele>
        <time>2020-11-05T15:18:58.605Z</time>
      </trkpt>
      <trkpt lat="52.039218" lon="5.959395">
        <ele>74.292999</ele>
        <time>2020-11-05T15:19:01.241Z</time>
      </trkpt>
      <trkpt lat="52.039205" lon="5.959644">
        <ele>74.547994</ele>
        <time>2020-11-05T15:19:04.127Z</time>
      </trkpt>
      <trkpt lat="52.039529" lon="5.971605">
        <ele>86.610394</ele>
        <time>2020-11-05T15:22:08.342Z</time>
      </trkpt>
      <trkpt lat="52.039688" lon="5.976216">
        <ele>90.191265</ele>
        <time>2020-11-05T15:23:11.966Z</time>
      </trkpt>
      <trkpt lat="52.039879" lon="5.982389">
        <ele>94.456683</ele>
        <time>2020-11-05T15:24:36.986Z</time>
      </trkpt>
      <trkpt lat="52.039973" lon="5.984898">
        <ele>96.106253</ele>
        <time>2020-11-05T15:25:10.482Z</time>
      </trkpt>
      <trkpt lat="52.040030" lon="5.987280">
        <ele>98.026116</ele>
        <time>2020-11-05T15:25:44.499Z</time>
      </trkpt>
      <trkpt lat="52.039994" lon="5.987533">
        <ele>98.235257</ele>
        <time>2020-11-05T15:25:48.488Z</time>
      </trkpt>
      <trkpt lat="52.039978" lon="5.987751">
        <ele>98.353799</ele>
        <time>2020-11-05T15:25:51.626Z</time>
      </trkpt>
      <trkpt lat="52.039989" lon="5.987807">
        <ele>98.373714</ele>
        <time>2020-11-05T15:25:52.476Z</time>
      </trkpt>
      <trkpt lat="52.040051" lon="5.988115">
        <ele>98.483504</ele>
        <time>2020-11-05T15:25:57.292Z</time>
      </trkpt>
      <trkpt lat="52.040123" lon="5.988074">
        <ele>98.525521</ele>
        <time>2020-11-05T15:25:59.005Z</time>
      </trkpt>
      <trkpt lat="52.041012" lon="5.987668">
        <ele>99.034099</ele>
        <time>2020-11-05T15:26:18.339Z</time>
      </trkpt>
      <trkpt lat="52.041540" lon="5.987531">
        <ele>99.240441</ele>
        <time>2020-11-05T15:26:27.644Z</time>
      </trkpt>
      <trkpt lat="52.043339" lon="5.986177">
        <ele>96.610735</ele>
        <time>2020-11-05T15:26:57.989Z</time>
      </trkpt>
      <trkpt lat="52.043767" lon="5.985784">
        <ele>95.797337</ele>
        <time>2020-11-05T15:27:05.315Z</time>
      </trkpt>
      <trkpt lat="52.044168" lon="5.985712">
        <ele>95.129731</ele>
        <time>2020-11-05T15:27:11.323Z</time>
      </trkpt>
      <trkpt lat="52.044260" lon="5.985663">
        <ele>94.969529</ele>
        <time>2020-11-05T15:27:12.765Z</time>
      </trkpt>
      <trkpt lat="52.044753" lon="5.985222">
        <ele>94.038396</ele>
        <time>2020-11-05T15:27:21.149Z</time>
      </trkpt>
      <trkpt lat="52.046427" lon="5.983881">
        <ele>91.274550</ele>
        <time>2020-11-05T15:27:49.555Z</time>
      </trkpt>
      <trkpt lat="52.046645" lon="5.983566">
        <ele>90.949816</ele>
        <time>2020-11-05T15:27:54.225Z</time>
      </trkpt>
      <trkpt lat="52.046797" lon="5.983294">
        <ele>90.698144</ele>
        <time>2020-11-05T15:27:57.908Z</time>
      </trkpt>
      <trkpt lat="52.046955" lon="5.982907">
        <ele>90.380049</ele>
        <time>2020-11-05T15:28:02.492Z</time>
      </trkpt>
      <trkpt lat="52.047103" lon="5.982454">
        <ele>90.028783</ele>
        <time>2020-11-05T15:28:07.538Z</time>
      </trkpt>
      <trkpt lat="52.047223" lon="5.982209">
        <ele>89.814304</ele>
        <time>2020-11-05T15:28:10.665Z</time>
      </trkpt>
      <trkpt lat="52.047349" lon="5.982041">
        <ele>89.632870</ele>
        <time>2020-11-05T15:28:13.208Z</time>
      </trkpt>
      <trkpt lat="52.047586" lon="5.981817">
        <ele>89.322680</ele>
        <time>2020-11-05T15:28:17.577Z</time>
      </trkpt>
      <trkpt lat="52.047686" lon="5.981718">
        <ele>89.077608</ele>
        <time>2020-11-05T15:28:19.407Z</time>
      </trkpt>
      <trkpt lat="52.047818" lon="5.981682">
        <ele>88.797440</ele>
        <time>2020-11-05T15:28:21.514Z</time>
      </trkpt>
      <trkpt lat="52.051460" lon="5.979576">
        <ele>80.358198</ele>
        <time>2020-11-05T15:29:16.899Z</time>
      </trkpt>
      <trkpt lat="52.051838" lon="5.979274">
        <ele>79.567350</ele>
        <time>2020-11-05T15:29:23.031Z</time>
      </trkpt>
      <trkpt lat="52.052086" lon="5.979188">
        <ele>79.091186</ele>
        <time>2020-11-05T15:29:26.773Z</time>
      </trkpt>
      <trkpt lat="52.053738" lon="5.978238">
        <ele>76.960156</ele>
        <time>2020-11-05T15:29:54.024Z</time>
      </trkpt>
      <trkpt lat="52.054046" lon="5.977989">
        <ele>76.660280</ele>
        <time>2020-11-05T15:29:59.710Z</time>
      </trkpt>
      <trkpt lat="52.054419" lon="5.977789">
        <ele>76.501135</ele>
        <time>2020-11-05T15:30:06.429Z</time>
      </trkpt>
      <trkpt lat="52.054509" lon="5.977753">
        <ele>76.607950</ele>
        <time>2020-11-05T15:30:08.145Z</time>
      </trkpt>
      <trkpt lat="52.054951" lon="5.977771">
        <ele>77.117510</ele>
        <time>2020-11-05T15:30:22.093Z</time>
      </trkpt>
      <trkpt lat="52.055845" lon="5.977809">
        <ele>78.148188</ele>
        <time>2020-11-05T15:30:53.414Z</time>
      </trkpt>
      <trkpt lat="52.060941" lon="5.978279">
        <ele>90.570705</ele>
        <time>2020-11-05T15:34:18.470Z</time>
      </trkpt>
      <trkpt lat="52.061505" lon="5.978488">
        <ele>91.875379</ele>
        <time>2020-11-05T15:34:39.721Z</time>
      </trkpt>
      <trkpt lat="52.062233" lon="5.978907">
        <ele>92.463318</ele>
        <time>2020-11-05T15:35:06.141Z</time>
      </trkpt>
      <trkpt lat="52.063953" lon="5.979823">
        <ele>93.707703</ele>
        <time>2020-11-05T15:36:02.006Z</time>
      </trkpt>
      <trkpt lat="52.064647" lon="5.980142">
        <ele>94.135045</ele>
        <time>2020-11-05T15:36:25.637Z</time>
      </trkpt>
      <trkpt lat="52.064676" lon="5.980144">
        <ele>94.152244</ele>
        <time>2020-11-05T15:36:26.648Z</time>
      </trkpt>
      <trkpt lat="52.065750" lon="5.980094">
        <ele>95.032438</ele>
        <time>2020-11-05T15:37:02.089Z</time>
      </trkpt>
      <trkpt lat="52.066643" lon="5.979941">
        <ele>95.832117</ele>
        <time>2020-11-05T15:37:32.606Z</time>
      </trkpt>
      <trkpt lat="52.068548" lon="5.979743">
        <ele>96.666548</ele>
        <time>2020-11-05T15:38:32.736Z</time>
      </trkpt>
      <trkpt lat="52.068905" lon="5.979616">
        <ele>96.224355</ele>
        <time>2020-11-05T15:38:43.638Z</time>
      </trkpt>
      <trkpt lat="52.069083" lon="5.979383">
        <ele>95.947899</ele>
        <time>2020-11-05T15:38:50.288Z</time>
      </trkpt>
      <trkpt lat="52.069259" lon="5.979281">
        <ele>95.721821</ele>
        <time>2020-11-05T15:38:55.748Z</time>
      </trkpt>
      <trkpt lat="52.069448" lon="5.979288">
        <ele>95.493064</ele>
        <time>2020-11-05T15:39:01.216Z</time>
      </trkpt>
      <trkpt lat="52.069920" lon="5.979502">
        <ele>94.900159</ele>
        <time>2020-11-05T15:39:14.026Z</time>
      </trkpt>
      <trkpt lat="52.070162" lon="5.979517">
        <ele>94.607117</ele>
        <time>2020-11-05T15:39:20.230Z</time>
      </trkpt>
      <trkpt lat="52.070267" lon="5.979491">
        <ele>94.388517</ele>
        <time>2020-11-05T15:39:22.711Z</time>
      </trkpt>
      <trkpt lat="52.070662" lon="5.979166">
        <ele>92.751982</ele>
        <time>2020-11-05T15:39:33.228Z</time>
      </trkpt>
      <trkpt lat="52.070838" lon="5.979081">
        <ele>92.073213</ele>
        <time>2020-11-05T15:39:37.757Z</time>
      </trkpt>
      <trkpt lat="52.070957" lon="5.979102">
        <ele>91.630669</ele>
        <time>2020-11-05T15:39:40.466Z</time>
      </trkpt>
      <trkpt lat="52.071166" lon="5.979116">
        <ele>90.857306</ele>
        <time>2020-11-05T15:39:45.598Z</time>
      </trkpt>
      <trkpt lat="52.071365" lon="5.979177">
        <ele>90.108624</ele>
        <time>2020-11-05T15:39:50.335Z</time>
      </trkpt>
      <trkpt lat="52.071680" lon="5.979277">
        <ele>88.922050</ele>
        <time>2020-11-05T15:39:57.963Z</time>
      </trkpt>
      <trkpt lat="52.072085" lon="5.979267">
        <ele>87.509531</ele>
        <time>2020-11-05T15:40:07.718Z</time>
      </trkpt>
      <trkpt lat="52.074286" lon="5.979001">
        <ele>80.804324</ele>
        <time>2020-11-05T15:41:02.983Z</time>
      </trkpt>
      <trkpt lat="52.074501" lon="5.979172">
        <ele>80.045133</ele>
        <time>2020-11-05T15:41:08.904Z</time>
      </trkpt>
      <trkpt lat="52.074958" lon="5.979420">
        <ele>78.516851</ele>
        <time>2020-11-05T15:41:20.947Z</time>
      </trkpt>
      <trkpt lat="52.075166" lon="5.979475">
        <ele>77.848345</ele>
        <time>2020-11-05T15:41:25.992Z</time>
      </trkpt>
      <trkpt lat="52.075790" lon="5.979948">
        <ele>75.234744</ele>
        <time>2020-11-05T15:41:42.524Z</time>
      </trkpt>
      <trkpt lat="52.076510" lon="5.980333">
        <ele>71.902908</ele>
        <time>2020-11-05T15:42:00.438Z</time>
      </trkpt>
      <trkpt lat="52.077698" lon="5.981068">
        <ele>66.784454</ele>
        <time>2020-11-05T15:42:29.804Z</time>
      </trkpt>
      <trkpt lat="52.077702" lon="5.981071">
        <ele>66.768645</ele>
        <time>2020-11-05T15:42:29.922Z</time>
      </trkpt>
      <trkpt lat="52.078070" lon="5.981263">
        <ele>65.381508</ele>
        <time>2020-11-05T15:42:39.202Z</time>
      </trkpt>
      <trkpt lat="52.078241" lon="5.981183">
        <ele>64.742856</ele>
        <time>2020-11-05T15:42:43.982Z</time>
      </trkpt>
      <trkpt lat="52.078430" lon="5.981023">
        <ele>63.978138</ele>
        <time>2020-11-05T15:42:48.983Z</time>
      </trkpt>
      <trkpt lat="52.078473" lon="5.980774">
        <ele>63.407579</ele>
        <time>2020-11-05T15:42:53.546Z</time>
      </trkpt>
      <trkpt lat="52.078492" lon="5.980414">
        <ele>62.610509</ele>
        <time>2020-11-05T15:42:58.930Z</time>
      </trkpt>
      <trkpt lat="52.078468" lon="5.979776">
        <ele>62.403410</ele>
        <time>2020-11-05T15:43:09.352Z</time>
      </trkpt>
      <trkpt lat="52.078355" lon="5.978863">
        <ele>62.383422</ele>
        <time>2020-11-05T15:43:27.772Z</time>
      </trkpt>
      <trkpt lat="52.078277" lon="5.978442">
        <ele>62.373985</ele>
        <time>2020-11-05T15:43:37.743Z</time>
      </trkpt>
      <trkpt lat="52.078158" lon="5.978153">
        <ele>62.366519</ele>
        <time>2020-11-05T15:43:45.010Z</time>
      </trkpt>
      <trkpt lat="52.077905" lon="5.977740">
        <ele>62.354004</ele>
        <time>2020-11-05T15:43:56.832Z</time>
      </trkpt>
      <trkpt lat="52.077725" lon="5.977391">
        <ele>62.101732</ele>
        <time>2020-11-05T15:44:04.546Z</time>
      </trkpt>
      <trkpt lat="52.077610" lon="5.977061">
        <ele>61.852590</ele>
        <time>2020-11-05T15:44:11.000Z</time>
      </trkpt>
      <trkpt lat="52.077587" lon="5.976839">
        <ele>61.704734</ele>
        <time>2020-11-05T15:44:14.952Z</time>
      </trkpt>
      <trkpt lat="52.077621" lon="5.976409">
        <ele>61.420005</ele>
        <time>2020-11-05T15:44:22.069Z</time>
      </trkpt>
      <trkpt lat="52.077718" lon="5.976001">
        <ele>61.132703</ele>
        <time>2020-11-05T15:44:29.494Z</time>
      </trkpt>
      <trkpt lat="52.077851" lon="5.975600">
        <ele>60.833446</ele>
        <time>2020-11-05T15:44:37.148Z</time>
      </trkpt>
      <trkpt lat="52.077899" lon="5.975341">
        <ele>60.655784</ele>
        <time>2020-11-05T15:44:41.246Z</time>
      </trkpt>
      <trkpt lat="52.077939" lon="5.974916">
        <ele>60.356942</ele>
        <time>2020-11-05T15:44:48.446Z</time>
      </trkpt>
      <trkpt lat="52.077917" lon="5.974677">
        <ele>60.152360</ele>
        <time>2020-11-05T15:44:52.282Z</time>
      </trkpt>
      <trkpt lat="52.077795" lon="5.973972">
        <ele>59.532334</ele>
        <time>2020-11-05T15:45:04.204Z</time>
      </trkpt>
      <trkpt lat="52.077810" lon="5.973889">
        <ele>59.459095</ele>
        <time>2020-11-05T15:45:05.694Z</time>
      </trkpt>
      <trkpt lat="52.077887" lon="5.973745">
        <ele>59.297510</ele>
        <time>2020-11-05T15:45:08.554Z</time>
      </trkpt>
      <trkpt lat="52.077995" lon="5.973680">
        <ele>59.138898</ele>
        <time>2020-11-05T15:45:11.592Z</time>
      </trkpt>
      <trkpt lat="52.078370" lon="5.973624">
        <ele>58.620192</ele>
        <time>2020-11-05T15:45:21.455Z</time>
      </trkpt>
      <trkpt lat="52.078877" lon="5.973605">
        <ele>57.948728</ele>
        <time>2020-11-05T15:45:36.016Z</time>
      </trkpt>
      <trkpt lat="52.078904" lon="5.973616">
        <ele>57.943600</ele>
        <time>2020-11-05T15:45:36.828Z</time>
      </trkpt>
      <trkpt lat="52.079633" lon="5.973922">
        <ele>57.804869</ele>
        <time>2020-11-05T15:45:59.807Z</time>
      </trkpt>
      <trkpt lat="52.079726" lon="5.973916">
        <ele>57.787718</ele>
        <time>2020-11-05T15:46:02.694Z</time>
      </trkpt>
      <trkpt lat="52.079833" lon="5.973830">
        <ele>57.765727</ele>
        <time>2020-11-05T15:46:06.174Z</time>
      </trkpt>
      <trkpt lat="52.080556" lon="5.975240">
        <ele>57.220957</ele>
        <time>2020-11-05T15:46:38.999Z</time>
      </trkpt>
      <trkpt lat="52.081090" lon="5.976280">
        <ele>56.256043</ele>
        <time>2020-11-05T15:47:01.818Z</time>
      </trkpt>
      <trkpt lat="52.081612" lon="5.977299">
        <ele>55.264388</ele>
        <time>2020-11-05T15:47:23.231Z</time>
      </trkpt>
      <trkpt lat="52.082328" lon="5.978699">
        <ele>53.697258</ele>
        <time>2020-11-05T15:47:52.593Z</time>
      </trkpt>
      <trkpt lat="52.084923" lon="5.983773">
        <ele>51.807190</ele>
        <time>2020-11-05T15:49:49.929Z</time>
      </trkpt>
      <trkpt lat="52.085073" lon="5.984065">
        <ele>51.770513</ele>
        <time>2020-11-05T15:49:56.501Z</time>
      </trkpt>
      <trkpt lat="52.085012" lon="5.984353">
        <ele>51.744706</ele>
        <time>2020-11-05T15:49:59.841Z</time>
      </trkpt>
      <trkpt lat="52.084988" lon="5.984672">
        <ele>51.717481</ele>
        <time>2020-11-05T15:50:03.091Z</time>
      </trkpt>
      <trkpt lat="52.085107" lon="5.987613">
        <ele>51.871134</ele>
        <time>2020-11-05T15:50:35.155Z</time>
      </trkpt>
      <trkpt lat="52.084827" lon="5.987724">
        <ele>52.023153</ele>
        <time>2020-11-05T15:50:44.375Z</time>
      </trkpt>
      <trkpt lat="52.083380" lon="5.988165">
        <ele>52.816022</ele>
        <time>2020-11-05T15:51:33.258Z</time>
      </trkpt>
      <trkpt lat="52.083229" lon="5.988357">
        <ele>52.922609</ele>
        <time>2020-11-05T15:51:39.815Z</time>
      </trkpt>
      <trkpt lat="52.082643" lon="5.990349">
        <ele>53.140273</ele>
        <time>2020-11-05T15:52:22.426Z</time>
      </trkpt>
      <trkpt lat="52.081989" lon="5.992292">
        <ele>51.597944</ele>
        <time>2020-11-05T15:52:59.397Z</time>
      </trkpt>
      <trkpt lat="52.080859" lon="5.995949">
        <ele>45.110682</ele>
        <time>2020-11-05T15:54:02.034Z</time>
      </trkpt>
      <trkpt lat="52.080791" lon="5.996155">
        <ele>44.785065</ele>
        <time>2020-11-05T15:54:05.663Z</time>
      </trkpt>
      <trkpt lat="52.080678" lon="5.996520">
        <ele>44.215949</ele>
        <time>2020-11-05T15:54:12.039Z</time>
      </trkpt>
      <trkpt lat="52.079959" lon="5.998830">
        <ele>41.858802</ele>
        <time>2020-11-05T15:54:54.214Z</time>
      </trkpt>
      <trkpt lat="52.079881" lon="5.999267">
        <ele>41.669845</ele>
        <time>2020-11-05T15:55:02.310Z</time>
      </trkpt>
      <trkpt lat="52.079865" lon="5.999476">
        <ele>41.582390</ele>
        <time>2020-11-05T15:55:06.067Z</time>
      </trkpt>
      <trkpt lat="52.079899" lon="6.000506">
        <ele>41.211719</ele>
        <time>2020-11-05T15:55:25.299Z</time>
      </trkpt>
      <trkpt lat="52.079953" lon="6.000994">
        <ele>41.600401</ele>
        <time>2020-11-05T15:55:35.112Z</time>
      </trkpt>
      <trkpt lat="52.080073" lon="6.001659">
        <ele>42.143684</ele>
        <time>2020-11-05T15:55:49.339Z</time>
      </trkpt>
      <trkpt lat="52.080226" lon="6.002235">
        <ele>42.635563</ele>
        <time>2020-11-05T15:56:02.891Z</time>
      </trkpt>
      <trkpt lat="52.080641" lon="6.003378">
        <ele>43.825263</ele>
        <time>2020-11-05T15:56:33.110Z</time>
      </trkpt>
      <trkpt lat="52.080863" lon="6.003855">
        <ele>44.630414</ele>
        <time>2020-11-05T15:56:47.342Z</time>
      </trkpt>
      <trkpt lat="52.081052" lon="6.004195">
        <ele>45.247320</ele>
        <time>2020-11-05T15:56:58.515Z</time>
      </trkpt>
      <trkpt lat="52.081274" lon="6.004472">
        <ele>45.859867</ele>
        <time>2020-11-05T15:57:09.810Z</time>
      </trkpt>
      <trkpt lat="52.081480" lon="6.004664">
        <ele>46.379674</ele>
        <time>2020-11-05T15:57:19.123Z</time>
      </trkpt>
      <trkpt lat="52.082522" lon="6.005294">
        <ele>48.398056</ele>
        <time>2020-11-05T15:58:00.755Z</time>
      </trkpt>
      <trkpt lat="52.082862" lon="6.005568">
        <ele>48.983457</ele>
        <time>2020-11-05T15:58:14.262Z</time>
      </trkpt>
      <trkpt lat="52.083059" lon="6.005774">
        <ele>49.344760</ele>
        <time>2020-11-05T15:58:22.502Z</time>
      </trkpt>
      <trkpt lat="52.083299" lon="6.006156">
        <ele>49.862746</ele>
        <time>2020-11-05T15:58:34.085Z</time>
      </trkpt>
      <trkpt lat="52.083718" lon="6.007089">
        <ele>50.599225</ele>
        <time>2020-11-05T15:58:58.151Z</time>
      </trkpt>
      <trkpt lat="52.084065" lon="6.007665">
        <ele>51.010341</ele>
        <time>2020-11-05T15:59:15.105Z</time>
      </trkpt>
      <trkpt lat="52.084540" lon="6.008159">
        <ele>51.477891</ele>
        <time>2020-11-05T15:59:33.767Z</time>
      </trkpt>
      <trkpt lat="52.084756" lon="6.008444">
        <ele>51.615265</ele>
        <time>2020-11-05T15:59:42.437Z</time>
      </trkpt>
      <trkpt lat="52.084871" lon="6.008702">
        <ele>51.345228</ele>
        <time>2020-11-05T15:59:48.219Z</time>
      </trkpt>
      <trkpt lat="52.084989" lon="6.009091">
        <ele>50.977688</ele>
        <time>2020-11-05T15:59:55.851Z</time>
      </trkpt>
      <trkpt lat="52.085062" lon="6.009594">
        <ele>50.539808</ele>
        <time>2020-11-05T16:00:04.683Z</time>
      </trkpt>
      <trkpt lat="52.084843" lon="6.011782">
        <ele>48.214342</ele>
        <time>2020-11-05T16:00:39.621Z</time>
      </trkpt>
      <trkpt lat="52.084831" lon="6.012038">
        <ele>47.813927</ele>
        <time>2020-11-05T16:00:43.478Z</time>
      </trkpt>
      <trkpt lat="52.084864" lon="6.012365">
        <ele>47.297108</ele>
        <time>2020-11-05T16:00:48.526Z</time>
      </trkpt>
      <trkpt lat="52.084920" lon="6.012536">
        <ele>46.994910</ele>
        <time>2020-11-05T16:00:51.402Z</time>
      </trkpt>
      <trkpt lat="52.085005" lon="6.012681">
        <ele>46.682373</ele>
        <time>2020-11-05T16:00:54.452Z</time>
      </trkpt>
      <trkpt lat="52.085166" lon="6.012884">
        <ele>46.165456</ele>
        <time>2020-11-05T16:00:59.447Z</time>
      </trkpt>
      <trkpt lat="52.085773" lon="6.013512">
        <ele>44.557013</ele>
        <time>2020-11-05T16:01:17.882Z</time>
      </trkpt>
      <trkpt lat="52.085894" lon="6.013711">
        <ele>44.448683</ele>
        <time>2020-11-05T16:01:22.534Z</time>
      </trkpt>
      <trkpt lat="52.085980" lon="6.013939">
        <ele>44.345164</ele>
        <time>2020-11-05T16:01:27.114Z</time>
      </trkpt>
      <trkpt lat="52.086171" lon="6.014652">
        <ele>44.044194</ele>
        <time>2020-11-05T16:01:40.809Z</time>
      </trkpt>
      <trkpt lat="52.086393" lon="6.015402">
        <ele>43.722069</ele>
        <time>2020-11-05T16:01:55.773Z</time>
      </trkpt>
      <trkpt lat="52.086452" lon="6.015603">
        <ele>43.635875</ele>
        <time>2020-11-05T16:01:59.907Z</time>
      </trkpt>
      <trkpt lat="52.086810" lon="6.016147">
        <ele>43.673761</ele>
        <time>2020-11-05T16:02:14.431Z</time>
      </trkpt>
      <trkpt lat="52.086744" lon="6.016165">
        <ele>43.718193</ele>
        <time>2020-11-05T16:02:16.334Z</time>
      </trkpt>
      <trkpt lat="52.086838" lon="6.016285">
        <ele>43.797516</ele>
        <time>2020-11-05T16:02:18.662Z</time>
      </trkpt>
      <trkpt lat="52.087426" lon="6.017278">
        <ele>44.360137</ele>
        <time>2020-11-05T16:02:37.106Z</time>
      </trkpt>
      <trkpt lat="52.087608" lon="6.017499">
        <ele>44.510908</ele>
        <time>2020-11-05T16:02:41.803Z</time>
      </trkpt>
      <trkpt lat="52.087832" lon="6.017632">
        <ele>44.669224</ele>
        <time>2020-11-05T16:02:46.771Z</time>
      </trkpt>
      <trkpt lat="52.087970" lon="6.017663">
        <ele>44.827110</ele>
        <time>2020-11-05T16:02:49.589Z</time>
      </trkpt>
      <trkpt lat="52.088157" lon="6.017614">
        <ele>45.067926</ele>
        <time>2020-11-05T16:02:53.557Z</time>
      </trkpt>
      <trkpt lat="52.088422" lon="6.017221">
        <ele>45.523751</ele>
        <time>2020-11-05T16:03:01.874Z</time>
      </trkpt>
      <trkpt lat="52.089635" lon="6.015428">
        <ele>47.986626</ele>
        <time>2020-11-05T16:03:44.237Z</time>
      </trkpt>
      <trkpt lat="52.090943" lon="6.013375">
        <ele>51.808994</ele>
        <time>2020-11-05T16:04:36.479Z</time>
      </trkpt>
      <trkpt lat="52.091604" lon="6.012336">
        <ele>53.896310</ele>
        <time>2020-11-05T16:05:03.104Z</time>
      </trkpt>
      <trkpt lat="52.091663" lon="6.012147">
        <ele>54.192170</ele>
        <time>2020-11-05T16:05:06.882Z</time>
      </trkpt>
      <trkpt lat="52.091685" lon="6.011878">
        <ele>54.570894</ele>
        <time>2020-11-05T16:05:11.539Z</time>
      </trkpt>
      <trkpt lat="52.091666" lon="6.011521">
        <ele>55.123465</ele>
        <time>2020-11-05T16:05:20.157Z</time>
      </trkpt>
      <trkpt lat="52.091436" lon="6.009959">
        <ele>57.707003</ele>
        <time>2020-11-05T16:05:59.437Z</time>
      </trkpt>
      <trkpt lat="52.090735" lon="6.007176">
        <ele>62.361696</ele>
        <time>2020-11-05T16:07:15.510Z</time>
      </trkpt>
      <trkpt lat="52.090646" lon="6.006740">
        <ele>63.057136</ele>
        <time>2020-11-05T16:07:26.494Z</time>
      </trkpt>
      <trkpt lat="52.090539" lon="6.006145">
        <ele>63.885499</ele>
        <time>2020-11-05T16:07:40.594Z</time>
      </trkpt>
      <trkpt lat="52.090503" lon="6.005508">
        <ele>64.026234</ele>
        <time>2020-11-05T16:07:54.049Z</time>
      </trkpt>
      <trkpt lat="52.092134" lon="6.005215">
        <ele>64.521135</ele>
        <time>2020-11-05T16:08:26.118Z</time>
      </trkpt>
      <trkpt lat="52.092254" lon="6.005223">
        <ele>64.525440</ele>
        <time>2020-11-05T16:08:28.343Z</time>
      </trkpt>
      <trkpt lat="52.093309" lon="6.005587">
        <ele>64.564098</ele>
        <time>2020-11-05T16:08:49.238Z</time>
      </trkpt>
      <trkpt lat="52.093885" lon="6.005623">
        <ele>64.893179</ele>
        <time>2020-11-05T16:09:01.941Z</time>
      </trkpt>
      <trkpt lat="52.094102" lon="6.005549">
        <ele>65.160243</ele>
        <time>2020-11-05T16:09:07.298Z</time>
      </trkpt>
      <trkpt lat="52.094350" lon="6.005345">
        <ele>65.494953</ele>
        <time>2020-11-05T16:09:14.062Z</time>
      </trkpt>
      <trkpt lat="52.094812" lon="6.004823">
        <ele>66.172390</ele>
        <time>2020-11-05T16:09:28.571Z</time>
      </trkpt>
      <trkpt lat="52.094881" lon="6.004701">
        <ele>66.295105</ele>
        <time>2020-11-05T16:09:31.257Z</time>
      </trkpt>
      <trkpt lat="52.095039" lon="6.004518">
        <ele>66.528689</ele>
        <time>2020-11-05T16:09:36.426Z</time>
      </trkpt>
      <trkpt lat="52.095194" lon="6.004418">
        <ele>66.729526</ele>
        <time>2020-11-05T16:09:40.832Z</time>
      </trkpt>
      <trkpt lat="52.095419" lon="6.004254">
        <ele>66.912857</ele>
        <time>2020-11-05T16:09:47.375Z</time>
      </trkpt>
      <trkpt lat="52.095537" lon="6.004080">
        <ele>67.028078</ele>
        <time>2020-11-05T16:09:51.317Z</time>
      </trkpt>
      <trkpt lat="52.096071" lon="6.003007">
        <ele>67.641996</ele>
        <time>2020-11-05T16:10:11.554Z</time>
      </trkpt>
      <trkpt lat="52.096392" lon="6.003606">
        <ele>67.995376</ele>
        <time>2020-11-05T16:10:21.748Z</time>
      </trkpt>
      <trkpt lat="52.097395" lon="6.005479">
        <ele>66.810552</ele>
        <time>2020-11-05T16:10:48.782Z</time>
      </trkpt>
      <trkpt lat="52.097451" lon="6.005526">
        <ele>66.757344</ele>
        <time>2020-11-05T16:10:49.843Z</time>
      </trkpt>
      <trkpt lat="52.098938" lon="6.005315">
        <ele>66.550009</ele>
        <time>2020-11-05T16:11:17.591Z</time>
      </trkpt>
      <trkpt lat="52.099454" lon="6.005231">
        <ele>66.560869</ele>
        <time>2020-11-05T16:11:29.965Z</time>
      </trkpt>
      <trkpt lat="52.101155" lon="6.005019">
        <ele>68.600052</ele>
        <time>2020-11-05T16:12:14.208Z</time>
      </trkpt>
      <trkpt lat="52.101391" lon="6.004988">
        <ele>68.624476</ele>
        <time>2020-11-05T16:12:19.718Z</time>
      </trkpt>
      <trkpt lat="52.101446" lon="6.004984">
        <ele>68.509706</ele>
        <time>2020-11-05T16:12:20.931Z</time>
      </trkpt>
      <trkpt lat="52.101924" lon="6.005200">
        <ele>67.475570</ele>
        <time>2020-11-05T16:12:30.502Z</time>
      </trkpt>
      <trkpt lat="52.102045" lon="6.005246">
        <ele>67.216541</ele>
        <time>2020-11-05T16:12:32.608Z</time>
      </trkpt>
      <trkpt lat="52.102451" lon="6.005429">
        <ele>66.338334</ele>
        <time>2020-11-05T16:12:39.256Z</time>
      </trkpt>
      <trkpt lat="52.102930" lon="6.005957">
        <ele>65.132430</ele>
        <time>2020-11-05T16:12:47.939Z</time>
      </trkpt>
      <trkpt lat="52.103066" lon="6.006070">
        <ele>64.511494</ele>
        <time>2020-11-05T16:12:50.193Z</time>
      </trkpt>
      <trkpt lat="52.103365" lon="6.006241">
        <ele>62.980152</ele>
        <time>2020-11-05T16:12:54.785Z</time>
      </trkpt>
      <trkpt lat="52.103553" lon="6.006305">
        <ele>62.052076</ele>
        <time>2020-11-05T16:12:57.456Z</time>
      </trkpt>
      <trkpt lat="52.103791" lon="6.006333">
        <ele>60.899044</ele>
        <time>2020-11-05T16:13:00.843Z</time>
      </trkpt>
      <trkpt lat="52.104720" lon="6.006198">
        <ele>56.392206</ele>
        <time>2020-11-05T16:13:14.087Z</time>
      </trkpt>
      <trkpt lat="52.105271" lon="6.006007">
        <ele>55.709083</ele>
        <time>2020-11-05T16:13:22.625Z</time>
      </trkpt>
      <trkpt lat="52.105616" lon="6.005758">
        <ele>55.271643</ele>
        <time>2020-11-05T16:13:29.386Z</time>
      </trkpt>
      <trkpt lat="52.105946" lon="6.005455">
        <ele>54.832486</ele>
        <time>2020-11-05T16:13:37.755Z</time>
      </trkpt>
      <trkpt lat="52.106260" lon="6.005381">
        <ele>54.464719</ele>
        <time>2020-11-05T16:13:45.162Z</time>
      </trkpt>
      <trkpt lat="52.106582" lon="6.005358">
        <ele>54.321858</ele>
        <time>2020-11-05T16:13:53.132Z</time>
      </trkpt>
      <trkpt lat="52.106810" lon="6.005256">
        <ele>54.405946</ele>
        <time>2020-11-05T16:13:58.085Z</time>
      </trkpt>
      <trkpt lat="52.106909" lon="6.005177">
        <ele>54.445154</ele>
        <time>2020-11-05T16:14:02.072Z</time>
      </trkpt>
      <trkpt lat="52.107230" lon="6.004921">
        <ele>54.572268</ele>
        <time>2020-11-05T16:14:10.487Z</time>
      </trkpt>
      <trkpt lat="52.107071" lon="6.005874">
        <ele>54.787965</ele>
        <time>2020-11-05T16:14:28.114Z</time>
      </trkpt>
      <trkpt lat="52.106892" lon="6.006945">
        <ele>54.509879</ele>
        <time>2020-11-05T16:14:48.164Z</time>
      </trkpt>
      <trkpt lat="52.106873" lon="6.007327">
        <ele>54.239549</ele>
        <time>2020-11-05T16:14:54.299Z</time>
      </trkpt>
      <trkpt lat="52.106885" lon="6.008117">
        <ele>53.682143</ele>
        <time>2020-11-05T16:15:06.539Z</time>
      </trkpt>
      <trkpt lat="52.106987" lon="6.011128">
        <ele>52.217335</ele>
        <time>2020-11-05T16:15:58.761Z</time>
      </trkpt>
      <trkpt lat="52.106989" lon="6.011976">
        <ele>51.927071</ele>
        <time>2020-11-05T16:16:13.822Z</time>
      </trkpt>
      <trkpt lat="52.107122" lon="6.012312">
        <ele>51.743704</ele>
        <time>2020-11-05T16:16:18.462Z</time>
      </trkpt>
      <trkpt lat="52.107150" lon="6.012612">
        <ele>51.541293</ele>
        <time>2020-11-05T16:16:22.061Z</time>
      </trkpt>
      <trkpt lat="52.107356" lon="6.013071">
        <ele>51.162088</ele>
        <time>2020-11-05T16:16:28.603Z</time>
      </trkpt>
      <trkpt lat="52.107678" lon="6.013700">
        <ele>50.615886</ele>
        <time>2020-11-05T16:16:37.608Z</time>
      </trkpt>
      <trkpt lat="52.108046" lon="6.014171">
        <ele>50.107515</ele>
        <time>2020-11-05T16:16:45.933Z</time>
      </trkpt>
      <trkpt lat="52.108187" lon="6.014396">
        <ele>49.893097</ele>
        <time>2020-11-05T16:16:49.094Z</time>
      </trkpt>
      <trkpt lat="52.108236" lon="6.014544">
        <ele>49.612344</ele>
        <time>2020-11-05T16:16:50.817Z</time>
      </trkpt>
      <trkpt lat="52.108357" lon="6.014698">
        <ele>49.177494</ele>
        <time>2020-11-05T16:16:53.388Z</time>
      </trkpt>
      <trkpt lat="52.108401" lon="6.014840">
        <ele>48.900913</ele>
        <time>2020-11-05T16:16:54.859Z</time>
      </trkpt>
      <trkpt lat="52.108172" lon="6.016049">
        <ele>46.700779</ele>
        <time>2020-11-05T16:17:14.050Z</time>
      </trkpt>
      <trkpt lat="52.108083" lon="6.016772">
        <ele>45.418491</ele>
        <time>2020-11-05T16:17:25.243Z</time>
      </trkpt>
      <trkpt lat="52.108143" lon="6.017060">
        <ele>44.889635</ele>
        <time>2020-11-05T16:17:29.818Z</time>
      </trkpt>
      <trkpt lat="52.108166" lon="6.017168">
        <ele>44.667318</ele>
        <time>2020-11-05T16:17:31.559Z</time>
      </trkpt>
      <trkpt lat="52.108465" lon="6.017567">
        <ele>43.320863</ele>
        <time>2020-11-05T16:17:41.211Z</time>
      </trkpt>
      <trkpt lat="52.108170" lon="6.017677">
        <ele>42.266810</ele>
        <time>2020-11-05T16:17:48.699Z</time>
      </trkpt>
      <trkpt lat="52.107837" lon="6.017897">
        <ele>41.015166</ele>
        <time>2020-11-05T16:17:57.380Z</time>
      </trkpt>
      <trkpt lat="52.107366" lon="6.018207">
        <ele>39.245760</ele>
        <time>2020-11-05T16:18:09.385Z</time>
      </trkpt>
      <trkpt lat="52.106579" lon="6.018439">
        <ele>36.699189</ele>
        <time>2020-11-05T16:18:28.913Z</time>
      </trkpt>
      <trkpt lat="52.106196" lon="6.018754">
        <ele>35.377405</ele>
        <time>2020-11-05T16:18:39.419Z</time>
      </trkpt>
      <trkpt lat="52.105901" lon="6.018890">
        <ele>34.432954</ele>
        <time>2020-11-05T16:18:47.000Z</time>
      </trkpt>
      <trkpt lat="52.105778" lon="6.018997">
        <ele>34.003370</ele>
        <time>2020-11-05T16:18:50.570Z</time>
      </trkpt>
      <trkpt lat="52.105297" lon="6.019903">
        <ele>32.524530</ele>
        <time>2020-11-05T16:19:09.357Z</time>
      </trkpt>
      <trkpt lat="52.105288" lon="6.019915">
        <ele>32.511246</ele>
        <time>2020-11-05T16:19:09.584Z</time>
      </trkpt>
      <trkpt lat="52.105183" lon="6.020061">
        <ele>32.353568</ele>
        <time>2020-11-05T16:19:13.146Z</time>
      </trkpt>
      <trkpt lat="52.104808" lon="6.020101">
        <ele>31.924432</ele>
        <time>2020-11-05T16:19:23.623Z</time>
      </trkpt>
      <trkpt lat="52.104546" lon="6.020394">
        <ele>31.561469</ele>
        <time>2020-11-05T16:19:29.404Z</time>
      </trkpt>
      <trkpt lat="52.104402" lon="6.020604">
        <ele>31.340711</ele>
        <time>2020-11-05T16:19:33.252Z</time>
      </trkpt>
      <trkpt lat="52.104306" lon="6.020801">
        <ele>31.164332</ele>
        <time>2020-11-05T16:19:35.773Z</time>
      </trkpt>
      <trkpt lat="52.104224" lon="6.021210">
        <ele>30.883497</ele>
        <time>2020-11-05T16:19:40.357Z</time>
      </trkpt>
      <trkpt lat="52.104191" lon="6.021610">
        <ele>30.683135</ele>
        <time>2020-11-05T16:19:44.685Z</time>
      </trkpt>
      <trkpt lat="52.104152" lon="6.022300">
        <ele>30.339140</ele>
        <time>2020-11-05T16:19:52.429Z</time>
      </trkpt>
      <trkpt lat="52.104172" lon="6.022672">
        <ele>30.153755</ele>
        <time>2020-11-05T16:19:56.329Z</time>
      </trkpt>
      <trkpt lat="52.104279" lon="6.023259">
        <ele>29.849780</ele>
        <time>2020-11-05T16:20:02.528Z</time>
      </trkpt>
      <trkpt lat="52.104435" lon="6.024108">
        <ele>29.343443</ele>
        <time>2020-11-05T16:20:11.356Z</time>
      </trkpt>
      <trkpt lat="52.104576" lon="6.024573">
        <ele>28.843898</ele>
        <time>2020-11-05T16:20:16.529Z</time>
      </trkpt>
      <trkpt lat="52.104719" lon="6.024774">
        <ele>28.547610</ele>
        <time>2020-11-05T16:20:19.544Z</time>
      </trkpt>
      <trkpt lat="52.104812" lon="6.024805">
        <ele>28.398731</ele>
        <time>2020-11-05T16:20:21.036Z</time>
      </trkpt>
      <trkpt lat="52.105020" lon="6.024778">
        <ele>28.071485</ele>
        <time>2020-11-05T16:20:24.199Z</time>
      </trkpt>
      <trkpt lat="52.105128" lon="6.024811">
        <ele>27.899149</ele>
        <time>2020-11-05T16:20:25.893Z</time>
      </trkpt>
      <trkpt lat="52.105243" lon="6.024935">
        <ele>27.682825</ele>
        <time>2020-11-05T16:20:28.079Z</time>
      </trkpt>
      <trkpt lat="52.105396" lon="6.025273">
        <ele>27.278368</ele>
        <time>2020-11-05T16:20:32.106Z</time>
      </trkpt>
      <trkpt lat="52.105554" lon="6.025522">
        <ele>26.933501</ele>
        <time>2020-11-05T16:20:35.579Z</time>
      </trkpt>
      <trkpt lat="52.105954" lon="6.025835">
        <ele>26.332859</ele>
        <time>2020-11-05T16:20:42.633Z</time>
      </trkpt>
      <trkpt lat="52.106053" lon="6.025967">
        <ele>26.177519</ele>
        <time>2020-11-05T16:20:44.749Z</time>
      </trkpt>
      <trkpt lat="52.106165" lon="6.026218">
        <ele>25.946196</ele>
        <time>2020-11-05T16:20:47.798Z</time>
      </trkpt>
      <trkpt lat="52.106291" lon="6.026547">
        <ele>25.657108</ele>
        <time>2020-11-05T16:20:51.774Z</time>
      </trkpt>
      <trkpt lat="52.106439" lon="6.027076">
        <ele>25.223689</ele>
        <time>2020-11-05T16:20:57.695Z</time>
      </trkpt>
      <trkpt lat="52.106587" lon="6.027385">
        <ele>24.931524</ele>
        <time>2020-11-05T16:21:01.677Z</time>
      </trkpt>
      <trkpt lat="52.107105" lon="6.027392">
        <ele>24.349144</ele>
        <time>2020-11-05T16:21:09.713Z</time>
      </trkpt>
      <trkpt lat="52.107194" lon="6.027361">
        <ele>24.268258</ele>
        <time>2020-11-05T16:21:11.110Z</time>
      </trkpt>
      <trkpt lat="52.107809" lon="6.026939">
        <ele>23.675140</ele>
        <time>2020-11-05T16:21:21.907Z</time>
      </trkpt>
      <trkpt lat="52.107914" lon="6.026882">
        <ele>23.576775</ele>
        <time>2020-11-05T16:21:23.702Z</time>
      </trkpt>
      <trkpt lat="52.108030" lon="6.026880">
        <ele>23.473677</ele>
        <time>2020-11-05T16:21:25.546Z</time>
      </trkpt>
      <trkpt lat="52.108072" lon="6.026897">
        <ele>23.435215</ele>
        <time>2020-11-05T16:21:26.260Z</time>
      </trkpt>
      <trkpt lat="52.108344" lon="6.027125">
        <ele>23.163329</ele>
        <time>2020-11-05T16:21:31.198Z</time>
      </trkpt>
      <trkpt lat="52.109171" lon="6.027464">
        <ele>22.480064</ele>
        <time>2020-11-05T16:21:45.746Z</time>
      </trkpt>
      <trkpt lat="52.109337" lon="6.029211">
        <ele>21.667695</ele>
        <time>2020-11-05T16:22:03.435Z</time>
      </trkpt>
      <trkpt lat="52.109368" lon="6.029300">
        <ele>21.620677</ele>
        <time>2020-11-05T16:22:04.491Z</time>
      </trkpt>
      <trkpt lat="52.109450" lon="6.029385">
        <ele>21.547942</ele>
        <time>2020-11-05T16:22:06.048Z</time>
      </trkpt>
      <trkpt lat="52.109036" lon="6.033076">
        <ele>20.161650</ele>
        <time>2020-11-05T16:22:44.299Z</time>
      </trkpt>
      <trkpt lat="52.108976" lon="6.033367">
        <ele>20.041373</ele>
        <time>2020-11-05T16:22:47.388Z</time>
      </trkpt>
      <trkpt lat="52.109029" lon="6.033403">
        <ele>20.004734</ele>
        <time>2020-11-05T16:22:48.393Z</time>
      </trkpt>
      <trkpt lat="52.109118" lon="6.033471">
        <ele>19.942012</ele>
        <time>2020-11-05T16:22:50.021Z</time>
      </trkpt>
      <trkpt lat="52.109451" lon="6.033685">
        <ele>19.713609</ele>
        <time>2020-11-05T16:22:55.916Z</time>
      </trkpt>
      <trkpt lat="52.109731" lon="6.034002">
        <ele>19.496031</ele>
        <time>2020-11-05T16:23:01.531Z</time>
      </trkpt>
      <trkpt lat="52.110050" lon="6.034002">
        <ele>19.288472</ele>
        <time>2020-11-05T16:23:07.371Z</time>
      </trkpt>
      <trkpt lat="52.110968" lon="6.033999">
        <ele>18.625254</ele>
        <time>2020-11-05T16:23:24.093Z</time>
      </trkpt>
      <trkpt lat="52.111989" lon="6.033952">
        <ele>17.911556</ele>
        <time>2020-11-05T16:23:42.865Z</time>
      </trkpt>
      <trkpt lat="52.112477" lon="6.033659">
        <ele>17.602621</ele>
        <time>2020-11-05T16:23:52.387Z</time>
      </trkpt>
      <trkpt lat="52.112567" lon="6.033635">
        <ele>17.548451</ele>
        <time>2020-11-05T16:23:54.062Z</time>
      </trkpt>
      <trkpt lat="52.113339" lon="6.033549">
        <ele>17.088831</ele>
        <time>2020-11-05T16:24:08.356Z</time>
      </trkpt>
      <trkpt lat="52.114146" lon="6.033395">
        <ele>16.811186</ele>
        <time>2020-11-05T16:24:23.788Z</time>
      </trkpt>
      <trkpt lat="52.114525" lon="6.033175">
        <ele>16.712558</ele>
        <time>2020-11-05T16:24:31.514Z</time>
      </trkpt>
      <trkpt lat="52.115156" lon="6.032649">
        <ele>16.538798</ele>
        <time>2020-11-05T16:24:45.255Z</time>
      </trkpt>
      <trkpt lat="52.115246" lon="6.032574">
        <ele>16.514264</ele>
        <time>2020-11-05T16:24:47.292Z</time>
      </trkpt>
      <trkpt lat="52.117108" lon="6.031215">
        <ele>16.526090</ele>
        <time>2020-11-05T16:25:23.304Z</time>
      </trkpt>
      <trkpt lat="52.117391" lon="6.031086">
        <ele>16.641140</ele>
        <time>2020-11-05T16:25:28.737Z</time>
      </trkpt>
      <trkpt lat="52.118218" lon="6.030930">
        <ele>16.967067</ele>
        <time>2020-11-05T16:25:44.794Z</time>
      </trkpt>
      <trkpt lat="52.118326" lon="6.030846">
        <ele>17.013922</ele>
        <time>2020-11-05T16:25:47.215Z</time>
      </trkpt>
      <trkpt lat="52.118645" lon="6.030404">
        <ele>17.255513</ele>
        <time>2020-11-05T16:25:55.980Z</time>
      </trkpt>
      <trkpt lat="52.118536" lon="6.030104">
        <ele>17.491263</ele>
        <time>2020-11-05T16:26:01.039Z</time>
      </trkpt>
      <trkpt lat="52.118269" lon="6.029372">
        <ele>18.067081</ele>
        <time>2020-11-05T16:26:13.608Z</time>
      </trkpt>
      <trkpt lat="52.117881" lon="6.028198">
        <ele>18.968776</ele>
        <time>2020-11-05T16:26:34.214Z</time>
      </trkpt>
      <trkpt lat="52.116729" lon="6.024622">
        <ele>21.533993</ele>
        <time>2020-11-05T16:27:34.451Z</time>
      </trkpt>
      <trkpt lat="52.116560" lon="6.024115">
        <ele>21.774391</ele>
        <time>2020-11-05T16:27:42.126Z</time>
      </trkpt>
      <trkpt lat="52.116008" lon="6.022437">
        <ele>22.559685</ele>
        <time>2020-11-05T16:28:07.146Z</time>
      </trkpt>
      <trkpt lat="52.115945" lon="6.022245">
        <ele>22.646474</ele>
        <time>2020-11-05T16:28:09.939Z</time>
      </trkpt>
      <trkpt lat="52.116049" lon="6.021823">
        <ele>22.827759</ele>
        <time>2020-11-05T16:28:15.752Z</time>
      </trkpt>
      <trkpt lat="52.116142" lon="6.021240">
        <ele>23.067901</ele>
        <time>2020-11-05T16:28:23.575Z</time>
      </trkpt>
      <trkpt lat="52.116183" lon="6.020367">
        <ele>23.416961</ele>
        <time>2020-11-05T16:28:35.040Z</time>
      </trkpt>
      <trkpt lat="52.116136" lon="6.020060">
        <ele>23.543101</ele>
        <time>2020-11-05T16:28:39.323Z</time>
      </trkpt>
      <trkpt lat="52.116059" lon="6.019979">
        <ele>23.614349</ele>
        <time>2020-11-05T16:28:41.220Z</time>
      </trkpt>
      <trkpt lat="52.115076" lon="6.019214">
        <ele>24.482499</ele>
        <time>2020-11-05T16:29:05.140Z</time>
      </trkpt>
      <trkpt lat="52.115596" lon="6.018089">
        <ele>25.054966</ele>
        <time>2020-11-05T16:29:22.519Z</time>
      </trkpt>
      <trkpt lat="52.115732" lon="6.017904">
        <ele>25.108293</ele>
        <time>2020-11-05T16:29:25.564Z</time>
      </trkpt>
      <trkpt lat="52.115840" lon="6.017808">
        <ele>25.145319</ele>
        <time>2020-11-05T16:29:27.945Z</time>
      </trkpt>
      <trkpt lat="52.115817" lon="6.017724">
        <ele>25.162315</ele>
        <time>2020-11-05T16:29:29.106Z</time>
      </trkpt>
      <trkpt lat="52.115800" lon="6.017658">
        <ele>25.175541</ele>
        <time>2020-11-05T16:29:29.988Z</time>
      </trkpt>
      <trkpt lat="52.115634" lon="6.017848">
        <ele>25.236599</ele>
        <time>2020-11-05T16:29:33.515Z</time>
      </trkpt>
      <trkpt lat="52.115527" lon="6.018041">
        <ele>25.284649</ele>
        <time>2020-11-05T16:29:36.854Z</time>
      </trkpt>
      <trkpt lat="52.115188" lon="6.018753">
        <ele>25.451137</ele>
        <time>2020-11-05T16:29:46.996Z</time>
      </trkpt>
      <trkpt lat="52.115001" lon="6.019144">
        <ele>25.537506</ele>
        <time>2020-11-05T16:29:52.929Z</time>
      </trkpt>
      <trkpt lat="52.115041" lon="6.019184">
        <ele>25.547351</ele>
        <time>2020-11-05T16:29:53.846Z</time>
      </trkpt>
      <trkpt lat="52.115076" lon="6.019214">
        <ele>25.555647</ele>
        <time>2020-11-05T16:29:54.632Z</time>
      </trkpt>
      <trkpt lat="52.115596" lon="6.018089">
        <ele>25.737005</ele>
        <time>2020-11-05T16:30:10.591Z</time>
      </trkpt>
      <trkpt lat="52.115732" lon="6.017904">
        <ele>25.774173</ele>
        <time>2020-11-05T16:30:13.666Z</time>
      </trkpt>
      <trkpt lat="52.115840" lon="6.017808">
        <ele>25.799980</ele>
        <time>2020-11-05T16:30:15.865Z</time>
      </trkpt>
      <trkpt lat="52.115817" lon="6.017724">
        <ele>25.811826</ele>
        <time>2020-11-05T16:30:17.020Z</time>
      </trkpt>
      <trkpt lat="52.115800" lon="6.017658">
        <ele>25.821044</ele>
        <time>2020-11-05T16:30:17.844Z</time>
      </trkpt>
      <trkpt lat="52.115724" lon="6.017473">
        <ele>25.849712</ele>
        <time>2020-11-05T16:30:20.297Z</time>
      </trkpt>
      <trkpt lat="52.115234" lon="6.017113">
        <ele>26.014211</ele>
        <time>2020-11-05T16:30:30.796Z</time>
      </trkpt>
      <trkpt lat="52.115167" lon="6.017030">
        <ele>26.047174</ele>
        <time>2020-11-05T16:30:32.379Z</time>
      </trkpt>
      <trkpt lat="52.115050" lon="6.017080">
        <ele>26.094538</ele>
        <time>2020-11-05T16:30:35.280Z</time>
      </trkpt>
      <trkpt lat="52.114964" lon="6.017098">
        <ele>26.128490</ele>
        <time>2020-11-05T16:30:37.440Z</time>
      </trkpt>
      <trkpt lat="52.114737" lon="6.017049">
        <ele>26.218152</ele>
        <time>2020-11-05T16:30:43.224Z</time>
      </trkpt>
      <trkpt lat="52.114678" lon="6.017070">
        <ele>26.241800</ele>
        <time>2020-11-05T16:30:44.621Z</time>
      </trkpt>
      <trkpt lat="52.114411" lon="6.016606">
        <ele>26.394700</ele>
        <time>2020-11-05T16:30:53.032Z</time>
      </trkpt>
      <trkpt lat="52.114311" lon="6.016481">
        <ele>26.444062</ele>
        <time>2020-11-05T16:30:55.768Z</time>
      </trkpt>
      <trkpt lat="52.113889" lon="6.016192">
        <ele>26.641526</ele>
        <time>2020-11-05T16:31:05.381Z</time>
      </trkpt>
      <trkpt lat="52.113792" lon="6.016160">
        <ele>26.723646</ele>
        <time>2020-11-05T16:31:07.422Z</time>
      </trkpt>
      <trkpt lat="52.112719" lon="6.016237">
        <ele>27.614825</ele>
        <time>2020-11-05T16:31:32.432Z</time>
      </trkpt>
      <trkpt lat="52.112620" lon="6.016314">
        <ele>27.705859</ele>
        <time>2020-11-05T16:31:35.081Z</time>
      </trkpt>
      <trkpt lat="52.111935" lon="6.016436">
        <ele>28.472763</ele>
        <time>2020-11-05T16:31:51.510Z</time>
      </trkpt>
      <trkpt lat="52.111898" lon="6.016381">
        <ele>28.559863</ele>
        <time>2020-11-05T16:31:53.040Z</time>
      </trkpt>
      <trkpt lat="52.111851" lon="6.016173">
        <ele>28.796499</ele>
        <time>2020-11-05T16:31:56.101Z</time>
      </trkpt>
      <trkpt lat="52.111777" lon="6.015848">
        <ele>29.166583</ele>
        <time>2020-11-05T16:32:00.962Z</time>
      </trkpt>
      <trkpt lat="52.111763" lon="6.015581">
        <ele>29.452695</ele>
        <time>2020-11-05T16:32:04.617Z</time>
      </trkpt>
      <trkpt lat="52.111773" lon="6.015022">
        <ele>30.049792</ele>
        <time>2020-11-05T16:32:13.031Z</time>
      </trkpt>
      <trkpt lat="52.111858" lon="6.013955">
        <ele>31.198569</ele>
        <time>2020-11-05T16:32:32.006Z</time>
      </trkpt>
      <trkpt lat="52.111843" lon="6.013276">
        <ele>33.369702</ele>
        <time>2020-11-05T16:32:46.108Z</time>
      </trkpt>
      <trkpt lat="52.111720" lon="6.011034">
        <ele>40.754559</ele>
        <time>2020-11-05T16:33:46.843Z</time>
      </trkpt>
      <trkpt lat="52.111705" lon="6.010766">
        <ele>41.638345</ele>
        <time>2020-11-05T16:33:56.361Z</time>
      </trkpt>
      <trkpt lat="52.111705" lon="6.010654">
        <ele>42.006201</ele>
        <time>2020-11-05T16:33:59.164Z</time>
      </trkpt>
      <trkpt lat="52.111604" lon="6.010541">
        <ele>42.661580</ele>
        <time>2020-11-05T16:34:03.387Z</time>
      </trkpt>
      <trkpt lat="52.111782" lon="6.010155">
        <ele>44.246995</ele>
        <time>2020-11-05T16:34:20.634Z</time>
      </trkpt>
      <trkpt lat="52.111908" lon="6.009755">
        <ele>45.723506</ele>
        <time>2020-11-05T16:34:36.146Z</time>
      </trkpt>
      <trkpt lat="52.111996" lon="6.009341">
        <ele>47.162397</ele>
        <time>2020-11-05T16:34:49.859Z</time>
      </trkpt>
      <trkpt lat="52.111947" lon="6.009112">
        <ele>47.958874</ele>
        <time>2020-11-05T16:34:57.410Z</time>
      </trkpt>
      <trkpt lat="52.111656" lon="6.007726">
        <ele>51.659356</ele>
        <time>2020-11-05T16:35:35.739Z</time>
      </trkpt>
      <trkpt lat="52.111287" lon="6.005963">
        <ele>54.842542</ele>
        <time>2020-11-05T16:36:21.325Z</time>
      </trkpt>
      <trkpt lat="52.111060" lon="6.004943">
        <ele>56.417377</ele>
        <time>2020-11-05T16:36:47.879Z</time>
      </trkpt>
      <trkpt lat="52.110771" lon="6.003604">
        <ele>58.295107</ele>
        <time>2020-11-05T16:37:22.238Z</time>
      </trkpt>
      <trkpt lat="52.110462" lon="6.002091">
        <ele>59.600622</ele>
        <time>2020-11-05T16:37:47.274Z</time>
      </trkpt>
      <trkpt lat="52.110257" lon="6.001090">
        <ele>59.947413</ele>
        <time>2020-11-05T16:38:00.845Z</time>
      </trkpt>
      <trkpt lat="52.110163" lon="6.000623">
        <ele>60.108927</ele>
        <time>2020-11-05T16:38:06.796Z</time>
      </trkpt>
      <trkpt lat="52.109878" lon="5.999183">
        <ele>60.528324</ele>
        <time>2020-11-05T16:38:25.016Z</time>
      </trkpt>
      <trkpt lat="52.109741" lon="5.998487">
        <ele>60.707974</ele>
        <time>2020-11-05T16:38:34.050Z</time>
      </trkpt>
      <trkpt lat="52.109069" lon="5.995132">
        <ele>62.162176</ele>
        <time>2020-11-05T16:39:24.921Z</time>
      </trkpt>
      <trkpt lat="52.108924" lon="5.994416">
        <ele>62.482735</ele>
        <time>2020-11-05T16:39:35.610Z</time>
      </trkpt>
      <trkpt lat="52.108593" lon="5.992775">
        <ele>62.279312</ele>
        <time>2020-11-05T16:39:56.793Z</time>
      </trkpt>
      <trkpt lat="52.108524" lon="5.992394">
        <ele>62.232529</ele>
        <time>2020-11-05T16:40:01.249Z</time>
      </trkpt>
      <trkpt lat="52.108497" lon="5.992076">
        <ele>62.194721</ele>
        <time>2020-11-05T16:40:04.927Z</time>
      </trkpt>
      <trkpt lat="52.108478" lon="5.991314">
        <ele>61.859520</ele>
        <time>2020-11-05T16:40:13.217Z</time>
      </trkpt>
      <trkpt lat="52.108424" lon="5.989146">
        <ele>60.185402</ele>
        <time>2020-11-05T16:40:36.363Z</time>
      </trkpt>
      <trkpt lat="52.108409" lon="5.988852">
        <ele>59.957782</ele>
        <time>2020-11-05T16:40:39.594Z</time>
      </trkpt>
      <trkpt lat="52.108334" lon="5.986109">
        <ele>57.412685</ele>
        <time>2020-11-05T16:41:24.905Z</time>
      </trkpt>
      <trkpt lat="52.108635" lon="5.985909">
        <ele>56.754254</ele>
        <time>2020-11-05T16:41:30.426Z</time>
      </trkpt>
      <trkpt lat="52.109033" lon="5.985752">
        <ele>55.706235</ele>
        <time>2020-11-05T16:41:36.945Z</time>
      </trkpt>
      <trkpt lat="52.109246" lon="5.985728">
        <ele>55.159827</ele>
        <time>2020-11-05T16:41:40.389Z</time>
      </trkpt>
      <trkpt lat="52.109521" lon="5.985776">
        <ele>54.452021</ele>
        <time>2020-11-05T16:41:44.729Z</time>
      </trkpt>
      <trkpt lat="52.109682" lon="5.985641">
        <ele>53.988569</ele>
        <time>2020-11-05T16:41:47.536Z</time>
      </trkpt>
      <trkpt lat="52.109723" lon="5.985554">
        <ele>53.816211</ele>
        <time>2020-11-05T16:41:48.599Z</time>
      </trkpt>
      <trkpt lat="52.109771" lon="5.985244">
        <ele>53.313731</ele>
        <time>2020-11-05T16:41:51.748Z</time>
      </trkpt>
      <trkpt lat="52.109880" lon="5.984805">
        <ele>52.569492</ele>
        <time>2020-11-05T16:41:56.325Z</time>
      </trkpt>
      <trkpt lat="52.109980" lon="5.984477">
        <ele>51.820456</ele>
        <time>2020-11-05T16:41:59.785Z</time>
      </trkpt>
      <trkpt lat="52.110070" lon="5.984370">
        <ele>51.447357</ele>
        <time>2020-11-05T16:42:01.614Z</time>
      </trkpt>
      <trkpt lat="52.110175" lon="5.984335">
        <ele>51.088520</ele>
        <time>2020-11-05T16:42:03.290Z</time>
      </trkpt>
      <trkpt lat="52.110482" lon="5.984362">
        <ele>50.059167</ele>
        <time>2020-11-05T16:42:08.100Z</time>
      </trkpt>
      <trkpt lat="52.110672" lon="5.984306">
        <ele>49.412698</ele>
        <time>2020-11-05T16:42:10.977Z</time>
      </trkpt>
      <trkpt lat="52.110696" lon="5.984259">
        <ele>49.287016</ele>
        <time>2020-11-05T16:42:11.582Z</time>
      </trkpt>
      <trkpt lat="52.110708" lon="5.984108">
        <ele>48.973945</ele>
        <time>2020-11-05T16:42:13.040Z</time>
      </trkpt>
      <trkpt lat="52.110672" lon="5.983899">
        <ele>48.527623</ele>
        <time>2020-11-05T16:42:14.986Z</time>
      </trkpt>
      <trkpt lat="52.110765" lon="5.983837">
        <ele>48.191167</ele>
        <time>2020-11-05T16:42:16.300Z</time>
      </trkpt>
      <trkpt lat="52.110785" lon="5.983793">
        <ele>48.078611</ele>
        <time>2020-11-05T16:42:16.775Z</time>
      </trkpt>
      <trkpt lat="52.110856" lon="5.983756">
        <ele>47.829021</ele>
        <time>2020-11-05T16:42:17.883Z</time>
      </trkpt>
      <trkpt lat="52.111015" lon="5.983582">
        <ele>47.187625</ele>
        <time>2020-11-05T16:42:20.681Z</time>
      </trkpt>
      <trkpt lat="52.111398" lon="5.983099">
        <ele>45.794999</ele>
        <time>2020-11-05T16:42:28.162Z</time>
      </trkpt>
      <trkpt lat="52.111715" lon="5.983440">
        <ele>44.823948</ele>
        <time>2020-11-05T16:42:34.075Z</time>
      </trkpt>
      <trkpt lat="52.112361" lon="5.984166">
        <ele>42.817780</ele>
        <time>2020-11-05T16:42:46.455Z</time>
      </trkpt>
      <trkpt lat="52.114121" lon="5.986141">
        <ele>40.524551</ele>
        <time>2020-11-05T16:43:24.792Z</time>
      </trkpt>
      <trkpt lat="52.115422" lon="5.988692">
        <ele>41.508597</ele>
        <time>2020-11-05T16:44:12.721Z</time>
      </trkpt>
      <trkpt lat="52.118604" lon="5.994913">
        <ele>39.142352</ele>
        <time>2020-11-05T16:45:45.372Z</time>
      </trkpt>
      <trkpt lat="52.118791" lon="5.995219">
        <ele>38.961491</ele>
        <time>2020-11-05T16:45:50.046Z</time>
      </trkpt>
      <trkpt lat="52.118974" lon="5.995456">
        <ele>38.776691</ele>
        <time>2020-11-05T16:45:54.154Z</time>
      </trkpt>
      <trkpt lat="52.119408" lon="5.995862">
        <ele>38.381096</ele>
        <time>2020-11-05T16:46:03.033Z</time>
      </trkpt>
      <trkpt lat="52.119469" lon="5.995913">
        <ele>38.326899</ele>
        <time>2020-11-05T16:46:04.229Z</time>
      </trkpt>
      <trkpt lat="52.120203" lon="5.996361">
        <ele>37.707347</ele>
        <time>2020-11-05T16:46:18.372Z</time>
      </trkpt>
      <trkpt lat="52.122402" lon="5.997708">
        <ele>37.421013</ele>
        <time>2020-11-05T16:47:04.516Z</time>
      </trkpt>
      <trkpt lat="52.122604" lon="5.997784">
        <ele>37.444460</ele>
        <time>2020-11-05T16:47:09.013Z</time>
      </trkpt>
      <trkpt lat="52.122744" lon="5.997817">
        <ele>37.460458</ele>
        <time>2020-11-05T16:47:12.070Z</time>
      </trkpt>
      <trkpt lat="52.124128" lon="5.997755">
        <ele>37.404488</ele>
        <time>2020-11-05T16:47:40.353Z</time>
      </trkpt>
      <trkpt lat="52.127250" lon="5.997987">
        <ele>35.469285</ele>
        <time>2020-11-05T16:48:37.521Z</time>
      </trkpt>
      <trkpt lat="52.127843" lon="5.998045">
        <ele>35.081339</ele>
        <time>2020-11-05T16:48:48.342Z</time>
      </trkpt>
      <trkpt lat="52.127983" lon="5.998110">
        <ele>34.988977</ele>
        <time>2020-11-05T16:48:51.034Z</time>
      </trkpt>
      <trkpt lat="52.128094" lon="5.998217">
        <ele>34.907145</ele>
        <time>2020-11-05T16:48:53.414Z</time>
      </trkpt>
      <trkpt lat="52.128553" lon="5.999011">
        <ele>34.482354</ele>
        <time>2020-11-05T16:49:05.766Z</time>
      </trkpt>
      <trkpt lat="52.129943" lon="6.001843">
        <ele>33.370973</ele>
        <time>2020-11-05T16:49:47.480Z</time>
      </trkpt>
      <trkpt lat="52.130167" lon="6.002308">
        <ele>33.224274</ele>
        <time>2020-11-05T16:49:54.260Z</time>
      </trkpt>
      <trkpt lat="52.130311" lon="6.002672">
        <ele>33.116799</ele>
        <time>2020-11-05T16:49:59.204Z</time>
      </trkpt>
      <trkpt lat="52.130513" lon="6.003595">
        <ele>32.873599</ele>
        <time>2020-11-05T16:50:10.488Z</time>
      </trkpt>
      <trkpt lat="52.130693" lon="6.004177">
        <ele>32.711858</ele>
        <time>2020-11-05T16:50:17.959Z</time>
      </trkpt>
      <trkpt lat="52.131104" lon="6.005073">
        <ele>33.050609</ele>
        <time>2020-11-05T16:50:31.863Z</time>
      </trkpt>
      <trkpt lat="52.131262" lon="6.004857">
        <ele>33.194492</ele>
        <time>2020-11-05T16:50:36.776Z</time>
      </trkpt>
      <trkpt lat="52.131285" lon="6.004940">
        <ele>33.233486</ele>
        <time>2020-11-05T16:50:37.739Z</time>
      </trkpt>
      <trkpt lat="52.131319" lon="6.005008">
        <ele>33.271041</ele>
        <time>2020-11-05T16:50:38.694Z</time>
      </trkpt>
      <trkpt lat="52.131403" lon="6.005159">
        <ele>33.358300</ele>
        <time>2020-11-05T16:50:41.521Z</time>
      </trkpt>
      <trkpt lat="52.131591" lon="6.005562">
        <ele>33.575042</ele>
        <time>2020-11-05T16:50:49.084Z</time>
      </trkpt>
      <trkpt lat="52.132010" lon="6.006387">
        <ele>34.007278</ele>
        <time>2020-11-05T16:51:05.473Z</time>
      </trkpt>
      <trkpt lat="52.132089" lon="6.006456">
        <ele>34.055943</ele>
        <time>2020-11-05T16:51:07.091Z</time>
      </trkpt>
      <trkpt lat="52.132208" lon="6.006477">
        <ele>34.120926</ele>
        <time>2020-11-05T16:51:10.550Z</time>
      </trkpt>
      <trkpt lat="52.132697" lon="6.006302">
        <ele>34.392735</ele>
        <time>2020-11-05T16:51:21.553Z</time>
      </trkpt>
      <trkpt lat="52.132984" lon="6.006306">
        <ele>34.548553</ele>
        <time>2020-11-05T16:51:28.047Z</time>
      </trkpt>
      <trkpt lat="52.133238" lon="6.006372">
        <ele>34.688193</ele>
        <time>2020-11-05T16:51:33.344Z</time>
      </trkpt>
      <trkpt lat="52.133415" lon="6.006440">
        <ele>34.786923</ele>
        <time>2020-11-05T16:51:37.426Z</time>
      </trkpt>
      <trkpt lat="52.133525" lon="6.006491">
        <ele>34.849013</ele>
        <time>2020-11-05T16:51:39.423Z</time>
      </trkpt>
      <trkpt lat="52.133702" lon="6.006651">
        <ele>34.859259</ele>
        <time>2020-11-05T16:51:43.835Z</time>
      </trkpt>
      <trkpt lat="52.133975" lon="6.006969">
        <ele>34.771837</ele>
        <time>2020-11-05T16:51:50.181Z</time>
      </trkpt>
      <trkpt lat="52.134281" lon="6.007425">
        <ele>34.663808</ele>
        <time>2020-11-05T16:51:57.888Z</time>
      </trkpt>
      <trkpt lat="52.134499" lon="6.007816">
        <ele>34.579349</ele>
        <time>2020-11-05T16:52:03.841Z</time>
      </trkpt>
      <trkpt lat="52.134703" lon="6.008188">
        <ele>34.499588</ele>
        <time>2020-11-05T16:52:09.708Z</time>
      </trkpt>
      <trkpt lat="52.135066" lon="6.009140">
        <ele>34.351580</ele>
        <time>2020-11-05T16:52:23.520Z</time>
      </trkpt>
      <trkpt lat="52.135205" lon="6.009582">
        <ele>34.296301</ele>
        <time>2020-11-05T16:52:29.464Z</time>
      </trkpt>
      <trkpt lat="52.135411" lon="6.010447">
        <ele>34.193028</ele>
        <time>2020-11-05T16:52:40.818Z</time>
      </trkpt>
      <trkpt lat="52.135482" lon="6.010918">
        <ele>34.139045</ele>
        <time>2020-11-05T16:52:46.470Z</time>
      </trkpt>
      <trkpt lat="52.135468" lon="6.011364">
        <ele>34.061211</ele>
        <time>2020-11-05T16:52:51.664Z</time>
      </trkpt>
      <trkpt lat="52.135404" lon="6.011738">
        <ele>33.856573</ele>
        <time>2020-11-05T16:52:56.059Z</time>
      </trkpt>
      <trkpt lat="52.135066" lon="6.012902">
        <ele>33.177882</ele>
        <time>2020-11-05T16:53:10.298Z</time>
      </trkpt>
      <trkpt lat="52.135040" lon="6.013052">
        <ele>33.095730</ele>
        <time>2020-11-05T16:53:12.006Z</time>
      </trkpt>
      <trkpt lat="52.135043" lon="6.013261">
        <ele>32.985544</ele>
        <time>2020-11-05T16:53:14.119Z</time>
      </trkpt>
      <trkpt lat="52.135107" lon="6.013659">
        <ele>32.768692</ele>
        <time>2020-11-05T16:53:18.677Z</time>
      </trkpt>
      <trkpt lat="52.135585" lon="6.015311">
        <ele>31.734165</ele>
        <time>2020-11-05T16:53:38.778Z</time>
      </trkpt>
      <trkpt lat="52.135625" lon="6.015384">
        <ele>31.677618</ele>
        <time>2020-11-05T16:53:39.788Z</time>
      </trkpt>
      <trkpt lat="52.136123" lon="6.015911">
        <ele>31.118558</ele>
        <time>2020-11-05T16:53:50.575Z</time>
      </trkpt>
      <trkpt lat="52.136313" lon="6.016208">
        <ele>30.870668</ele>
        <time>2020-11-05T16:53:55.263Z</time>
      </trkpt>
      <trkpt lat="52.136450" lon="6.016646">
        <ele>30.666778</ele>
        <time>2020-11-05T16:54:00.680Z</time>
      </trkpt>
      <trkpt lat="52.136583" lon="6.017384">
        <ele>30.353111</ele>
        <time>2020-11-05T16:54:09.332Z</time>
      </trkpt>
      <trkpt lat="52.136637" lon="6.017795">
        <ele>30.181706</ele>
        <time>2020-11-05T16:54:13.821Z</time>
      </trkpt>
      <trkpt lat="52.136655" lon="6.018461">
        <ele>29.909844</ele>
        <time>2020-11-05T16:54:21.635Z</time>
      </trkpt>
      <trkpt lat="52.136701" lon="6.018922">
        <ele>29.719377</ele>
        <time>2020-11-05T16:54:27.024Z</time>
      </trkpt>
      <trkpt lat="52.136807" lon="6.019469">
        <ele>29.698633</ele>
        <time>2020-11-05T16:54:33.663Z</time>
      </trkpt>
      <trkpt lat="52.136814" lon="6.019499">
        <ele>29.701170</ele>
        <time>2020-11-05T16:54:34.013Z</time>
      </trkpt>
      <trkpt lat="52.136833" lon="6.019568">
        <ele>29.707148</ele>
        <time>2020-11-05T16:54:34.891Z</time>
      </trkpt>
      <trkpt lat="52.136894" lon="6.019489">
        <ele>29.717185</ele>
        <time>2020-11-05T16:54:37.645Z</time>
      </trkpt>
      <trkpt lat="52.136833" lon="6.019568">
        <ele>29.727221</ele>
        <time>2020-11-05T16:54:39.743Z</time>
      </trkpt>
      <trkpt lat="52.136841" lon="6.019639">
        <ele>29.732927</ele>
        <time>2020-11-05T16:54:40.623Z</time>
      </trkpt>
      <trkpt lat="52.136867" lon="6.019836">
        <ele>29.748856</ele>
        <time>2020-11-05T16:54:42.920Z</time>
      </trkpt>
      <trkpt lat="52.137113" lon="6.019675">
        <ele>29.783001</ele>
        <time>2020-11-05T16:54:48.080Z</time>
      </trkpt>
      <trkpt lat="52.137365" lon="6.019589">
        <ele>29.816162</ele>
        <time>2020-11-05T16:54:52.960Z</time>
      </trkpt>
      <trkpt lat="52.138007" lon="6.019064">
        <ele>29.917508</ele>
        <time>2020-11-05T16:55:07.230Z</time>
      </trkpt>
      <trkpt lat="52.138109" lon="6.019019">
        <ele>29.940359</ele>
        <time>2020-11-05T16:55:09.434Z</time>
      </trkpt>
      <trkpt lat="52.138414" lon="6.018985">
        <ele>30.006469</ele>
        <time>2020-11-05T16:55:15.383Z</time>
      </trkpt>
      <trkpt lat="52.138835" lon="6.019115">
        <ele>30.099129</ele>
        <time>2020-11-05T16:55:23.437Z</time>
      </trkpt>
      <trkpt lat="52.138844" lon="6.019117">
        <ele>30.101093</ele>
        <time>2020-11-05T16:55:23.624Z</time>
      </trkpt>
      <trkpt lat="52.139049" lon="6.019107">
        <ele>30.145444</ele>
        <time>2020-11-05T16:55:27.220Z</time>
      </trkpt>
      <trkpt lat="52.139373" lon="6.019295">
        <ele>30.219818</ele>
        <time>2020-11-05T16:55:33.472Z</time>
      </trkpt>
      <trkpt lat="52.139508" lon="6.019324">
        <ele>30.249264</ele>
        <time>2020-11-05T16:55:35.996Z</time>
      </trkpt>
      <trkpt lat="52.139657" lon="6.019293">
        <ele>30.281746</ele>
        <time>2020-11-05T16:55:38.783Z</time>
      </trkpt>
      <trkpt lat="52.139775" lon="6.019253">
        <ele>30.281885</ele>
        <time>2020-11-05T16:55:40.794Z</time>
      </trkpt>
      <trkpt lat="52.140639" lon="6.018445">
        <ele>30.256416</ele>
        <time>2020-11-05T16:55:58.749Z</time>
      </trkpt>
      <trkpt lat="52.140994" lon="6.018197">
        <ele>30.246541</ele>
        <time>2020-11-05T16:56:05.571Z</time>
      </trkpt>
      <trkpt lat="52.141112" lon="6.018133">
        <ele>30.243362</ele>
        <time>2020-11-05T16:56:07.768Z</time>
      </trkpt>
      <trkpt lat="52.141448" lon="6.017854">
        <ele>30.157845</ele>
        <time>2020-11-05T16:56:14.392Z</time>
      </trkpt>
      <trkpt lat="52.141606" lon="6.017650">
        <ele>30.073230</ele>
        <time>2020-11-05T16:56:17.843Z</time>
      </trkpt>
      <trkpt lat="52.142069" lon="6.017290">
        <ele>29.857900</ele>
        <time>2020-11-05T16:56:26.576Z</time>
      </trkpt>
      <trkpt lat="52.142483" lon="6.016936">
        <ele>29.661657</ele>
        <time>2020-11-05T16:56:34.471Z</time>
      </trkpt>
      <trkpt lat="52.142729" lon="6.016835">
        <ele>29.555174</ele>
        <time>2020-11-05T16:56:38.687Z</time>
      </trkpt>
      <trkpt lat="52.143370" lon="6.016262">
        <ele>29.097443</ele>
        <time>2020-11-05T16:56:50.480Z</time>
      </trkpt>
      <trkpt lat="52.143497" lon="6.016132">
        <ele>28.994147</ele>
        <time>2020-11-05T16:56:52.848Z</time>
      </trkpt>
      <trkpt lat="52.143629" lon="6.015997">
        <ele>28.886811</ele>
        <time>2020-11-05T16:56:55.285Z</time>
      </trkpt>
      <trkpt lat="52.148241" lon="6.012231">
        <ele>26.175835</ele>
        <time>2020-11-05T16:58:20.543Z</time>
      </trkpt>
      <trkpt lat="52.148741" lon="6.011854">
        <ele>26.405068</ele>
        <time>2020-11-05T16:58:31.479Z</time>
      </trkpt>
      <trkpt lat="52.148993" lon="6.011818">
        <ele>26.510325</ele>
        <time>2020-11-05T16:58:36.839Z</time>
      </trkpt>
      <trkpt lat="52.148962" lon="6.011666">
        <ele>26.551220</ele>
        <time>2020-11-05T16:58:39.212Z</time>
      </trkpt>
      <trkpt lat="52.148539" lon="6.008903">
        <ele>28.586118</ele>
        <time>2020-11-05T16:59:24.583Z</time>
      </trkpt>
      <trkpt lat="52.148045" lon="6.005711">
        <ele>29.823946</ele>
        <time>2020-11-05T17:00:09.285Z</time>
      </trkpt>
      <trkpt lat="52.147989" lon="6.005393">
        <ele>29.822068</ele>
        <time>2020-11-05T17:00:13.188Z</time>
      </trkpt>
      <trkpt lat="52.147949" lon="6.005239">
        <ele>29.774740</ele>
        <time>2020-11-05T17:00:14.793Z</time>
      </trkpt>
      <trkpt lat="52.147843" lon="6.005029">
        <ele>29.697783</ele>
        <time>2020-11-05T17:00:17.758Z</time>
      </trkpt>
      <trkpt lat="52.147830" lon="6.004868">
        <ele>29.651824</ele>
        <time>2020-11-05T17:00:19.503Z</time>
      </trkpt>
      <trkpt lat="52.147858" lon="6.004727">
        <ele>29.609882</ele>
        <time>2020-11-05T17:00:20.947Z</time>
      </trkpt>
      <trkpt lat="52.147940" lon="6.004593">
        <ele>29.556322</ele>
        <time>2020-11-05T17:00:22.990Z</time>
      </trkpt>
      <trkpt lat="52.148404" lon="6.003941">
        <ele>29.273749</ele>
        <time>2020-11-05T17:00:33.023Z</time>
      </trkpt>
      <trkpt lat="52.148550" lon="6.003907">
        <ele>29.205727</ele>
        <time>2020-11-05T17:00:35.478Z</time>
      </trkpt>
      <trkpt lat="52.148671" lon="6.004040">
        <ele>29.138413</ele>
        <time>2020-11-05T17:00:37.807Z</time>
      </trkpt>
      <trkpt lat="52.149012" lon="6.004598">
        <ele>29.014837</ele>
        <time>2020-11-05T17:00:45.730Z</time>
      </trkpt>
      <trkpt lat="52.149211" lon="6.004915">
        <ele>28.987771</ele>
        <time>2020-11-05T17:00:50.465Z</time>
      </trkpt>
      <trkpt lat="52.149987" lon="6.006160">
        <ele>28.881859</ele>
        <time>2020-11-05T17:01:11.167Z</time>
      </trkpt>
      <trkpt lat="52.150069" lon="6.006218">
        <ele>28.873165</ele>
        <time>2020-11-05T17:01:12.845Z</time>
      </trkpt>
      <trkpt lat="52.150138" lon="6.006216">
        <ele>28.866453</ele>
        <time>2020-11-05T17:01:14.085Z</time>
      </trkpt>
      <trkpt lat="52.150353" lon="6.006055">
        <ele>28.621103</ele>
        <time>2020-11-05T17:01:18.038Z</time>
      </trkpt>
      <trkpt lat="52.150281" lon="6.005161">
        <ele>28.046972</ele>
        <time>2020-11-05T17:01:28.520Z</time>
      </trkpt>
      <trkpt lat="52.150271" lon="6.004211">
        <ele>27.441977</ele>
        <time>2020-11-05T17:01:38.445Z</time>
      </trkpt>
      <trkpt lat="52.150251" lon="6.003952">
        <ele>27.275759</ele>
        <time>2020-11-05T17:01:41.233Z</time>
      </trkpt>
      <trkpt lat="52.150213" lon="6.003486">
        <ele>26.944658</ele>
        <time>2020-11-05T17:01:46.019Z</time>
      </trkpt>
      <trkpt lat="52.150231" lon="6.003391">
        <ele>26.795761</ele>
        <time>2020-11-05T17:01:47.153Z</time>
      </trkpt>
      <trkpt lat="52.150332" lon="6.003312">
        <ele>26.522335</ele>
        <time>2020-11-05T17:01:49.063Z</time>
      </trkpt>
      <trkpt lat="52.150558" lon="6.003386">
        <ele>25.959727</ele>
        <time>2020-11-05T17:01:52.793Z</time>
      </trkpt>
      <trkpt lat="52.150692" lon="6.003346">
        <ele>25.627240</ele>
        <time>2020-11-05T17:01:55.040Z</time>
      </trkpt>
      <trkpt lat="52.150852" lon="6.003220">
        <ele>25.193538</ele>
        <time>2020-11-05T17:01:57.788Z</time>
      </trkpt>
      <trkpt lat="52.151408" lon="6.003114">
        <ele>23.827285</ele>
        <time>2020-11-05T17:02:06.629Z</time>
      </trkpt>
      <trkpt lat="52.151494" lon="6.003035">
        <ele>23.586345</ele>
        <time>2020-11-05T17:02:08.116Z</time>
      </trkpt>
      <trkpt lat="52.151959" lon="6.000890">
        <ele>20.784334</ele>
        <time>2020-11-05T17:02:30.632Z</time>
      </trkpt>
      <trkpt lat="52.152369" lon="6.000964">
        <ele>20.028057</ele>
        <time>2020-11-05T17:02:37.212Z</time>
      </trkpt>
      <trkpt lat="52.152795" lon="6.001199">
        <ele>19.310344</ele>
        <time>2020-11-05T17:02:44.573Z</time>
      </trkpt>
      <trkpt lat="52.152803" lon="6.001096">
        <ele>19.308039</ele>
        <time>2020-11-05T17:02:46.612Z</time>
      </trkpt>
      <trkpt lat="52.152783" lon="6.000892">
        <ele>19.303452</ele>
        <time>2020-11-05T17:02:50.040Z</time>
      </trkpt>
      <trkpt lat="52.152497" lon="5.997889">
        <ele>19.551184</ele>
        <time>2020-11-05T17:03:46.627Z</time>
      </trkpt>
      <trkpt lat="52.152073" lon="5.993318">
        <ele>22.433975</ele>
        <time>2020-11-05T17:05:24.152Z</time>
      </trkpt>
      <trkpt lat="52.152052" lon="5.992981">
        <ele>22.657612</ele>
        <time>2020-11-05T17:05:31.143Z</time>
      </trkpt>
      <trkpt lat="52.152062" lon="5.992646">
        <ele>22.879045</ele>
        <time>2020-11-05T17:05:37.993Z</time>
      </trkpt>
      <trkpt lat="52.153142" lon="5.987771">
        <ele>24.964088</ele>
        <time>2020-11-05T17:07:19.361Z</time>
      </trkpt>
      <trkpt lat="52.153886" lon="5.982345">
        <ele>29.058436</ele>
        <time>2020-11-05T17:09:17.389Z</time>
      </trkpt>
      <trkpt lat="52.153953" lon="5.981855">
        <ele>29.479589</ele>
        <time>2020-11-05T17:09:28.839Z</time>
      </trkpt>
      <trkpt lat="52.154426" lon="5.978242">
        <ele>32.925511</ele>
        <time>2020-11-05T17:10:21.989Z</time>
      </trkpt>
      <trkpt lat="52.154658" lon="5.976048">
        <ele>35.935116</ele>
        <time>2020-11-05T17:10:57.730Z</time>
      </trkpt>
      <trkpt lat="52.154713" lon="5.975498">
        <ele>36.638730</ele>
        <time>2020-11-05T17:11:07.915Z</time>
      </trkpt>
      <trkpt lat="52.154797" lon="5.974760">
        <ele>37.201157</ele>
        <time>2020-11-05T17:11:22.353Z</time>
      </trkpt>
      <trkpt lat="52.154987" lon="5.973575">
        <ele>38.118907</ele>
        <time>2020-11-05T17:11:41.600Z</time>
      </trkpt>
      <trkpt lat="52.155140" lon="5.972410">
        <ele>38.172928</ele>
        <time>2020-11-05T17:11:54.300Z</time>
      </trkpt>
      <trkpt lat="52.156864" lon="5.973274">
        <ele>32.845015</ele>
        <time>2020-11-05T17:12:18.287Z</time>
      </trkpt>
      <trkpt lat="52.156996" lon="5.973394">
        <ele>32.554521</ele>
        <time>2020-11-05T17:12:20.321Z</time>
      </trkpt>
      <trkpt lat="52.157081" lon="5.973544">
        <ele>32.313745</ele>
        <time>2020-11-05T17:12:21.988Z</time>
      </trkpt>
      <trkpt lat="52.157303" lon="5.974208">
        <ele>31.422080</ele>
        <time>2020-11-05T17:12:28.543Z</time>
      </trkpt>
      <trkpt lat="52.157368" lon="5.974338">
        <ele>31.224332</ele>
        <time>2020-11-05T17:12:30.117Z</time>
      </trkpt>
      <trkpt lat="52.157475" lon="5.974460">
        <ele>30.973359</ele>
        <time>2020-11-05T17:12:32.063Z</time>
      </trkpt>
      <trkpt lat="52.157720" lon="5.973389">
        <ele>29.796746</ele>
        <time>2020-11-05T17:12:52.340Z</time>
      </trkpt>
      <trkpt lat="52.158009" lon="5.972119">
        <ele>30.064198</ele>
        <time>2020-11-05T17:13:18.285Z</time>
      </trkpt>
      <trkpt lat="52.158334" lon="5.970995">
        <ele>30.309541</ele>
        <time>2020-11-05T17:13:42.234Z</time>
      </trkpt>
      <trkpt lat="52.158383" lon="5.971002">
        <ele>30.325372</ele>
        <time>2020-11-05T17:13:43.227Z</time>
      </trkpt>
      <trkpt lat="52.158579" lon="5.970489">
        <ele>30.452595</ele>
        <time>2020-11-05T17:13:51.215Z</time>
      </trkpt>
      <trkpt lat="52.158855" lon="5.970028">
        <ele>30.590505</ele>
        <time>2020-11-05T17:13:59.636Z</time>
      </trkpt>
      <trkpt lat="52.158951" lon="5.968820">
        <ele>30.851294</ele>
        <time>2020-11-05T17:14:13.673Z</time>
      </trkpt>
      <trkpt lat="52.158977" lon="5.968388">
        <ele>30.944227</ele>
        <time>2020-11-05T17:14:18.383Z</time>
      </trkpt>
      <trkpt lat="52.159022" lon="5.967664">
        <ele>30.900850</ele>
        <time>2020-11-05T17:14:28.894Z</time>
      </trkpt>
      <trkpt lat="52.159023" lon="5.967636">
        <ele>30.896990</ele>
        <time>2020-11-05T17:14:29.291Z</time>
      </trkpt>
      <trkpt lat="52.159084" lon="5.966624">
        <ele>30.757050</ele>
        <time>2020-11-05T17:14:44.056Z</time>
      </trkpt>
      <trkpt lat="52.159088" lon="5.966236">
        <ele>30.703647</ele>
        <time>2020-11-05T17:14:49.368Z</time>
      </trkpt>
      <trkpt lat="52.159092" lon="5.966061">
        <ele>30.679548</ele>
        <time>2020-11-05T17:14:51.874Z</time>
      </trkpt>
      <trkpt lat="52.159084" lon="5.965496">
        <ele>30.601773</ele>
        <time>2020-11-05T17:14:59.490Z</time>
      </trkpt>
      <trkpt lat="52.159115" lon="5.964891">
        <ele>30.573680</ele>
        <time>2020-11-05T17:15:07.578Z</time>
      </trkpt>
      <trkpt lat="52.159134" lon="5.964656">
        <ele>30.572754</ele>
        <time>2020-11-05T17:15:10.753Z</time>
      </trkpt>
      <trkpt lat="52.159192" lon="5.964015">
        <ele>30.570221</ele>
        <time>2020-11-05T17:15:19.626Z</time>
      </trkpt>
      <trkpt lat="52.159245" lon="5.963405">
        <ele>30.567814</ele>
        <time>2020-11-05T17:15:28.739Z</time>
      </trkpt>
      <trkpt lat="52.159255" lon="5.963288">
        <ele>30.567352</ele>
        <time>2020-11-05T17:15:30.582Z</time>
      </trkpt>
      <trkpt lat="52.159261" lon="5.963215">
        <ele>30.567064</ele>
        <time>2020-11-05T17:15:31.724Z</time>
      </trkpt>
      <trkpt lat="52.159276" lon="5.962739">
        <ele>30.565201</ele>
        <time>2020-11-05T17:15:39.164Z</time>
      </trkpt>
      <trkpt lat="52.159275" lon="5.962551">
        <ele>30.564467</ele>
        <time>2020-11-05T17:15:42.166Z</time>
      </trkpt>
      <trkpt lat="52.159290" lon="5.961609">
        <ele>31.143410</ele>
        <time>2020-11-05T17:15:57.613Z</time>
      </trkpt>
      <trkpt lat="52.159347" lon="5.961183">
        <ele>31.466301</ele>
        <time>2020-11-05T17:16:05.130Z</time>
      </trkpt>
      <trkpt lat="52.159550" lon="5.960066">
        <ele>32.329029</ele>
        <time>2020-11-05T17:16:25.384Z</time>
      </trkpt>
      <trkpt lat="52.159633" lon="5.959918">
        <ele>32.477525</ele>
        <time>2020-11-05T17:16:28.236Z</time>
      </trkpt>
      <trkpt lat="52.159654" lon="5.959930">
        <ele>32.504388</ele>
        <time>2020-11-05T17:16:28.754Z</time>
      </trkpt>
      <trkpt lat="52.159676" lon="5.959837">
        <ele>32.578201</ele>
        <time>2020-11-05T17:16:30.249Z</time>
      </trkpt>
      <trkpt lat="52.159698" lon="5.959757">
        <ele>32.643125</ele>
        <time>2020-11-05T17:16:31.577Z</time>
      </trkpt>
      <trkpt lat="52.159583" lon="5.959674">
        <ele>32.847320</ele>
        <time>2020-11-05T17:16:34.781Z</time>
      </trkpt>
      <trkpt lat="52.159459" lon="5.959591">
        <ele>33.150705</ele>
        <time>2020-11-05T17:16:38.044Z</time>
      </trkpt>
      <trkpt lat="52.159026" lon="5.959333">
        <ele>34.194122</ele>
        <time>2020-11-05T17:16:50.019Z</time>
      </trkpt>
      <trkpt lat="52.158523" lon="5.959319">
        <ele>35.332716</ele>
        <time>2020-11-05T17:17:04.360Z</time>
      </trkpt>
      <trkpt lat="52.157844" lon="5.959292">
        <ele>36.832890</ele>
        <time>2020-11-05T17:17:23.460Z</time>
      </trkpt>
      <trkpt lat="52.157516" lon="5.959142">
        <ele>37.157785</ele>
        <time>2020-11-05T17:17:32.511Z</time>
      </trkpt>
      <trkpt lat="52.157514" lon="5.958941">
        <ele>37.275404</ele>
        <time>2020-11-05T17:17:37.629Z</time>
      </trkpt>
      <trkpt lat="52.157500" lon="5.957604">
        <ele>38.057788</ele>
        <time>2020-11-05T17:18:06.600Z</time>
      </trkpt>
      <trkpt lat="52.157589" lon="5.952516">
        <ele>35.573654</ele>
        <time>2020-11-05T17:19:31.818Z</time>
      </trkpt>
      <trkpt lat="52.157591" lon="5.951681">
        <ele>34.967121</ele>
        <time>2020-11-05T17:19:45.699Z</time>
      </trkpt>
      <trkpt lat="52.157638" lon="5.951474">
        <ele>34.806792</ele>
        <time>2020-11-05T17:19:49.391Z</time>
      </trkpt>
      <trkpt lat="52.157652" lon="5.951413">
        <ele>34.759484</ele>
        <time>2020-11-05T17:19:50.529Z</time>
      </trkpt>
      <trkpt lat="52.157715" lon="5.951298">
        <ele>34.647493</ele>
        <time>2020-11-05T17:19:53.067Z</time>
      </trkpt>
      <trkpt lat="52.157813" lon="5.951179">
        <ele>34.502802</ele>
        <time>2020-11-05T17:19:56.281Z</time>
      </trkpt>
      <trkpt lat="52.157903" lon="5.951122">
        <ele>34.386111</ele>
        <time>2020-11-05T17:19:58.980Z</time>
      </trkpt>
      <trkpt lat="52.158703" lon="5.950889">
        <ele>33.376248</ele>
        <time>2020-11-05T17:20:21.663Z</time>
      </trkpt>
      <trkpt lat="52.158751" lon="5.950768">
        <ele>33.266400</ele>
        <time>2020-11-05T17:20:23.897Z</time>
      </trkpt>
      <trkpt lat="52.158816" lon="5.950839">
        <ele>33.169170</ele>
        <time>2020-11-05T17:20:26.006Z</time>
      </trkpt>
      <trkpt lat="52.158905" lon="5.950835">
        <ele>33.058532</ele>
        <time>2020-11-05T17:20:28.515Z</time>
      </trkpt>
      <trkpt lat="52.160016" lon="5.950453">
        <ele>31.851077</ele>
        <time>2020-11-05T17:20:58.981Z</time>
      </trkpt>
      <trkpt lat="52.160165" lon="5.950435">
        <ele>31.733656</ele>
        <time>2020-11-05T17:21:02.778Z</time>
      </trkpt>
      <trkpt lat="52.160293" lon="5.950480">
        <ele>31.630747</ele>
        <time>2020-11-05T17:21:06.387Z</time>
      </trkpt>
      <trkpt lat="52.160494" lon="5.950658">
        <ele>31.450974</ele>
        <time>2020-11-05T17:21:12.823Z</time>
      </trkpt>
      <trkpt lat="52.161386" lon="5.951575">
        <ele>30.949928</ele>
        <time>2020-11-05T17:21:43.432Z</time>
      </trkpt>
      <trkpt lat="52.161780" lon="5.951978">
        <ele>31.308312</ele>
        <time>2020-11-05T17:21:58.391Z</time>
      </trkpt>
      <trkpt lat="52.161999" lon="5.952324">
        <ele>31.543294</ele>
        <time>2020-11-05T17:22:08.530Z</time>
      </trkpt>
      <trkpt lat="52.162264" lon="5.951828">
        <ele>31.854176</ele>
        <time>2020-11-05T17:22:17.582Z</time>
      </trkpt>
      <trkpt lat="52.162365" lon="5.951670">
        <ele>31.962031</ele>
        <time>2020-11-05T17:22:20.734Z</time>
      </trkpt>
      <trkpt lat="52.162602" lon="5.951347">
        <ele>32.219496</ele>
        <time>2020-11-05T17:22:27.702Z</time>
      </trkpt>
      <trkpt lat="52.162954" lon="5.951017">
        <ele>32.761794</ele>
        <time>2020-11-05T17:22:36.978Z</time>
      </trkpt>
      <trkpt lat="52.162810" lon="5.950708">
        <ele>33.079705</ele>
        <time>2020-11-05T17:22:42.278Z</time>
      </trkpt>
      <trkpt lat="52.162399" lon="5.950133">
        <ele>33.803026</ele>
        <time>2020-11-05T17:22:54.593Z</time>
      </trkpt>
      <trkpt lat="52.162312" lon="5.949913">
        <ele>34.017466</ele>
        <time>2020-11-05T17:22:58.342Z</time>
      </trkpt>
      <trkpt lat="52.162228" lon="5.949349">
        <ele>34.492946</ele>
        <time>2020-11-05T17:23:06.741Z</time>
      </trkpt>
      <trkpt lat="52.162018" lon="5.947867">
        <ele>36.217138</ele>
        <time>2020-11-05T17:23:29.690Z</time>
      </trkpt>
      <trkpt lat="52.162061" lon="5.947823">
        <ele>36.312805</ele>
        <time>2020-11-05T17:23:30.997Z</time>
      </trkpt>
      <trkpt lat="52.162083" lon="5.947742">
        <ele>36.415202</ele>
        <time>2020-11-05T17:23:32.347Z</time>
      </trkpt>
      <trkpt lat="52.162077" lon="5.947550">
        <ele>36.637426</ele>
        <time>2020-11-05T17:23:35.603Z</time>
      </trkpt>
      <trkpt lat="52.161809" lon="5.945479">
        <ele>39.265126</ele>
        <time>2020-11-05T17:24:09.593Z</time>
      </trkpt>
      <trkpt lat="52.161639" lon="5.944263">
        <ele>40.940071</ele>
        <time>2020-11-05T17:24:29.941Z</time>
      </trkpt>
      <trkpt lat="52.161674" lon="5.944220">
        <ele>41.036020</ele>
        <time>2020-11-05T17:24:31.107Z</time>
      </trkpt>
      <trkpt lat="52.162007" lon="5.944150">
        <ele>41.771090</ele>
        <time>2020-11-05T17:24:40.037Z</time>
      </trkpt>
      <trkpt lat="52.162044" lon="5.944107">
        <ele>41.870571</ele>
        <time>2020-11-05T17:24:41.233Z</time>
      </trkpt>
      <trkpt lat="52.162099" lon="5.944111">
        <ele>42.009869</ele>
        <time>2020-11-05T17:24:42.703Z</time>
      </trkpt>
      <trkpt lat="52.162097" lon="5.944075">
        <ele>42.068718</ele>
        <time>2020-11-05T17:24:43.325Z</time>
      </trkpt>
      <trkpt lat="52.162038" lon="5.943714">
        <ele>42.676948</ele>
        <time>2020-11-05T17:24:49.332Z</time>
      </trkpt>
      <trkpt lat="52.161793" lon="5.942421">
        <ele>44.880166</ele>
        <time>2020-11-05T17:25:13.063Z</time>
      </trkpt>
      <trkpt lat="52.161659" lon="5.941585">
        <ele>46.286925</ele>
        <time>2020-11-05T17:25:29.225Z</time>
      </trkpt>
      <trkpt lat="52.161364" lon="5.940453">
        <ele>47.231570</ele>
        <time>2020-11-05T17:25:50.819Z</time>
      </trkpt>
      <trkpt lat="52.161251" lon="5.939973">
        <ele>47.519712</ele>
        <time>2020-11-05T17:25:58.044Z</time>
      </trkpt>
      <trkpt lat="52.161956" lon="5.939681">
        <ele>48.184269</ele>
        <time>2020-11-05T17:26:19.536Z</time>
      </trkpt>
      <trkpt lat="52.162294" lon="5.941137">
        <ele>47.196538</ele>
        <time>2020-11-05T17:26:45.077Z</time>
      </trkpt>
      <trkpt lat="52.162602" lon="5.942461">
        <ele>45.987566</ele>
        <time>2020-11-05T17:27:07.555Z</time>
      </trkpt>
      <trkpt lat="52.162702" lon="5.942483">
        <ele>45.847121</ele>
        <time>2020-11-05T17:27:10.857Z</time>
      </trkpt>
      <trkpt lat="52.163456" lon="5.942348">
        <ele>46.535614</ele>
        <time>2020-11-05T17:27:32.717Z</time>
      </trkpt>
      <trkpt lat="52.163568" lon="5.942249">
        <ele>46.660108</ele>
        <time>2020-11-05T17:27:36.780Z</time>
      </trkpt>
      <trkpt lat="52.163608" lon="5.942143">
        <ele>46.734704</ele>
        <time>2020-11-05T17:27:39.071Z</time>
      </trkpt>
      <trkpt lat="52.163618" lon="5.941990">
        <ele>46.826931</ele>
        <time>2020-11-05T17:27:42.912Z</time>
      </trkpt>
      <trkpt lat="52.163349" lon="5.940786">
        <ele>47.616289</ele>
        <time>2020-11-05T17:28:13.954Z</time>
      </trkpt>
      <trkpt lat="52.163365" lon="5.940581">
        <ele>47.864166</ele>
        <time>2020-11-05T17:28:19.920Z</time>
      </trkpt>
      <trkpt lat="52.163791" lon="5.939270">
        <ele>49.643695</ele>
        <time>2020-11-05T17:28:54.696Z</time>
      </trkpt>
      <trkpt lat="52.163902" lon="5.938842">
        <ele>50.201068</ele>
        <time>2020-11-05T17:29:05.537Z</time>
      </trkpt>
      <trkpt lat="52.164158" lon="5.938624">
        <ele>50.765838</ele>
        <time>2020-11-05T17:29:16.615Z</time>
      </trkpt>
      <trkpt lat="52.164303" lon="5.938521">
        <ele>51.075122</ele>
        <time>2020-11-05T17:29:21.329Z</time>
      </trkpt>
      <trkpt lat="52.164920" lon="5.938085">
        <ele>50.435661</ele>
        <time>2020-11-05T17:29:42.606Z</time>
      </trkpt>
      <trkpt lat="52.165096" lon="5.938047">
        <ele>50.260601</ele>
        <time>2020-11-05T17:29:48.040Z</time>
      </trkpt>
      <trkpt lat="52.165147" lon="5.938083">
        <ele>50.205801</ele>
        <time>2020-11-05T17:29:49.800Z</time>
      </trkpt>
      <trkpt lat="52.165257" lon="5.938324">
        <ele>50.024109</ele>
        <time>2020-11-05T17:29:54.601Z</time>
      </trkpt>
      <trkpt lat="52.165276" lon="5.938436">
        <ele>49.953824</ele>
        <time>2020-11-05T17:29:56.602Z</time>
      </trkpt>
      <trkpt lat="52.165259" lon="5.938834">
        <ele>49.712519</ele>
        <time>2020-11-05T17:30:02.764Z</time>
      </trkpt>
      <trkpt lat="52.165285" lon="5.938949">
        <ele>49.638389</ele>
        <time>2020-11-05T17:30:04.575Z</time>
      </trkpt>
      <trkpt lat="52.165360" lon="5.938964">
        <ele>49.563881</ele>
        <time>2020-11-05T17:30:06.446Z</time>
      </trkpt>
      <trkpt lat="52.165908" lon="5.938745">
        <ele>48.266003</ele>
        <time>2020-11-05T17:30:20.444Z</time>
      </trkpt>
      <trkpt lat="52.166021" lon="5.938738">
        <ele>47.887561</ele>
        <time>2020-11-05T17:30:23.235Z</time>
      </trkpt>
      <trkpt lat="52.166140" lon="5.938835">
        <ele>47.442309</ele>
        <time>2020-11-05T17:30:26.550Z</time>
      </trkpt>
      <trkpt lat="52.166319" lon="5.939073">
        <ele>46.669303</ele>
        <time>2020-11-05T17:30:32.134Z</time>
      </trkpt>
      <trkpt lat="52.166735" lon="5.939314">
        <ele>45.191822</ele>
        <time>2020-11-05T17:30:42.649Z</time>
      </trkpt>
      <trkpt lat="52.166865" lon="5.939343">
        <ele>44.752707</ele>
        <time>2020-11-05T17:30:45.725Z</time>
      </trkpt>
      <trkpt lat="52.166926" lon="5.939323">
        <ele>44.544475</ele>
        <time>2020-11-05T17:30:47.206Z</time>
      </trkpt>
      <trkpt lat="52.167131" lon="5.939179">
        <ele>43.797448</ele>
        <time>2020-11-05T17:30:52.759Z</time>
      </trkpt>
      <trkpt lat="52.167539" lon="5.939184">
        <ele>42.964734</ele>
        <time>2020-11-05T17:31:02.817Z</time>
      </trkpt>
      <trkpt lat="52.167796" lon="5.939487">
        <ele>42.556367</ele>
        <time>2020-11-05T17:31:11.028Z</time>
      </trkpt>
      <trkpt lat="52.167871" lon="5.939576">
        <ele>42.436927</ele>
        <time>2020-11-05T17:31:13.258Z</time>
      </trkpt>
      <trkpt lat="52.167763" lon="5.938832">
        <ele>41.833126</ele>
        <time>2020-11-05T17:31:20.762Z</time>
      </trkpt>
      <trkpt lat="52.167794" lon="5.938655">
        <ele>41.687754</ele>
        <time>2020-11-05T17:31:22.756Z</time>
      </trkpt>
      <trkpt lat="52.168149" lon="5.937430">
        <ele>41.194387</ele>
        <time>2020-11-05T17:31:37.410Z</time>
      </trkpt>
      <trkpt lat="52.168195" lon="5.937279">
        <ele>41.272049</ele>
        <time>2020-11-05T17:31:39.774Z</time>
      </trkpt>
      <trkpt lat="52.168510" lon="5.936210">
        <ele>41.818338</ele>
        <time>2020-11-05T17:31:57.270Z</time>
      </trkpt>
      <trkpt lat="52.168791" lon="5.935242">
        <ele>42.311641</ele>
        <time>2020-11-05T17:32:10.851Z</time>
      </trkpt>
      <trkpt lat="52.169099" lon="5.934171">
        <ele>42.616546</ele>
        <time>2020-11-05T17:32:23.557Z</time>
      </trkpt>
      <trkpt lat="52.169753" lon="5.931919">
        <ele>43.736007</ele>
        <time>2020-11-05T17:32:53.552Z</time>
      </trkpt>
      <trkpt lat="52.170484" lon="5.929423">
        <ele>46.569909</ele>
        <time>2020-11-05T17:33:37.302Z</time>
      </trkpt>
      <trkpt lat="52.171223" lon="5.926894">
        <ele>49.914132</ele>
        <time>2020-11-05T17:34:22.720Z</time>
      </trkpt>
      <trkpt lat="52.171636" lon="5.925460">
        <ele>50.991461</ele>
        <time>2020-11-05T17:34:44.996Z</time>
      </trkpt>
      <trkpt lat="52.172036" lon="5.924028">
        <ele>51.493506</ele>
        <time>2020-11-05T17:35:03.794Z</time>
      </trkpt>
      <trkpt lat="52.172717" lon="5.921094">
        <ele>50.623565</ele>
        <time>2020-11-05T17:35:35.399Z</time>
      </trkpt>
      <trkpt lat="52.172706" lon="5.920866">
        <ele>50.530805</ele>
        <time>2020-11-05T17:35:37.848Z</time>
      </trkpt>
      <trkpt lat="52.172073" lon="5.918081">
        <ele>49.144694</ele>
        <time>2020-11-05T17:36:07.725Z</time>
      </trkpt>
      <trkpt lat="52.171788" lon="5.916815">
        <ele>48.373936</ele>
        <time>2020-11-05T17:36:20.507Z</time>
      </trkpt>
      <trkpt lat="52.171535" lon="5.915693">
        <ele>48.423550</ele>
        <time>2020-11-05T17:36:32.103Z</time>
      </trkpt>
      <trkpt lat="52.170846" lon="5.912659">
        <ele>50.716282</ele>
        <time>2020-11-05T17:37:18.860Z</time>
      </trkpt>
      <trkpt lat="52.170825" lon="5.912547">
        <ele>50.861554</ele>
        <time>2020-11-05T17:37:21.211Z</time>
      </trkpt>
      <trkpt lat="52.170250" lon="5.910080">
        <ele>53.445636</ele>
        <time>2020-11-05T17:38:05.080Z</time>
      </trkpt>
      <trkpt lat="52.170266" lon="5.910044">
        <ele>53.463893</ele>
        <time>2020-11-05T17:38:05.617Z</time>
      </trkpt>
      <trkpt lat="52.170306" lon="5.909990">
        <ele>53.498664</ele>
        <time>2020-11-05T17:38:06.721Z</time>
      </trkpt>
      <trkpt lat="52.170481" lon="5.909964">
        <ele>53.616323</ele>
        <time>2020-11-05T17:38:10.845Z</time>
      </trkpt>
      <trkpt lat="52.170631" lon="5.909900">
        <ele>53.720139</ele>
        <time>2020-11-05T17:38:13.780Z</time>
      </trkpt>
      <trkpt lat="52.170606" lon="5.909530">
        <ele>53.872998</ele>
        <time>2020-11-05T17:38:17.904Z</time>
      </trkpt>
      <trkpt lat="52.170632" lon="5.909261">
        <ele>53.984826</ele>
        <time>2020-11-05T17:38:21.010Z</time>
      </trkpt>
      <trkpt lat="52.170780" lon="5.908765">
        <ele>54.211335</ele>
        <time>2020-11-05T17:38:26.896Z</time>
      </trkpt>
      <trkpt lat="52.170931" lon="5.908339">
        <ele>54.367677</ele>
        <time>2020-11-05T17:38:31.960Z</time>
      </trkpt>
      <trkpt lat="52.171120" lon="5.907828">
        <ele>54.505742</ele>
        <time>2020-11-05T17:38:38.062Z</time>
      </trkpt>
      <trkpt lat="52.170962" lon="5.907675">
        <ele>54.575066</ele>
        <time>2020-11-05T17:38:41.247Z</time>
      </trkpt>
      <trkpt lat="52.170958" lon="5.907672">
        <ele>54.576727</ele>
        <time>2020-11-05T17:38:41.317Z</time>
      </trkpt>
      <trkpt lat="52.170761" lon="5.907492">
        <ele>54.661919</ele>
        <time>2020-11-05T17:38:45.222Z</time>
      </trkpt>
      <trkpt lat="52.169703" lon="5.906712">
        <ele>55.984363</ele>
        <time>2020-11-05T17:39:09.655Z</time>
      </trkpt>
      <trkpt lat="52.169345" lon="5.906402">
        <ele>57.337002</ele>
        <time>2020-11-05T17:39:22.360Z</time>
      </trkpt>
      <trkpt lat="52.168612" lon="5.905656">
        <ele>60.220370</ele>
        <time>2020-11-05T17:39:51.473Z</time>
      </trkpt>
      <trkpt lat="52.168908" lon="5.904604">
        <ele>63.561468</ele>
        <time>2020-11-05T17:40:17.947Z</time>
      </trkpt>
      <trkpt lat="52.168910" lon="5.904577">
        <ele>63.650951</ele>
        <time>2020-11-05T17:40:18.579Z</time>
      </trkpt>
      <trkpt lat="52.168933" lon="5.904284">
        <ele>64.622866</ele>
        <time>2020-11-05T17:40:25.796Z</time>
      </trkpt>
      <trkpt lat="52.168909" lon="5.904074">
        <ele>65.325718</ele>
        <time>2020-11-05T17:40:31.547Z</time>
      </trkpt>
      <trkpt lat="52.168692" lon="5.903442">
        <ele>67.708848</ele>
        <time>2020-11-05T17:40:50.912Z</time>
      </trkpt>
      <trkpt lat="52.168604" lon="5.902447">
        <ele>70.885739</ele>
        <time>2020-11-05T17:41:17.258Z</time>
      </trkpt>
      <trkpt lat="52.168526" lon="5.902026">
        <ele>71.832632</ele>
        <time>2020-11-05T17:41:26.742Z</time>
      </trkpt>
      <trkpt lat="52.168475" lon="5.901832">
        <ele>72.287078</ele>
        <time>2020-11-05T17:41:31.392Z</time>
      </trkpt>
      <trkpt lat="52.168112" lon="5.901032">
        <ele>74.429657</ele>
        <time>2020-11-05T17:41:51.276Z</time>
      </trkpt>
      <trkpt lat="52.167132" lon="5.899348">
        <ele>78.791481</ele>
        <time>2020-11-05T17:42:31.090Z</time>
      </trkpt>
      <trkpt lat="52.166882" lon="5.898804">
        <ele>79.878909</ele>
        <time>2020-11-05T17:42:42.073Z</time>
      </trkpt>
      <trkpt lat="52.166799" lon="5.898480">
        <ele>80.440616</ele>
        <time>2020-11-05T17:42:47.855Z</time>
      </trkpt>
      <trkpt lat="52.166677" lon="5.897924">
        <ele>81.385277</ele>
        <time>2020-11-05T17:43:02.853Z</time>
      </trkpt>
      <trkpt lat="52.166542" lon="5.896997">
        <ele>83.728696</ele>
        <time>2020-11-05T17:43:29.479Z</time>
      </trkpt>
      <trkpt lat="52.166359" lon="5.896328">
        <ele>85.658631</ele>
        <time>2020-11-05T17:43:51.406Z</time>
      </trkpt>
      <trkpt lat="52.165948" lon="5.895232">
        <ele>89.043167</ele>
        <time>2020-11-05T17:44:30.995Z</time>
      </trkpt>
      <trkpt lat="52.165867" lon="5.895068">
        <ele>89.480015</ele>
        <time>2020-11-05T17:44:37.004Z</time>
      </trkpt>
      <trkpt lat="52.165131" lon="5.893884">
        <ele>91.633200</ele>
        <time>2020-11-05T17:45:20.075Z</time>
      </trkpt>
      <trkpt lat="52.165092" lon="5.893802">
        <ele>91.765739</ele>
        <time>2020-11-05T17:45:22.367Z</time>
      </trkpt>
      <trkpt lat="52.164893" lon="5.893321">
        <ele>92.506825</ele>
        <time>2020-11-05T17:45:34.058Z</time>
      </trkpt>
      <trkpt lat="52.164801" lon="5.893033">
        <ele>92.921595</ele>
        <time>2020-11-05T17:45:39.785Z</time>
      </trkpt>
      <trkpt lat="52.164599" lon="5.892203">
        <ele>92.717750</ele>
        <time>2020-11-05T17:45:55.200Z</time>
      </trkpt>
      <trkpt lat="52.164290" lon="5.891255">
        <ele>92.143509</ele>
        <time>2020-11-05T17:46:12.652Z</time>
      </trkpt>
      <trkpt lat="52.164315" lon="5.890947">
        <ele>91.977321</ele>
        <time>2020-11-05T17:46:17.818Z</time>
      </trkpt>
      <trkpt lat="52.164343" lon="5.890863">
        <ele>91.926182</ele>
        <time>2020-11-05T17:46:19.474Z</time>
      </trkpt>
      <trkpt lat="52.164437" lon="5.890746">
        <ele>91.823050</ele>
        <time>2020-11-05T17:46:22.833Z</time>
      </trkpt>
      <trkpt lat="52.164564" lon="5.890674">
        <ele>91.705796</ele>
        <time>2020-11-05T17:46:26.578Z</time>
      </trkpt>
      <trkpt lat="52.164747" lon="5.890633">
        <ele>91.547229</ele>
        <time>2020-11-05T17:46:31.852Z</time>
      </trkpt>
      <trkpt lat="52.165245" lon="5.890114">
        <ele>91.977866</ele>
        <time>2020-11-05T17:46:49.018Z</time>
      </trkpt>
      <trkpt lat="52.165318" lon="5.890082">
        <ele>92.032941</ele>
        <time>2020-11-05T17:46:51.471Z</time>
      </trkpt>
      <trkpt lat="52.165648" lon="5.890678">
        <ele>92.391762</ele>
        <time>2020-11-05T17:47:08.186Z</time>
      </trkpt>
      <trkpt lat="52.166114" lon="5.891522">
        <ele>92.895656</ele>
        <time>2020-11-05T17:47:33.472Z</time>
      </trkpt>
      <trkpt lat="52.166543" lon="5.892189">
        <ele>93.291240</ele>
        <time>2020-11-05T17:47:54.866Z</time>
      </trkpt>
      <trkpt lat="52.167176" lon="5.892542">
        <ele>93.737673</ele>
        <time>2020-11-05T17:48:16.369Z</time>
      </trkpt>
      <trkpt lat="52.167363" lon="5.892529">
        <ele>93.862573</ele>
        <time>2020-11-05T17:48:21.758Z</time>
      </trkpt>
      <trkpt lat="52.167547" lon="5.892459">
        <ele>93.988656</ele>
        <time>2020-11-05T17:48:27.316Z</time>
      </trkpt>
      <trkpt lat="52.167701" lon="5.892474">
        <ele>93.997182</ele>
        <time>2020-11-05T17:48:31.723Z</time>
      </trkpt>
      <trkpt lat="52.167849" lon="5.892609">
        <ele>93.803354</ele>
        <time>2020-11-05T17:48:36.610Z</time>
      </trkpt>
      <trkpt lat="52.168061" lon="5.893017">
        <ele>93.428502</ele>
        <time>2020-11-05T17:48:45.742Z</time>
      </trkpt>
      <trkpt lat="52.168207" lon="5.892587">
        <ele>93.083962</ele>
        <time>2020-11-05T17:48:53.975Z</time>
      </trkpt>
      <trkpt lat="52.168241" lon="5.892217">
        <ele>92.821693</ele>
        <time>2020-11-05T17:49:00.106Z</time>
      </trkpt>
      <trkpt lat="52.168233" lon="5.891974">
        <ele>92.651102</ele>
        <time>2020-11-05T17:49:04.189Z</time>
      </trkpt>
      <trkpt lat="52.168200" lon="5.891779">
        <ele>92.509297</ele>
        <time>2020-11-05T17:49:07.462Z</time>
      </trkpt>
      <trkpt lat="52.168077" lon="5.891268">
        <ele>92.124482</ele>
        <time>2020-11-05T17:49:16.397Z</time>
      </trkpt>
      <trkpt lat="52.168064" lon="5.891225">
        <ele>92.090876</ele>
        <time>2020-11-05T17:49:17.142Z</time>
      </trkpt>
      <trkpt lat="52.167765" lon="5.890263">
        <ele>91.255143</ele>
        <time>2020-11-05T17:49:34.673Z</time>
      </trkpt>
      <trkpt lat="52.167161" lon="5.887522">
        <ele>89.096196</ele>
        <time>2020-11-05T17:50:23.686Z</time>
      </trkpt>
      <trkpt lat="52.167051" lon="5.886929">
        <ele>88.694552</ele>
        <time>2020-11-05T17:50:34.058Z</time>
      </trkpt>
      <trkpt lat="52.166693" lon="5.885614">
        <ele>87.772200</ele>
        <time>2020-11-05T17:50:58.483Z</time>
      </trkpt>
      <trkpt lat="52.166837" lon="5.885406">
        <ele>87.626784</ele>
        <time>2020-11-05T17:51:03.687Z</time>
      </trkpt>
      <trkpt lat="52.167166" lon="5.885050">
        <ele>87.328322</ele>
        <time>2020-11-05T17:51:14.659Z</time>
      </trkpt>
      <trkpt lat="52.167544" lon="5.884659">
        <ele>86.989957</ele>
        <time>2020-11-05T17:51:27.264Z</time>
      </trkpt>
      <trkpt lat="52.167654" lon="5.884545">
        <ele>86.891437</ele>
        <time>2020-11-05T17:51:30.888Z</time>
      </trkpt>
      <trkpt lat="52.167983" lon="5.884255">
        <ele>86.608744</ele>
        <time>2020-11-05T17:51:41.357Z</time>
      </trkpt>
      <trkpt lat="52.168318" lon="5.884006">
        <ele>86.379082</ele>
        <time>2020-11-05T17:51:51.812Z</time>
      </trkpt>
      <trkpt lat="52.169110" lon="5.883530">
        <ele>86.027532</ele>
        <time>2020-11-05T17:52:16.177Z</time>
      </trkpt>
      <trkpt lat="52.170024" lon="5.883079">
        <ele>85.562770</ele>
        <time>2020-11-05T17:52:43.786Z</time>
      </trkpt>
      <trkpt lat="52.170726" lon="5.882636">
        <ele>84.897951</ele>
        <time>2020-11-05T17:53:05.090Z</time>
      </trkpt>
      <trkpt lat="52.170972" lon="5.882437">
        <ele>84.655416</ele>
        <time>2020-11-05T17:53:12.676Z</time>
      </trkpt>
      <trkpt lat="52.171750" lon="5.881665">
        <ele>83.727319</ele>
        <time>2020-11-05T17:53:37.369Z</time>
      </trkpt>
      <trkpt lat="52.171911" lon="5.881573">
        <ele>83.502086</ele>
        <time>2020-11-05T17:53:41.917Z</time>
      </trkpt>
      <trkpt lat="52.172116" lon="5.881520">
        <ele>83.228058</ele>
        <time>2020-11-05T17:53:47.483Z</time>
      </trkpt>
      <trkpt lat="52.175202" lon="5.881365">
        <ele>79.509827</ele>
        <time>2020-11-05T17:55:11.047Z</time>
      </trkpt>
      <trkpt lat="52.178304" lon="5.881205">
        <ele>78.618769</ele>
        <time>2020-11-05T17:56:41.720Z</time>
      </trkpt>
      <trkpt lat="52.178160" lon="5.876526">
        <ele>77.630221</ele>
        <time>2020-11-05T17:58:05.922Z</time>
      </trkpt>
      <trkpt lat="52.180703" lon="5.878063">
        <ele>74.678089</ele>
        <time>2020-11-05T17:59:18.754Z</time>
      </trkpt>
      <trkpt lat="52.181258" lon="5.878392">
        <ele>74.988955</ele>
        <time>2020-11-05T17:59:35.742Z</time>
      </trkpt>
      <trkpt lat="52.180752" lon="5.876134">
        <ele>76.833146</ele>
        <time>2020-11-05T18:00:28.873Z</time>
      </trkpt>
      <trkpt lat="52.180446" lon="5.874767">
        <ele>79.201488</ele>
        <time>2020-11-05T18:01:07.879Z</time>
      </trkpt>
      <trkpt lat="52.180073" lon="5.873115">
        <ele>81.519684</ele>
        <time>2020-11-05T18:01:51.060Z</time>
      </trkpt>
      <trkpt lat="52.179162" lon="5.869020">
        <ele>82.640551</ele>
        <time>2020-11-05T18:03:12.541Z</time>
      </trkpt>
      <trkpt lat="52.178834" lon="5.867552">
        <ele>82.562510</ele>
        <time>2020-11-05T18:03:40.188Z</time>
      </trkpt>
      <trkpt lat="52.178156" lon="5.864515">
        <ele>82.066971</ele>
        <time>2020-11-05T18:04:38.010Z</time>
      </trkpt>
      <trkpt lat="52.177697" lon="5.862460">
        <ele>81.718002</ele>
        <time>2020-11-05T18:05:16.757Z</time>
      </trkpt>
      <trkpt lat="52.177620" lon="5.862234">
        <ele>81.672336</ele>
        <time>2020-11-05T18:05:21.274Z</time>
      </trkpt>
      <trkpt lat="52.177517" lon="5.862061">
        <ele>81.629746</ele>
        <time>2020-11-05T18:05:25.712Z</time>
      </trkpt>
      <trkpt lat="52.177156" lon="5.861607">
        <ele>81.498434</ele>
        <time>2020-11-05T18:05:39.181Z</time>
      </trkpt>
      <trkpt lat="52.177034" lon="5.861391">
        <ele>81.446564</ele>
        <time>2020-11-05T18:05:44.484Z</time>
      </trkpt>
      <trkpt lat="52.176894" lon="5.860748">
        <ele>81.326043</ele>
        <time>2020-11-05T18:05:56.776Z</time>
      </trkpt>
      <trkpt lat="52.176605" lon="5.858805">
        <ele>80.616220</ele>
        <time>2020-11-05T18:06:31.390Z</time>
      </trkpt>
      <trkpt lat="52.176453" lon="5.857824">
        <ele>80.171374</ele>
        <time>2020-11-05T18:06:48.553Z</time>
      </trkpt>
      <trkpt lat="52.176425" lon="5.857495">
        <ele>80.025344</ele>
        <time>2020-11-05T18:06:54.088Z</time>
      </trkpt>
      <trkpt lat="52.176438" lon="5.857482">
        <ele>80.014411</ele>
        <time>2020-11-05T18:06:54.491Z</time>
      </trkpt>
      <trkpt lat="52.178311" lon="5.855536">
        <ele>79.659460</ele>
        <time>2020-11-05T18:07:58.158Z</time>
      </trkpt>
      <trkpt lat="52.178323" lon="5.854000">
        <ele>80.999702</ele>
        <time>2020-11-05T18:08:32.164Z</time>
      </trkpt>
      <trkpt lat="52.178369" lon="5.853604">
        <ele>81.351349</ele>
        <time>2020-11-05T18:08:41.682Z</time>
      </trkpt>
      <trkpt lat="52.178515" lon="5.853024">
        <ele>81.850454</ele>
        <time>2020-11-05T18:08:57.508Z</time>
      </trkpt>
      <trkpt lat="52.178549" lon="5.852788">
        <ele>81.959509</ele>
        <time>2020-11-05T18:09:03.653Z</time>
      </trkpt>
      <trkpt lat="52.178563" lon="5.852564">
        <ele>82.060797</ele>
        <time>2020-11-05T18:09:08.921Z</time>
      </trkpt>
      <trkpt lat="52.178547" lon="5.851847">
        <ele>82.383551</ele>
        <time>2020-11-05T18:09:24.502Z</time>
      </trkpt>
      <trkpt lat="52.178614" lon="5.851025">
        <ele>82.756579</ele>
        <time>2020-11-05T18:09:39.863Z</time>
      </trkpt>
      <trkpt lat="52.178608" lon="5.850819">
        <ele>82.849352</ele>
        <time>2020-11-05T18:09:43.518Z</time>
      </trkpt>
      <trkpt lat="52.178573" lon="5.850605">
        <ele>82.948985</ele>
        <time>2020-11-05T18:09:47.567Z</time>
      </trkpt>
      <trkpt lat="52.178269" lon="5.849638">
        <ele>82.774466</ele>
        <time>2020-11-05T18:10:06.115Z</time>
      </trkpt>
      <trkpt lat="52.178253" lon="5.849588">
        <ele>82.747058</ele>
        <time>2020-11-05T18:10:07.072Z</time>
      </trkpt>
      <trkpt lat="52.178159" lon="5.849243">
        <ele>82.563592</ele>
        <time>2020-11-05T18:10:13.185Z</time>
      </trkpt>
      <trkpt lat="52.178166" lon="5.849061">
        <ele>82.474971</ele>
        <time>2020-11-05T18:10:16.169Z</time>
      </trkpt>
      <trkpt lat="52.178177" lon="5.848754">
        <ele>82.325523</ele>
        <time>2020-11-05T18:10:21.185Z</time>
      </trkpt>
      <trkpt lat="52.178160" lon="5.848313">
        <ele>82.110785</ele>
        <time>2020-11-05T18:10:28.509Z</time>
      </trkpt>
      <trkpt lat="52.178248" lon="5.847467">
        <ele>81.693778</ele>
        <time>2020-11-05T18:10:43.254Z</time>
      </trkpt>
      <trkpt lat="52.178372" lon="5.846676">
        <ele>82.683528</ele>
        <time>2020-11-05T18:11:00.037Z</time>
      </trkpt>
      <trkpt lat="52.178455" lon="5.845674">
        <ele>83.910445</ele>
        <time>2020-11-05T18:11:24.775Z</time>
      </trkpt>
      <trkpt lat="52.179001" lon="5.845617">
        <ele>84.993114</ele>
        <time>2020-11-05T18:11:41.506Z</time>
      </trkpt>
      <trkpt lat="52.179099" lon="5.845637">
        <ele>85.188555</ele>
        <time>2020-11-05T18:11:44.550Z</time>
      </trkpt>
      <trkpt lat="52.179117" lon="5.845411">
        <ele>85.384507</ele>
        <time>2020-11-05T18:11:51.401Z</time>
      </trkpt>
      <trkpt lat="52.179105" lon="5.845226">
        <ele>85.524567</ele>
        <time>2020-11-05T18:11:55.661Z</time>
      </trkpt>
      <trkpt lat="52.178860" lon="5.844616">
        <ele>86.073572</ele>
        <time>2020-11-05T18:12:14.110Z</time>
      </trkpt>
      <trkpt lat="52.178811" lon="5.844396">
        <ele>86.249795</ele>
        <time>2020-11-05T18:12:20.114Z</time>
      </trkpt>
      <trkpt lat="52.178917" lon="5.843916">
        <ele>86.633901</ele>
        <time>2020-11-05T18:12:30.378Z</time>
      </trkpt>
      <trkpt lat="52.178971" lon="5.843557">
        <ele>86.912200</ele>
        <time>2020-11-05T18:12:37.530Z</time>
      </trkpt>
      <trkpt lat="52.179097" lon="5.843243">
        <ele>87.194725</ele>
        <time>2020-11-05T18:12:45.255Z</time>
      </trkpt>
      <trkpt lat="52.179251" lon="5.842524">
        <ele>86.681600</ele>
        <time>2020-11-05T18:12:57.862Z</time>
      </trkpt>
      <trkpt lat="52.179338" lon="5.842232">
        <ele>86.060913</ele>
        <time>2020-11-05T18:13:02.695Z</time>
      </trkpt>
      <trkpt lat="52.179481" lon="5.841932">
        <ele>85.334431</ele>
        <time>2020-11-05T18:13:08.695Z</time>
      </trkpt>
      <trkpt lat="52.179805" lon="5.841073">
        <ele>83.406297</ele>
        <time>2020-11-05T18:13:23.731Z</time>
      </trkpt>
      <trkpt lat="52.180014" lon="5.840694">
        <ele>82.431776</ele>
        <time>2020-11-05T18:13:31.105Z</time>
      </trkpt>
      <trkpt lat="52.180028" lon="5.840623">
        <ele>82.289187</ele>
        <time>2020-11-05T18:13:32.157Z</time>
      </trkpt>
      <trkpt lat="52.180061" lon="5.840522">
        <ele>82.070387</ele>
        <time>2020-11-05T18:13:33.871Z</time>
      </trkpt>
      <trkpt lat="52.180134" lon="5.840299">
        <ele>81.459058</ele>
        <time>2020-11-05T18:13:37.313Z</time>
      </trkpt>
      <trkpt lat="52.180322" lon="5.839508">
        <ele>79.056475</ele>
        <time>2020-11-05T18:13:49.523Z</time>
      </trkpt>
      <trkpt lat="52.180664" lon="5.838358">
        <ele>75.436747</ele>
        <time>2020-11-05T18:14:07.591Z</time>
      </trkpt>
      <trkpt lat="52.181823" lon="5.834107">
        <ele>64.004175</ele>
        <time>2020-11-05T18:15:15.136Z</time>
      </trkpt>
      <trkpt lat="52.181775" lon="5.833798">
        <ele>63.396216</ele>
        <time>2020-11-05T18:15:19.983Z</time>
      </trkpt>
      <trkpt lat="52.181716" lon="5.832826">
        <ele>61.533306</ele>
        <time>2020-11-05T18:15:35.154Z</time>
      </trkpt>
      <trkpt lat="52.181643" lon="5.831629">
        <ele>59.832240</ele>
        <time>2020-11-05T18:15:54.257Z</time>
      </trkpt>
      <trkpt lat="52.181559" lon="5.831195">
        <ele>59.402335</ele>
        <time>2020-11-05T18:16:01.424Z</time>
      </trkpt>
      <trkpt lat="52.181483" lon="5.830626">
        <ele>58.852240</ele>
        <time>2020-11-05T18:16:10.814Z</time>
      </trkpt>
      <trkpt lat="52.181395" lon="5.830276">
        <ele>58.494906</ele>
        <time>2020-11-05T18:16:17.168Z</time>
      </trkpt>
      <trkpt lat="52.181162" lon="5.829714">
        <ele>57.854060</ele>
        <time>2020-11-05T18:16:28.720Z</time>
      </trkpt>
      <trkpt lat="52.180978" lon="5.829164">
        <ele>57.568098</ele>
        <time>2020-11-05T18:16:39.614Z</time>
      </trkpt>
      <trkpt lat="52.180919" lon="5.829058">
        <ele>57.541391</ele>
        <time>2020-11-05T18:16:41.813Z</time>
      </trkpt>
      <trkpt lat="52.180482" lon="5.828649">
        <ele>57.388094</ele>
        <time>2020-11-05T18:16:56.571Z</time>
      </trkpt>
      <trkpt lat="52.179845" lon="5.828174">
        <ele>57.174988</ele>
        <time>2020-11-05T18:17:17.001Z</time>
      </trkpt>
      <trkpt lat="52.180308" lon="5.826017">
        <ele>56.634900</ele>
        <time>2020-11-05T18:17:43.982Z</time>
      </trkpt>
      <trkpt lat="52.180286" lon="5.825490">
        <ele>56.504103</ele>
        <time>2020-11-05T18:17:49.143Z</time>
      </trkpt>
      <trkpt lat="52.180252" lon="5.825253">
        <ele>56.443833</ele>
        <time>2020-11-05T18:17:51.277Z</time>
      </trkpt>
      <trkpt lat="52.180070" lon="5.824929">
        <ele>56.234489</ele>
        <time>2020-11-05T18:17:55.388Z</time>
      </trkpt>
      <trkpt lat="52.179968" lon="5.824513">
        <ele>55.802723</ele>
        <time>2020-11-05T18:17:59.836Z</time>
      </trkpt>
      <trkpt lat="52.180069" lon="5.823905">
        <ele>55.195666</ele>
        <time>2020-11-05T18:18:05.766Z</time>
      </trkpt>
      <trkpt lat="52.180044" lon="5.823798">
        <ele>55.085317</ele>
        <time>2020-11-05T18:18:06.664Z</time>
      </trkpt>
      <trkpt lat="52.179946" lon="5.820204">
        <ele>51.459273</ele>
        <time>2020-11-05T18:18:40.095Z</time>
      </trkpt>
      <trkpt lat="52.179806" lon="5.816322">
        <ele>47.044825</ele>
        <time>2020-11-05T18:19:15.174Z</time>
      </trkpt>
      <trkpt lat="52.179968" lon="5.816059">
        <ele>46.738373</ele>
        <time>2020-11-05T18:19:18.635Z</time>
      </trkpt>
      <trkpt lat="52.180070" lon="5.815471">
        <ele>46.236031</ele>
        <time>2020-11-05T18:19:24.221Z</time>
      </trkpt>
      <trkpt lat="52.180352" lon="5.815264">
        <ele>45.821439</ele>
        <time>2020-11-05T18:19:28.942Z</time>
      </trkpt>
      <trkpt lat="52.180434" lon="5.814856">
        <ele>45.468484</ele>
        <time>2020-11-05T18:19:32.948Z</time>
      </trkpt>
      <trkpt lat="52.181318" lon="5.814714">
        <ele>44.585974</ele>
        <time>2020-11-05T18:19:47.334Z</time>
      </trkpt>
      <trkpt lat="52.181207" lon="5.814332">
        <ele>44.526765</ele>
        <time>2020-11-05T18:19:54.613Z</time>
      </trkpt>
      <trkpt lat="52.181111" lon="5.814147">
        <ele>44.492819</ele>
        <time>2020-11-05T18:19:58.783Z</time>
      </trkpt>
      <trkpt lat="52.180305" lon="5.813527">
        <ele>44.289251</ele>
        <time>2020-11-05T18:20:25.280Z</time>
      </trkpt>
      <trkpt lat="52.178700" lon="5.811523">
        <ele>44.849308</ele>
        <time>2020-11-05T18:21:28.618Z</time>
      </trkpt>
      <trkpt lat="52.178251" lon="5.810874">
        <ele>44.985289</ele>
        <time>2020-11-05T18:21:46.910Z</time>
      </trkpt>
      <trkpt lat="52.177883" lon="5.810323">
        <ele>45.098516</ele>
        <time>2020-11-05T18:22:02.108Z</time>
      </trkpt>
      <trkpt lat="52.177630" lon="5.809719">
        <ele>45.200174</ele>
        <time>2020-11-05T18:22:15.668Z</time>
      </trkpt>
      <trkpt lat="52.177394" lon="5.809234">
        <ele>45.281412</ele>
        <time>2020-11-05T18:22:27.168Z</time>
      </trkpt>
      <trkpt lat="52.174910" lon="5.805534">
        <ele>45.605555</ele>
        <time>2020-11-05T18:24:09.572Z</time>
      </trkpt>
      <trkpt lat="52.174595" lon="5.805117">
        <ele>45.263925</ele>
        <time>2020-11-05T18:24:20.876Z</time>
      </trkpt>
      <trkpt lat="52.174589" lon="5.804957">
        <ele>45.152639</ele>
        <time>2020-11-05T18:24:23.571Z</time>
      </trkpt>
      <trkpt lat="52.175602" lon="5.803547">
        <ele>43.644916</ele>
        <time>2020-11-05T18:24:59.330Z</time>
      </trkpt>
      <trkpt lat="52.176346" lon="5.802899">
        <ele>42.832236</ele>
        <time>2020-11-05T18:25:22.359Z</time>
      </trkpt>
      <trkpt lat="52.176021" lon="5.802149">
        <ele>42.297722</ele>
        <time>2020-11-05T18:25:38.267Z</time>
      </trkpt>
      <trkpt lat="52.175782" lon="5.801509">
        <ele>41.861113</ele>
        <time>2020-11-05T18:25:51.194Z</time>
      </trkpt>
      <trkpt lat="52.175621" lon="5.801170">
        <ele>41.511452</ele>
        <time>2020-11-05T18:25:58.562Z</time>
      </trkpt>
      <trkpt lat="52.175516" lon="5.801044">
        <ele>41.338090</ele>
        <time>2020-11-05T18:26:02.230Z</time>
      </trkpt>
      <trkpt lat="52.175192" lon="5.800935">
        <ele>40.898160</ele>
        <time>2020-11-05T18:26:11.414Z</time>
      </trkpt>
      <trkpt lat="52.175148" lon="5.800874">
        <ele>40.821361</ele>
        <time>2020-11-05T18:26:12.989Z</time>
      </trkpt>
      <trkpt lat="52.174543" lon="5.799550">
        <ele>39.474852</ele>
        <time>2020-11-05T18:26:39.971Z</time>
      </trkpt>
      <trkpt lat="52.174097" lon="5.798575">
        <ele>38.381111</ele>
        <time>2020-11-05T18:26:59.202Z</time>
      </trkpt>
      <trkpt lat="52.173648" lon="5.797636">
        <ele>37.310039</ele>
        <time>2020-11-05T18:27:18.644Z</time>
      </trkpt>
      <trkpt lat="52.173573" lon="5.797549">
        <ele>37.175033</ele>
        <time>2020-11-05T18:27:21.059Z</time>
      </trkpt>
      <trkpt lat="52.173527" lon="5.797678">
        <ele>37.040802</ele>
        <time>2020-11-05T18:27:23.627Z</time>
      </trkpt>
      <trkpt lat="52.173379" lon="5.798089">
        <ele>36.925008</ele>
        <time>2020-11-05T18:27:31.979Z</time>
      </trkpt>
      <trkpt lat="52.173333" lon="5.798228">
        <ele>36.984460</ele>
        <time>2020-11-05T18:27:34.880Z</time>
      </trkpt>
      <trkpt lat="52.173163" lon="5.798697">
        <ele>37.189524</ele>
        <time>2020-11-05T18:27:45.173Z</time>
      </trkpt>
      <trkpt lat="52.172067" lon="5.800863">
        <ele>38.442260</ele>
        <time>2020-11-05T18:28:43.797Z</time>
      </trkpt>
      <trkpt lat="52.170338" lon="5.804281">
        <ele>41.148346</ele>
        <time>2020-11-05T18:30:15.100Z</time>
      </trkpt>
      <trkpt lat="52.170262" lon="5.804415">
        <ele>41.259254</ele>
        <time>2020-11-05T18:30:18.845Z</time>
      </trkpt>
      <trkpt lat="52.169740" lon="5.805098">
        <ele>41.750250</ele>
        <time>2020-11-05T18:30:41.682Z</time>
      </trkpt>
      <trkpt lat="52.168876" lon="5.806760">
        <ele>42.507870</ele>
        <time>2020-11-05T18:31:23.968Z</time>
      </trkpt>
      <trkpt lat="52.168604" lon="5.807313">
        <ele>42.276473</ele>
        <time>2020-11-05T18:31:36.872Z</time>
      </trkpt>
      <trkpt lat="52.168811" lon="5.807656">
        <ele>42.071201</ele>
        <time>2020-11-05T18:31:45.293Z</time>
      </trkpt>
      <trkpt lat="52.170177" lon="5.809926">
        <ele>40.414256</ele>
        <time>2020-11-05T18:32:38.852Z</time>
      </trkpt>
      <trkpt lat="52.170981" lon="5.809606">
        <ele>39.537510</ele>
        <time>2020-11-05T18:33:01.582Z</time>
      </trkpt>
      <trkpt lat="52.171086" lon="5.809709">
        <ele>39.407696</ele>
        <time>2020-11-05T18:33:04.946Z</time>
      </trkpt>
      <trkpt lat="52.171163" lon="5.809953">
        <ele>39.271854</ele>
        <time>2020-11-05T18:33:09.571Z</time>
      </trkpt>
      <trkpt lat="52.171398" lon="5.810567">
        <ele>38.931286</ele>
        <time>2020-11-05T18:33:21.885Z</time>
      </trkpt>
      <trkpt lat="52.171749" lon="5.811364">
        <ele>38.469577</ele>
        <time>2020-11-05T18:33:38.645Z</time>
      </trkpt>
      <trkpt lat="52.171828" lon="5.811624">
        <ele>38.333041</ele>
        <time>2020-11-05T18:33:43.623Z</time>
      </trkpt>
      <trkpt lat="52.172152" lon="5.813078">
        <ele>37.973426</ele>
        <time>2020-11-05T18:34:10.794Z</time>
      </trkpt>
      <trkpt lat="52.172297" lon="5.813568">
        <ele>37.954209</ele>
        <time>2020-11-05T18:34:20.628Z</time>
      </trkpt>
      <trkpt lat="52.172642" lon="5.814306">
        <ele>37.921431</ele>
        <time>2020-11-05T18:34:37.725Z</time>
      </trkpt>
      <trkpt lat="52.172673" lon="5.814484">
        <ele>37.914895</ele>
        <time>2020-11-05T18:34:41.154Z</time>
      </trkpt>
      <trkpt lat="52.172775" lon="5.815695">
        <ele>38.186814</ele>
        <time>2020-11-05T18:35:04.312Z</time>
      </trkpt>
      <trkpt lat="52.172807" lon="5.815856">
        <ele>38.248091</ele>
        <time>2020-11-05T18:35:07.552Z</time>
      </trkpt>
      <trkpt lat="52.172889" lon="5.816020">
        <ele>38.324703</ele>
        <time>2020-11-05T18:35:11.592Z</time>
      </trkpt>
      <trkpt lat="52.173032" lon="5.816160">
        <ele>38.423174</ele>
        <time>2020-11-05T18:35:16.759Z</time>
      </trkpt>
      <trkpt lat="52.173409" lon="5.816386">
        <ele>38.660308</ele>
        <time>2020-11-05T18:35:29.879Z</time>
      </trkpt>
      <trkpt lat="52.173498" lon="5.816520">
        <ele>38.731824</ele>
        <time>2020-11-05T18:35:33.943Z</time>
      </trkpt>
      <trkpt lat="52.173615" lon="5.816696">
        <ele>38.825801</ele>
        <time>2020-11-05T18:35:39.177Z</time>
      </trkpt>
      <trkpt lat="52.173318" lon="5.817190">
        <ele>39.155161</ele>
        <time>2020-11-05T18:35:48.201Z</time>
      </trkpt>
      <trkpt lat="52.173193" lon="5.817593">
        <ele>39.431161</ele>
        <time>2020-11-05T18:35:54.362Z</time>
      </trkpt>
      <trkpt lat="52.173164" lon="5.817716">
        <ele>39.511695</ele>
        <time>2020-11-05T18:35:56.020Z</time>
      </trkpt>
      <trkpt lat="52.173117" lon="5.818107">
        <ele>39.755200</ele>
        <time>2020-11-05T18:36:02.961Z</time>
      </trkpt>
      <trkpt lat="52.173125" lon="5.818749">
        <ele>40.147636</ele>
        <time>2020-11-05T18:36:13.718Z</time>
      </trkpt>
      <trkpt lat="52.173354" lon="5.820431">
        <ele>41.488565</ele>
        <time>2020-11-05T18:36:42.815Z</time>
      </trkpt>
      <trkpt lat="52.173594" lon="5.820352">
        <ele>41.889867</ele>
        <time>2020-11-05T18:36:49.728Z</time>
      </trkpt>
      <trkpt lat="52.173726" lon="5.821289">
        <ele>42.856237</ele>
        <time>2020-11-05T18:37:06.917Z</time>
      </trkpt>
      <trkpt lat="52.173919" lon="5.822785">
        <ele>44.795452</ele>
        <time>2020-11-05T18:37:38.170Z</time>
      </trkpt>
      <trkpt lat="52.174041" lon="5.823705">
        <ele>46.292888</ele>
        <time>2020-11-05T18:37:57.383Z</time>
      </trkpt>
      <trkpt lat="52.174048" lon="5.823759">
        <ele>46.380693</ele>
        <time>2020-11-05T18:37:59.383Z</time>
      </trkpt>
      <trkpt lat="52.174296" lon="5.825609">
        <ele>48.711989</ele>
        <time>2020-11-05T18:38:39.492Z</time>
      </trkpt>
      <trkpt lat="52.174321" lon="5.825814">
        <ele>48.823572</ele>
        <time>2020-11-05T18:38:43.049Z</time>
      </trkpt>
      <trkpt lat="52.174329" lon="5.825875">
        <ele>48.856874</ele>
        <time>2020-11-05T18:38:43.931Z</time>
      </trkpt>
      <trkpt lat="52.174496" lon="5.827204">
        <ele>49.581103</ele>
        <time>2020-11-05T18:39:05.162Z</time>
      </trkpt>
      <trkpt lat="52.174197" lon="5.827284">
        <ele>49.844867</ele>
        <time>2020-11-05T18:39:12.060Z</time>
      </trkpt>
      <trkpt lat="52.174114" lon="5.827263">
        <ele>49.917985</ele>
        <time>2020-11-05T18:39:13.906Z</time>
      </trkpt>
      <trkpt lat="52.173936" lon="5.827219">
        <ele>49.764357</ele>
        <time>2020-11-05T18:39:18.023Z</time>
      </trkpt>
      <trkpt lat="52.173809" lon="5.827142">
        <ele>49.622828</ele>
        <time>2020-11-05T18:39:20.906Z</time>
      </trkpt>
      <trkpt lat="52.173630" lon="5.827011">
        <ele>49.417888</ele>
        <time>2020-11-05T18:39:24.558Z</time>
      </trkpt>
      <trkpt lat="52.173488" lon="5.826967">
        <ele>49.266910</ele>
        <time>2020-11-05T18:39:27.110Z</time>
      </trkpt>
      <trkpt lat="52.173147" lon="5.827129">
        <ele>48.895915</ele>
        <time>2020-11-05T18:39:33.330Z</time>
      </trkpt>
      <trkpt lat="52.173038" lon="5.827116">
        <ele>48.781756</ele>
        <time>2020-11-05T18:39:35.135Z</time>
      </trkpt>
      <trkpt lat="52.172950" lon="5.827026">
        <ele>48.673253</ele>
        <time>2020-11-05T18:39:36.970Z</time>
      </trkpt>
      <trkpt lat="52.172721" lon="5.826593">
        <ele>48.306983</ele>
        <time>2020-11-05T18:39:42.898Z</time>
      </trkpt>
      <trkpt lat="52.172543" lon="5.826008">
        <ele>47.930842</ele>
        <time>2020-11-05T18:39:49.828Z</time>
      </trkpt>
      <trkpt lat="52.172470" lon="5.825878">
        <ele>47.846588</ele>
        <time>2020-11-05T18:39:51.806Z</time>
      </trkpt>
      <trkpt lat="52.172208" lon="5.825570">
        <ele>47.594843</ele>
        <time>2020-11-05T18:39:57.641Z</time>
      </trkpt>
      <trkpt lat="52.171985" lon="5.825132">
        <ele>47.322732</ele>
        <time>2020-11-05T18:40:04.018Z</time>
      </trkpt>
      <trkpt lat="52.171808" lon="5.824885">
        <ele>47.141150</ele>
        <time>2020-11-05T18:40:08.423Z</time>
      </trkpt>
      <trkpt lat="52.171591" lon="5.824800">
        <ele>46.967206</ele>
        <time>2020-11-05T18:40:12.501Z</time>
      </trkpt>
      <trkpt lat="52.170903" lon="5.824864">
        <ele>46.459548</ele>
        <time>2020-11-05T18:40:25.350Z</time>
      </trkpt>
      <trkpt lat="52.170746" lon="5.824822">
        <ele>46.351928</ele>
        <time>2020-11-05T18:40:28.447Z</time>
      </trkpt>
      <trkpt lat="52.170529" lon="5.824624">
        <ele>46.183720</ele>
        <time>2020-11-05T18:40:33.025Z</time>
      </trkpt>
      <trkpt lat="52.170173" lon="5.824075">
        <ele>45.852259</ele>
        <time>2020-11-05T18:40:42.453Z</time>
      </trkpt>
      <trkpt lat="52.170080" lon="5.823989">
        <ele>45.779937</ele>
        <time>2020-11-05T18:40:44.274Z</time>
      </trkpt>
      <trkpt lat="52.169958" lon="5.823974">
        <ele>45.697178</ele>
        <time>2020-11-05T18:40:46.333Z</time>
      </trkpt>
      <trkpt lat="52.169891" lon="5.823993">
        <ele>45.651176</ele>
        <time>2020-11-05T18:40:47.565Z</time>
      </trkpt>
      <trkpt lat="52.169809" lon="5.824072">
        <ele>45.586749</ele>
        <time>2020-11-05T18:40:49.373Z</time>
      </trkpt>
      <trkpt lat="52.168938" lon="5.825126">
        <ele>44.851217</ele>
        <time>2020-11-05T18:41:08.584Z</time>
      </trkpt>
      <trkpt lat="52.168920" lon="5.825148">
        <ele>44.835953</ele>
        <time>2020-11-05T18:41:08.949Z</time>
      </trkpt>
      <trkpt lat="52.168717" lon="5.825280">
        <ele>44.687659</ele>
        <time>2020-11-05T18:41:12.762Z</time>
      </trkpt>
      <trkpt lat="52.168683" lon="5.825294">
        <ele>44.663864</ele>
        <time>2020-11-05T18:41:13.458Z</time>
      </trkpt>
      <trkpt lat="52.169231" lon="5.829501">
        <ele>44.466848</ele>
        <time>2020-11-05T18:42:00.485Z</time>
      </trkpt>
      <trkpt lat="52.169684" lon="5.831340">
        <ele>45.473060</ele>
        <time>2020-11-05T18:42:25.799Z</time>
      </trkpt>
      <trkpt lat="52.169926" lon="5.832286">
        <ele>46.164048</ele>
        <time>2020-11-05T18:42:40.452Z</time>
      </trkpt>
      <trkpt lat="52.170687" lon="5.834230">
        <ele>48.409724</ele>
        <time>2020-11-05T18:43:15.592Z</time>
      </trkpt>
      <trkpt lat="52.170714" lon="5.834195">
        <ele>48.464488</ele>
        <time>2020-11-05T18:43:16.859Z</time>
      </trkpt>
      <trkpt lat="52.171168" lon="5.835369">
        <ele>49.532579</ele>
        <time>2020-11-05T18:43:46.523Z</time>
      </trkpt>
      <trkpt lat="52.170714" lon="5.834195">
        <ele>50.551801</ele>
        <time>2020-11-05T18:44:15.033Z</time>
      </trkpt>
      <trkpt lat="52.170687" lon="5.834230">
        <ele>50.593103</ele>
        <time>2020-11-05T18:44:16.133Z</time>
      </trkpt>
      <trkpt lat="52.171429" lon="5.836071">
        <ele>52.641154</ele>
        <time>2020-11-05T18:44:47.351Z</time>
      </trkpt>
      <trkpt lat="52.172629" lon="5.838209">
        <ele>55.524079</ele>
        <time>2020-11-05T18:45:33.695Z</time>
      </trkpt>
      <trkpt lat="52.172735" lon="5.838392">
        <ele>55.779178</ele>
        <time>2020-11-05T18:45:37.550Z</time>
      </trkpt>
      <trkpt lat="52.172107" lon="5.840054">
        <ele>56.444408</ele>
        <time>2020-11-05T18:46:03.320Z</time>
      </trkpt>
      <trkpt lat="52.171858" lon="5.840549">
        <ele>56.352317</ele>
        <time>2020-11-05T18:46:10.320Z</time>
      </trkpt>
      <trkpt lat="52.171703" lon="5.840757">
        <ele>56.305233</ele>
        <time>2020-11-05T18:46:13.687Z</time>
      </trkpt>
      <trkpt lat="52.171497" lon="5.840904">
        <ele>56.252491</ele>
        <time>2020-11-05T18:46:17.532Z</time>
      </trkpt>
      <trkpt lat="52.170028" lon="5.841692">
        <ele>54.532834</ele>
        <time>2020-11-05T18:46:42.174Z</time>
      </trkpt>
      <trkpt lat="52.169564" lon="5.841939">
        <ele>53.893497</ele>
        <time>2020-11-05T18:46:50.121Z</time>
      </trkpt>
      <trkpt lat="52.169519" lon="5.841963">
        <ele>53.831481</ele>
        <time>2020-11-05T18:46:50.903Z</time>
      </trkpt>
      <trkpt lat="52.169596" lon="5.842641">
        <ele>53.845648</ele>
        <time>2020-11-05T18:47:00.058Z</time>
      </trkpt>
      <trkpt lat="52.169634" lon="5.842885">
        <ele>53.851442</ele>
        <time>2020-11-05T18:47:04.431Z</time>
      </trkpt>
      <trkpt lat="52.169644" lon="5.842948">
        <ele>53.852940</ele>
        <time>2020-11-05T18:47:05.621Z</time>
      </trkpt>
      <trkpt lat="52.169661" lon="5.843296">
        <ele>53.860975</ele>
        <time>2020-11-05T18:47:11.865Z</time>
      </trkpt>
      <trkpt lat="52.169710" lon="5.843529">
        <ele>53.866644</ele>
        <time>2020-11-05T18:47:16.480Z</time>
      </trkpt>
      <trkpt lat="52.169837" lon="5.843885">
        <ele>53.876123</ele>
        <time>2020-11-05T18:47:24.010Z</time>
      </trkpt>
      <trkpt lat="52.170331" lon="5.844864">
        <ele>54.290973</ele>
        <time>2020-11-05T18:47:49.880Z</time>
      </trkpt>
      <trkpt lat="52.170586" lon="5.845416">
        <ele>55.075665</ele>
        <time>2020-11-05T18:48:05.992Z</time>
      </trkpt>
      <trkpt lat="52.170733" lon="5.845891">
        <ele>55.679791</ele>
        <time>2020-11-05T18:48:18.534Z</time>
      </trkpt>
      <trkpt lat="52.170994" lon="5.846390">
        <ele>56.424458</ele>
        <time>2020-11-05T18:48:33.933Z</time>
      </trkpt>
      <trkpt lat="52.171033" lon="5.846512">
        <ele>56.580673</ele>
        <time>2020-11-05T18:48:36.936Z</time>
      </trkpt>
      <trkpt lat="52.171044" lon="5.846657">
        <ele>56.746571</ele>
        <time>2020-11-05T18:48:40.189Z</time>
      </trkpt>
      <trkpt lat="52.171115" lon="5.846873">
        <ele>57.024836</ele>
        <time>2020-11-05T18:48:46.466Z</time>
      </trkpt>
      <trkpt lat="52.171362" lon="5.847721">
        <ele>57.931142</ele>
        <time>2020-11-05T18:49:07.673Z</time>
      </trkpt>
      <trkpt lat="52.171918" lon="5.849810">
        <ele>59.986555</ele>
        <time>2020-11-05T18:49:57.164Z</time>
      </trkpt>
      <trkpt lat="52.173153" lon="5.854194">
        <ele>62.384625</ele>
        <time>2020-11-05T18:51:31.815Z</time>
      </trkpt>
      <trkpt lat="52.173125" lon="5.854374">
        <ele>62.495136</ele>
        <time>2020-11-05T18:51:35.696Z</time>
      </trkpt>
      <trkpt lat="52.173248" lon="5.854877">
        <ele>62.817389</ele>
        <time>2020-11-05T18:51:47.935Z</time>
      </trkpt>
      <trkpt lat="52.173718" lon="5.856240">
        <ele>64.432920</ele>
        <time>2020-11-05T18:52:23.904Z</time>
      </trkpt>
      <trkpt lat="52.173941" lon="5.857066">
        <ele>65.426346</ele>
        <time>2020-11-05T18:52:45.172Z</time>
      </trkpt>
      <trkpt lat="52.174189" lon="5.857724">
        <ele>66.245272</ele>
        <time>2020-11-05T18:53:01.760Z</time>
      </trkpt>
      <trkpt lat="52.174513" lon="5.858777">
        <ele>67.161263</ele>
        <time>2020-11-05T18:53:26.181Z</time>
      </trkpt>
      <trkpt lat="52.174621" lon="5.859011">
        <ele>67.388968</ele>
        <time>2020-11-05T18:53:32.402Z</time>
      </trkpt>
      <trkpt lat="52.174276" lon="5.859096">
        <ele>67.831334</ele>
        <time>2020-11-05T18:53:44.090Z</time>
      </trkpt>
      <trkpt lat="52.174188" lon="5.859172">
        <ele>67.957586</ele>
        <time>2020-11-05T18:53:47.258Z</time>
      </trkpt>
      <trkpt lat="52.173965" lon="5.859269">
        <ele>68.250199</ele>
        <time>2020-11-05T18:53:55.599Z</time>
      </trkpt>
      <trkpt lat="52.173496" lon="5.859337">
        <ele>69.196851</ele>
        <time>2020-11-05T18:54:12.493Z</time>
      </trkpt>
      <trkpt lat="52.173364" lon="5.860197">
        <ele>70.493918</ele>
        <time>2020-11-05T18:54:33.374Z</time>
      </trkpt>
      <trkpt lat="52.173258" lon="5.860426">
        <ele>70.913691</ele>
        <time>2020-11-05T18:54:39.911Z</time>
      </trkpt>
      <trkpt lat="52.172969" lon="5.860881">
        <ele>71.872095</ele>
        <time>2020-11-05T18:54:56.440Z</time>
      </trkpt>
      <trkpt lat="52.172898" lon="5.860932">
        <ele>72.057188</ele>
        <time>2020-11-05T18:54:59.814Z</time>
      </trkpt>
      <trkpt lat="52.172577" lon="5.860796">
        <ele>72.845713</ele>
        <time>2020-11-05T18:55:13.925Z</time>
      </trkpt>
      <trkpt lat="52.172161" lon="5.860771">
        <ele>73.813587</ele>
        <time>2020-11-05T18:55:31.751Z</time>
      </trkpt>
      <trkpt lat="52.172027" lon="5.860796">
        <ele>74.127175</ele>
        <time>2020-11-05T18:55:37.195Z</time>
      </trkpt>
      <trkpt lat="52.171475" lon="5.861100">
        <ele>75.481828</ele>
        <time>2020-11-05T18:56:01.664Z</time>
      </trkpt>
      <trkpt lat="52.171130" lon="5.861128">
        <ele>76.284960</ele>
        <time>2020-11-05T18:56:13.675Z</time>
      </trkpt>
      <trkpt lat="52.170894" lon="5.861224">
        <ele>76.850488</ele>
        <time>2020-11-05T18:56:21.576Z</time>
      </trkpt>
      <trkpt lat="52.170624" lon="5.861260">
        <ele>77.000388</ele>
        <time>2020-11-05T18:56:30.518Z</time>
      </trkpt>
      <trkpt lat="52.170400" lon="5.861570">
        <ele>77.094697</ele>
        <time>2020-11-05T18:56:40.432Z</time>
      </trkpt>
      <trkpt lat="52.170015" lon="5.861130">
        <ele>77.245612</ele>
        <time>2020-11-05T18:56:54.228Z</time>
      </trkpt>
      <trkpt lat="52.169706" lon="5.861131">
        <ele>77.344798</ele>
        <time>2020-11-05T18:57:03.574Z</time>
      </trkpt>
      <trkpt lat="52.169516" lon="5.861131">
        <ele>77.405785</ele>
        <time>2020-11-05T18:57:09.313Z</time>
      </trkpt>
      <trkpt lat="52.169335" lon="5.861021">
        <ele>77.467789</ele>
        <time>2020-11-05T18:57:14.945Z</time>
      </trkpt>
      <trkpt lat="52.169094" lon="5.861049">
        <ele>77.533671</ele>
        <time>2020-11-05T18:57:22.622Z</time>
      </trkpt>
      <trkpt lat="52.168940" lon="5.861160">
        <ele>77.573537</ele>
        <time>2020-11-05T18:57:27.243Z</time>
      </trkpt>
      <trkpt lat="52.168817" lon="5.861206">
        <ele>77.603416</ele>
        <time>2020-11-05T18:57:30.841Z</time>
      </trkpt>
      <trkpt lat="52.167702" lon="5.861268">
        <ele>77.867567</ele>
        <time>2020-11-05T18:58:05.828Z</time>
      </trkpt>
      <trkpt lat="52.166342" lon="5.861730">
        <ele>77.869703</ele>
        <time>2020-11-05T18:58:48.244Z</time>
      </trkpt>
      <trkpt lat="52.166183" lon="5.861840">
        <ele>77.861060</ele>
        <time>2020-11-05T18:58:53.188Z</time>
      </trkpt>
      <trkpt lat="52.165906" lon="5.861849">
        <ele>77.847196</ele>
        <time>2020-11-05T18:59:01.106Z</time>
      </trkpt>
      <trkpt lat="52.165342" lon="5.862075">
        <ele>77.938933</ele>
        <time>2020-11-05T18:59:17.672Z</time>
      </trkpt>
      <trkpt lat="52.165159" lon="5.862091">
        <ele>77.989385</ele>
        <time>2020-11-05T18:59:22.873Z</time>
      </trkpt>
      <trkpt lat="52.164866" lon="5.862003">
        <ele>78.071406</ele>
        <time>2020-11-05T18:59:31.620Z</time>
      </trkpt>
      <trkpt lat="52.164384" lon="5.862133">
        <ele>78.205904</ele>
        <time>2020-11-05T18:59:46.741Z</time>
      </trkpt>
      <trkpt lat="52.164265" lon="5.862191">
        <ele>78.240097</ele>
        <time>2020-11-05T18:59:50.765Z</time>
      </trkpt>
      <trkpt lat="52.163984" lon="5.862448">
        <ele>78.328799</ele>
        <time>2020-11-05T19:00:01.584Z</time>
      </trkpt>
      <trkpt lat="52.163895" lon="5.862620">
        <ele>78.660676</ele>
        <time>2020-11-05T19:00:06.394Z</time>
      </trkpt>
      <trkpt lat="52.163846" lon="5.862857">
        <ele>79.058358</ele>
        <time>2020-11-05T19:00:11.861Z</time>
      </trkpt>
      <trkpt lat="52.163828" lon="5.863108">
        <ele>79.460190</ele>
        <time>2020-11-05T19:00:17.578Z</time>
      </trkpt>
      <trkpt lat="52.163780" lon="5.863274">
        <ele>79.752003</ele>
        <time>2020-11-05T19:00:21.951Z</time>
      </trkpt>
      <trkpt lat="52.164416" lon="5.864198">
        <ele>81.960338</ele>
        <time>2020-11-05T19:00:56.660Z</time>
      </trkpt>
      <trkpt lat="52.162975" lon="5.865589">
        <ele>87.340823</ele>
        <time>2020-11-05T19:02:11.963Z</time>
      </trkpt>
      <trkpt lat="52.162875" lon="5.865727">
        <ele>87.787194</ele>
        <time>2020-11-05T19:02:17.465Z</time>
      </trkpt>
      <trkpt lat="52.162696" lon="5.865535">
        <ele>88.517200</ele>
        <time>2020-11-05T19:02:26.362Z</time>
      </trkpt>
      <trkpt lat="52.162534" lon="5.865461">
        <ele>89.090379</ele>
        <time>2020-11-05T19:02:33.126Z</time>
      </trkpt>
      <trkpt lat="52.162293" lon="5.865442">
        <ele>89.480306</ele>
        <time>2020-11-05T19:02:42.706Z</time>
      </trkpt>
      <trkpt lat="52.162136" lon="5.865475">
        <ele>89.724703</ele>
        <time>2020-11-05T19:02:48.822Z</time>
      </trkpt>
      <trkpt lat="52.161960" lon="5.865581">
        <ele>90.014380</ele>
        <time>2020-11-05T19:02:55.998Z</time>
      </trkpt>
      <trkpt lat="52.161409" lon="5.866024">
        <ele>90.962899</ele>
        <time>2020-11-05T19:03:18.135Z</time>
      </trkpt>
      <trkpt lat="52.160735" lon="5.866604">
        <ele>91.989193</ele>
        <time>2020-11-05T19:03:42.088Z</time>
      </trkpt>
      <trkpt lat="52.160213" lon="5.866600">
        <ele>92.291063</ele>
        <time>2020-11-05T19:03:58.770Z</time>
      </trkpt>
      <trkpt lat="52.160030" lon="5.866669">
        <ele>92.399684</ele>
        <time>2020-11-05T19:04:04.897Z</time>
      </trkpt>
      <trkpt lat="52.159803" lon="5.866847">
        <ele>92.545354</ele>
        <time>2020-11-05T19:04:13.044Z</time>
      </trkpt>
      <trkpt lat="52.159504" lon="5.867080">
        <ele>92.737004</ele>
        <time>2020-11-05T19:04:23.496Z</time>
      </trkpt>
      <trkpt lat="52.159478" lon="5.867125">
        <ele>92.758934</ele>
        <time>2020-11-05T19:04:24.853Z</time>
      </trkpt>
      <trkpt lat="52.159471" lon="5.867276">
        <ele>92.812656</ele>
        <time>2020-11-05T19:04:27.707Z</time>
      </trkpt>
      <trkpt lat="52.159548" lon="5.867575">
        <ele>92.927697</ele>
        <time>2020-11-05T19:04:33.932Z</time>
      </trkpt>
      <trkpt lat="52.159523" lon="5.867671">
        <ele>92.961558</ele>
        <time>2020-11-05T19:04:36.230Z</time>
      </trkpt>
      <trkpt lat="52.159156" lon="5.868208">
        <ele>93.211566</ele>
        <time>2020-11-05T19:04:51.869Z</time>
      </trkpt>
      <trkpt lat="52.159062" lon="5.868595">
        <ele>93.341012</ele>
        <time>2020-11-05T19:05:00.181Z</time>
      </trkpt>
      <trkpt lat="52.159005" lon="5.869108">
        <ele>93.503148</ele>
        <time>2020-11-05T19:05:10.680Z</time>
      </trkpt>
      <trkpt lat="52.158904" lon="5.869413">
        <ele>93.610938</ele>
        <time>2020-11-05T19:05:17.604Z</time>
      </trkpt>
      <trkpt lat="52.158767" lon="5.869705">
        <ele>93.725263</ele>
        <time>2020-11-05T19:05:24.796Z</time>
      </trkpt>
      <trkpt lat="52.158535" lon="5.870046">
        <ele>93.791163</ele>
        <time>2020-11-05T19:05:34.213Z</time>
      </trkpt>
      <trkpt lat="52.158409" lon="5.870149">
        <ele>93.659620</ele>
        <time>2020-11-05T19:05:38.786Z</time>
      </trkpt>
      <trkpt lat="52.158072" lon="5.870297">
        <ele>93.333910</ele>
        <time>2020-11-05T19:05:48.682Z</time>
      </trkpt>
      <trkpt lat="52.157982" lon="5.870409">
        <ele>93.228242</ele>
        <time>2020-11-05T19:05:51.672Z</time>
      </trkpt>
      <trkpt lat="52.157831" lon="5.870727">
        <ele>92.998017</ele>
        <time>2020-11-05T19:05:58.528Z</time>
      </trkpt>
      <trkpt lat="52.157608" lon="5.870619">
        <ele>92.780918</ele>
        <time>2020-11-05T19:06:04.717Z</time>
      </trkpt>
      <trkpt lat="52.157307" lon="5.870307">
        <ele>92.448033</ele>
        <time>2020-11-05T19:06:14.351Z</time>
      </trkpt>
      <trkpt lat="52.157175" lon="5.870079">
        <ele>92.268550</ele>
        <time>2020-11-05T19:06:19.632Z</time>
      </trkpt>
      <trkpt lat="52.156990" lon="5.869514">
        <ele>91.677122</ele>
        <time>2020-11-05T19:06:30.071Z</time>
      </trkpt>
      <trkpt lat="52.156860" lon="5.869175">
        <ele>91.258173</ele>
        <time>2020-11-05T19:06:36.643Z</time>
      </trkpt>
      <trkpt lat="52.156762" lon="5.869022">
        <ele>91.026374</ele>
        <time>2020-11-05T19:06:40.172Z</time>
      </trkpt>
      <trkpt lat="52.156301" lon="5.868541">
        <ele>90.091397</ele>
        <time>2020-11-05T19:06:54.472Z</time>
      </trkpt>
      <trkpt lat="52.155356" lon="5.867153">
        <ele>87.855583</ele>
        <time>2020-11-05T19:07:28.145Z</time>
      </trkpt>
      <trkpt lat="52.155029" lon="5.866567">
        <ele>86.981241</ele>
        <time>2020-11-05T19:07:41.026Z</time>
      </trkpt>
      <trkpt lat="52.153553" lon="5.864197">
        <ele>83.170218</ele>
        <time>2020-11-05T19:08:35.002Z</time>
      </trkpt>
      <trkpt lat="52.152829" lon="5.863268">
        <ele>82.065312</ele>
        <time>2020-11-05T19:08:59.629Z</time>
      </trkpt>
      <trkpt lat="52.152482" lon="5.862997">
        <ele>81.757135</ele>
        <time>2020-11-05T19:09:10.277Z</time>
      </trkpt>
      <trkpt lat="52.152360" lon="5.863059">
        <ele>81.654783</ele>
        <time>2020-11-05T19:09:13.880Z</time>
      </trkpt>
      <trkpt lat="52.152369" lon="5.863151">
        <ele>81.609002</ele>
        <time>2020-11-05T19:09:15.553Z</time>
      </trkpt>
      <trkpt lat="52.152105" lon="5.863552">
        <ele>81.319971</ele>
        <time>2020-11-05T19:09:26.190Z</time>
      </trkpt>
      <trkpt lat="52.151904" lon="5.863563">
        <ele>81.158897</ele>
        <time>2020-11-05T19:09:32.196Z</time>
      </trkpt>
      <trkpt lat="52.151618" lon="5.863921">
        <ele>80.992350</ele>
        <time>2020-11-05T19:09:42.792Z</time>
      </trkpt>
      <trkpt lat="52.151414" lon="5.864107">
        <ele>80.911950</ele>
        <time>2020-11-05T19:09:49.565Z</time>
      </trkpt>
      <trkpt lat="52.151215" lon="5.864239">
        <ele>80.838052</ele>
        <time>2020-11-05T19:09:55.863Z</time>
      </trkpt>
      <trkpt lat="52.151053" lon="5.864360">
        <ele>80.776759</ele>
        <time>2020-11-05T19:10:01.091Z</time>
      </trkpt>
      <trkpt lat="52.150991" lon="5.864400">
        <ele>80.753824</ele>
        <time>2020-11-05T19:10:05.720Z</time>
      </trkpt>
      <trkpt lat="52.150950" lon="5.864519">
        <ele>80.725022</ele>
        <time>2020-11-05T19:10:08.209Z</time>
      </trkpt>
      <trkpt lat="52.150963" lon="5.864744">
        <ele>80.677328</ele>
        <time>2020-11-05T19:10:12.222Z</time>
      </trkpt>
      <trkpt lat="52.150912" lon="5.864990">
        <ele>80.622528</ele>
        <time>2020-11-05T19:10:16.793Z</time>
      </trkpt>
      <trkpt lat="52.150734" lon="5.865138">
        <ele>80.553797</ele>
        <time>2020-11-05T19:10:22.454Z</time>
      </trkpt>
      <trkpt lat="52.150618" lon="5.865153">
        <ele>80.513774</ele>
        <time>2020-11-05T19:10:25.702Z</time>
      </trkpt>
      <trkpt lat="52.150554" lon="5.865146">
        <ele>80.491711</ele>
        <time>2020-11-05T19:10:27.488Z</time>
      </trkpt>
      <trkpt lat="52.150242" lon="5.864875">
        <ele>80.179475</ele>
        <time>2020-11-05T19:10:37.346Z</time>
      </trkpt>
      <trkpt lat="52.150036" lon="5.864619">
        <ele>79.912756</ele>
        <time>2020-11-05T19:10:44.506Z</time>
      </trkpt>
      <trkpt lat="52.149861" lon="5.864619">
        <ele>79.732580</ele>
        <time>2020-11-05T19:10:49.266Z</time>
      </trkpt>
      <trkpt lat="52.149706" lon="5.864699">
        <ele>79.565183</ele>
        <time>2020-11-05T19:10:53.694Z</time>
      </trkpt>
      <trkpt lat="52.149280" lon="5.864771">
        <ele>79.124230</ele>
        <time>2020-11-05T19:11:05.158Z</time>
      </trkpt>
      <trkpt lat="52.149123" lon="5.864782">
        <ele>78.962437</ele>
        <time>2020-11-05T19:11:09.413Z</time>
      </trkpt>
      <trkpt lat="52.148946" lon="5.864722">
        <ele>78.776301</ele>
        <time>2020-11-05T19:11:14.360Z</time>
      </trkpt>
      <trkpt lat="52.148841" lon="5.864752">
        <ele>78.666546</ele>
        <time>2020-11-05T19:11:17.297Z</time>
      </trkpt>
      <trkpt lat="52.148056" lon="5.864587">
        <ele>78.813451</ele>
        <time>2020-11-05T19:11:39.984Z</time>
      </trkpt>
      <trkpt lat="52.147871" lon="5.864481">
        <ele>78.866307</ele>
        <time>2020-11-05T19:11:46.150Z</time>
      </trkpt>
      <trkpt lat="52.147723" lon="5.864258">
        <ele>78.920636</ele>
        <time>2020-11-05T19:11:52.715Z</time>
      </trkpt>
      <trkpt lat="52.147623" lon="5.864244">
        <ele>78.947688</ele>
        <time>2020-11-05T19:11:56.156Z</time>
      </trkpt>
      <trkpt lat="52.147064" lon="5.864515">
        <ele>79.114834</ele>
        <time>2020-11-05T19:12:16.018Z</time>
      </trkpt>
      <trkpt lat="52.146110" lon="5.864849">
        <ele>79.800543</ele>
        <time>2020-11-05T19:12:49.195Z</time>
      </trkpt>
      <trkpt lat="52.147148" lon="5.869271">
        <ele>80.866123</ele>
        <time>2020-11-05T19:14:17.727Z</time>
      </trkpt>
      <trkpt lat="52.147710" lon="5.871668">
        <ele>81.470310</ele>
        <time>2020-11-05T19:15:06.992Z</time>
      </trkpt>
      <trkpt lat="52.147676" lon="5.871679">
        <ele>81.494350</ele>
        <time>2020-11-05T19:15:08.058Z</time>
      </trkpt>
      <trkpt lat="52.147952" lon="5.872796">
        <ele>82.006787</ele>
        <time>2020-11-05T19:15:23.233Z</time>
      </trkpt>
      <trkpt lat="52.148017" lon="5.873160">
        <ele>82.168115</ele>
        <time>2020-11-05T19:15:28.086Z</time>
      </trkpt>
      <trkpt lat="52.148420" lon="5.876182">
        <ele>83.925691</ele>
        <time>2020-11-05T19:16:07.844Z</time>
      </trkpt>
      <trkpt lat="52.149236" lon="5.882377">
        <ele>89.499496</ele>
        <time>2020-11-05T19:17:41.537Z</time>
      </trkpt>
      <trkpt lat="52.149326" lon="5.883029">
        <ele>90.007797</ele>
        <time>2020-11-05T19:17:50.662Z</time>
      </trkpt>
      <trkpt lat="52.149505" lon="5.884451">
        <ele>90.497450</ele>
        <time>2020-11-05T19:18:08.955Z</time>
      </trkpt>
      <trkpt lat="52.149001" lon="5.884430">
        <ele>90.774605</ele>
        <time>2020-11-05T19:18:19.549Z</time>
      </trkpt>
      <trkpt lat="52.148306" lon="5.884593">
        <ele>91.186712</ele>
        <time>2020-11-05T19:18:33.226Z</time>
      </trkpt>
      <trkpt lat="52.148121" lon="5.884476">
        <ele>91.309143</ele>
        <time>2020-11-05T19:18:37.483Z</time>
      </trkpt>
      <trkpt lat="52.148021" lon="5.884466">
        <ele>91.370955</ele>
        <time>2020-11-05T19:18:39.773Z</time>
      </trkpt>
      <trkpt lat="52.147664" lon="5.884530">
        <ele>91.592540</ele>
        <time>2020-11-05T19:18:47.979Z</time>
      </trkpt>
      <trkpt lat="52.147360" lon="5.884584">
        <ele>91.781207</ele>
        <time>2020-11-05T19:18:55.077Z</time>
      </trkpt>
      <trkpt lat="52.147169" lon="5.884523">
        <ele>91.901288</ele>
        <time>2020-11-05T19:18:59.423Z</time>
      </trkpt>
      <trkpt lat="52.147080" lon="5.884529">
        <ele>91.956245</ele>
        <time>2020-11-05T19:19:01.755Z</time>
      </trkpt>
      <trkpt lat="52.146824" lon="5.884687">
        <ele>92.149720</ele>
        <time>2020-11-05T19:19:08.195Z</time>
      </trkpt>
      <trkpt lat="52.146715" lon="5.884940">
        <ele>92.308871</ele>
        <time>2020-11-05T19:19:13.100Z</time>
      </trkpt>
      <trkpt lat="52.146713" lon="5.885001">
        <ele>92.340320</ele>
        <time>2020-11-05T19:19:13.926Z</time>
      </trkpt>
      <trkpt lat="52.146627" lon="5.885509">
        <ele>92.611627</ele>
        <time>2020-11-05T19:19:21.767Z</time>
      </trkpt>
      <trkpt lat="52.146539" lon="5.885920">
        <ele>92.835735</ele>
        <time>2020-11-05T19:19:28.027Z</time>
      </trkpt>
      <trkpt lat="52.146453" lon="5.886272">
        <ele>93.030793</ele>
        <time>2020-11-05T19:19:33.329Z</time>
      </trkpt>
      <trkpt lat="52.146471" lon="5.886353">
        <ele>93.075146</ele>
        <time>2020-11-05T19:19:34.506Z</time>
      </trkpt>
      <trkpt lat="52.146486" lon="5.886454">
        <ele>93.128645</ele>
        <time>2020-11-05T19:19:36.352Z</time>
      </trkpt>
      <trkpt lat="52.146533" lon="5.886547">
        <ele>93.190673</ele>
        <time>2020-11-05T19:19:38.039Z</time>
      </trkpt>
      <trkpt lat="52.146704" lon="5.886640">
        <ele>93.341917</ele>
        <time>2020-11-05T19:19:41.529Z</time>
      </trkpt>
      <trkpt lat="52.146940" lon="5.886769">
        <ele>93.550759</ele>
        <time>2020-11-05T19:19:46.816Z</time>
      </trkpt>
      <trkpt lat="52.147342" lon="5.887391">
        <ele>93.675150</ele>
        <time>2020-11-05T19:19:56.904Z</time>
      </trkpt>
      <trkpt lat="52.147786" lon="5.888898">
        <ele>93.884199</ele>
        <time>2020-11-05T19:20:15.386Z</time>
      </trkpt>
      <trkpt lat="52.147884" lon="5.889210">
        <ele>93.928029</ele>
        <time>2020-11-05T19:20:19.513Z</time>
      </trkpt>
      <trkpt lat="52.148015" lon="5.889474">
        <ele>94.004969</ele>
        <time>2020-11-05T19:20:23.370Z</time>
      </trkpt>
      <trkpt lat="52.148451" lon="5.890827">
        <ele>94.369065</ele>
        <time>2020-11-05T19:20:41.845Z</time>
      </trkpt>
      <trkpt lat="52.148551" lon="5.891961">
        <ele>94.616115</ele>
        <time>2020-11-05T19:20:55.788Z</time>
      </trkpt>
      <trkpt lat="52.148554" lon="5.892486">
        <ele>94.453710</ele>
        <time>2020-11-05T19:21:01.593Z</time>
      </trkpt>
      <trkpt lat="52.148503" lon="5.893288">
        <ele>94.204300</ele>
        <time>2020-11-05T19:21:09.919Z</time>
      </trkpt>
      <trkpt lat="52.148527" lon="5.893422">
        <ele>94.161120</ele>
        <time>2020-11-05T19:21:11.448Z</time>
      </trkpt>
      <trkpt lat="52.148660" lon="5.893709">
        <ele>94.049870</ele>
        <time>2020-11-05T19:21:15.091Z</time>
      </trkpt>
      <trkpt lat="52.148680" lon="5.893829">
        <ele>94.011406</ele>
        <time>2020-11-05T19:21:16.311Z</time>
      </trkpt>
      <trkpt lat="52.148704" lon="5.893980">
        <ele>93.963156</ele>
        <time>2020-11-05T19:21:17.984Z</time>
      </trkpt>
      <trkpt lat="52.148641" lon="5.894036">
        <ele>93.926980</ele>
        <time>2020-11-05T19:21:19.213Z</time>
      </trkpt>
      <trkpt lat="52.148501" lon="5.894140">
        <ele>93.849418</ele>
        <time>2020-11-05T19:21:21.545Z</time>
      </trkpt>
      <trkpt lat="52.147588" lon="5.895102">
        <ele>92.805474</ele>
        <time>2020-11-05T19:21:38.417Z</time>
      </trkpt>
      <trkpt lat="52.147210" lon="5.895740">
        <ele>92.209304</ele>
        <time>2020-11-05T19:21:46.898Z</time>
      </trkpt>
      <trkpt lat="52.147032" lon="5.896096">
        <ele>91.900603</ele>
        <time>2020-11-05T19:21:51.434Z</time>
      </trkpt>
      <trkpt lat="52.146670" lon="5.896664">
        <ele>91.593182</ele>
        <time>2020-11-05T19:21:59.592Z</time>
      </trkpt>
      <trkpt lat="52.145413" lon="5.898883">
        <ele>90.995572</ele>
        <time>2020-11-05T19:22:31.324Z</time>
      </trkpt>
      <trkpt lat="52.143618" lon="5.900183">
        <ele>91.078365</ele>
        <time>2020-11-05T19:23:07.702Z</time>
      </trkpt>
      <trkpt lat="52.142901" lon="5.900687">
        <ele>91.078685</ele>
        <time>2020-11-05T19:23:21.948Z</time>
      </trkpt>
      <trkpt lat="52.142534" lon="5.900909">
        <ele>91.078846</ele>
        <time>2020-11-05T19:23:28.616Z</time>
      </trkpt>
      <trkpt lat="52.142249" lon="5.901141">
        <ele>91.010272</ele>
        <time>2020-11-05T19:23:33.999Z</time>
      </trkpt>
      <trkpt lat="52.142080" lon="5.901254">
        <ele>90.965655</ele>
        <time>2020-11-05T19:23:37.112Z</time>
      </trkpt>
      <trkpt lat="52.141765" lon="5.901466">
        <ele>90.882414</ele>
        <time>2020-11-05T19:23:42.929Z</time>
      </trkpt>
      <trkpt lat="52.141671" lon="5.901519">
        <ele>90.858120</ele>
        <time>2020-11-05T19:23:44.718Z</time>
      </trkpt>
      <trkpt lat="52.141513" lon="5.901527">
        <ele>90.819511</ele>
        <time>2020-11-05T19:23:47.359Z</time>
      </trkpt>
      <trkpt lat="52.141409" lon="5.901506">
        <ele>90.793915</ele>
        <time>2020-11-05T19:23:49.175Z</time>
      </trkpt>
      <trkpt lat="52.141268" lon="5.901547">
        <ele>90.758933</ele>
        <time>2020-11-05T19:23:51.681Z</time>
      </trkpt>
      <trkpt lat="52.141112" lon="5.901665">
        <ele>90.716926</ele>
        <time>2020-11-05T19:23:54.594Z</time>
      </trkpt>
      <trkpt lat="52.140920" lon="5.901841">
        <ele>90.663120</ele>
        <time>2020-11-05T19:23:58.358Z</time>
      </trkpt>
      <trkpt lat="52.139439" lon="5.902983">
        <ele>90.584426</ele>
        <time>2020-11-05T19:24:27.630Z</time>
      </trkpt>
      <trkpt lat="52.139116" lon="5.903378">
        <ele>90.447975</ele>
        <time>2020-11-05T19:24:35.103Z</time>
      </trkpt>
      <trkpt lat="52.138852" lon="5.903586">
        <ele>90.194448</ele>
        <time>2020-11-05T19:24:40.208Z</time>
      </trkpt>
      <trkpt lat="52.138311" lon="5.904211">
        <ele>89.621079</ele>
        <time>2020-11-05T19:24:51.027Z</time>
      </trkpt>
      <trkpt lat="52.138007" lon="5.904646">
        <ele>89.271284</ele>
        <time>2020-11-05T19:24:57.280Z</time>
      </trkpt>
      <trkpt lat="52.136940" lon="5.906646">
        <ele>86.776623</ele>
        <time>2020-11-05T19:25:21.525Z</time>
      </trkpt>
      <trkpt lat="52.136760" lon="5.906991">
        <ele>86.309921</ele>
        <time>2020-11-05T19:25:25.668Z</time>
      </trkpt>
      <trkpt lat="52.136117" lon="5.908247">
        <ele>85.025478</ele>
        <time>2020-11-05T19:25:41.074Z</time>
      </trkpt>
      <trkpt lat="52.134936" lon="5.910838">
        <ele>82.946809</ele>
        <time>2020-11-05T19:26:12.728Z</time>
      </trkpt>
      <trkpt lat="52.134782" lon="5.911060">
        <ele>82.759187</ele>
        <time>2020-11-05T19:26:15.972Z</time>
      </trkpt>
      <trkpt lat="52.134683" lon="5.911107">
        <ele>82.665101</ele>
        <time>2020-11-05T19:26:17.742Z</time>
      </trkpt>
      <trkpt lat="52.134429" lon="5.911084">
        <ele>82.432988</ele>
        <time>2020-11-05T19:26:21.799Z</time>
      </trkpt>
      <trkpt lat="52.134189" lon="5.910926">
        <ele>82.189016</ele>
        <time>2020-11-05T19:26:26.051Z</time>
      </trkpt>
      <trkpt lat="52.134037" lon="5.910941">
        <ele>82.002268</ele>
        <time>2020-11-05T19:26:28.471Z</time>
      </trkpt>
      <trkpt lat="52.133972" lon="5.910912">
        <ele>81.919620</ele>
        <time>2020-11-05T19:26:29.618Z</time>
      </trkpt>
      <trkpt lat="52.133788" lon="5.910732">
        <ele>81.656414</ele>
        <time>2020-11-05T19:26:32.983Z</time>
      </trkpt>
      <trkpt lat="52.133374" lon="5.910448">
        <ele>81.105528</ele>
        <time>2020-11-05T19:26:40.034Z</time>
      </trkpt>
      <trkpt lat="52.133201" lon="5.910285">
        <ele>80.860441</ele>
        <time>2020-11-05T19:26:43.189Z</time>
      </trkpt>
      <trkpt lat="52.132399" lon="5.909693">
        <ele>79.607977</ele>
        <time>2020-11-05T19:26:56.598Z</time>
      </trkpt>
      <trkpt lat="52.131541" lon="5.909317">
        <ele>77.710885</ele>
        <time>2020-11-05T19:27:09.708Z</time>
      </trkpt>
      <trkpt lat="52.130563" lon="5.908896">
        <ele>75.708444</ele>
        <time>2020-11-05T19:27:23.911Z</time>
      </trkpt>
      <trkpt lat="52.129862" lon="5.908545">
        <ele>74.538725</ele>
        <time>2020-11-05T19:27:34.611Z</time>
      </trkpt>
      <trkpt lat="52.129686" lon="5.908595">
        <ele>74.253768</ele>
        <time>2020-11-05T19:27:37.262Z</time>
      </trkpt>
      <trkpt lat="52.129642" lon="5.908617">
        <ele>74.180357</ele>
        <time>2020-11-05T19:27:38.000Z</time>
      </trkpt>
      <trkpt lat="52.129630" lon="5.908686">
        <ele>74.110138</ele>
        <time>2020-11-05T19:27:39.230Z</time>
      </trkpt>
      <trkpt lat="52.129564" lon="5.908766">
        <ele>73.978923</ele>
        <time>2020-11-05T19:27:41.651Z</time>
      </trkpt>
      <trkpt lat="52.129344" lon="5.908938">
        <ele>73.589702</ele>
        <time>2020-11-05T19:27:48.434Z</time>
      </trkpt>
      <trkpt lat="52.129275" lon="5.909064">
        <ele>73.424376</ele>
        <time>2020-11-05T19:27:51.480Z</time>
      </trkpt>
      <trkpt lat="52.129185" lon="5.909040">
        <ele>73.317750</ele>
        <time>2020-11-05T19:27:54.370Z</time>
      </trkpt>
      <trkpt lat="52.129099" lon="5.908968">
        <ele>73.398155</ele>
        <time>2020-11-05T19:27:56.957Z</time>
      </trkpt>
      <trkpt lat="52.128984" lon="5.908987">
        <ele>73.494274</ele>
        <time>2020-11-05T19:28:00.230Z</time>
      </trkpt>
      <trkpt lat="52.128208" lon="5.909361">
        <ele>74.167210</ele>
        <time>2020-11-05T19:28:25.912Z</time>
      </trkpt>
      <trkpt lat="52.128167" lon="5.909413">
        <ele>74.210419</ele>
        <time>2020-11-05T19:28:28.216Z</time>
      </trkpt>
      <trkpt lat="52.128161" lon="5.909651">
        <ele>74.332017</ele>
        <time>2020-11-05T19:28:33.332Z</time>
      </trkpt>
      <trkpt lat="52.128130" lon="5.909739">
        <ele>74.383811</ele>
        <time>2020-11-05T19:28:35.523Z</time>
      </trkpt>
      <trkpt lat="52.128100" lon="5.909776">
        <ele>74.415101</ele>
        <time>2020-11-05T19:28:36.934Z</time>
      </trkpt>
      <trkpt lat="52.127834" lon="5.909849">
        <ele>74.639411</ele>
        <time>2020-11-05T19:28:46.996Z</time>
      </trkpt>
      <trkpt lat="52.127727" lon="5.909968">
        <ele>74.747147</ele>
        <time>2020-11-05T19:28:51.681Z</time>
      </trkpt>
      <trkpt lat="52.127676" lon="5.910087">
        <ele>74.816087</ele>
        <time>2020-11-05T19:28:55.313Z</time>
      </trkpt>
      <trkpt lat="52.127629" lon="5.910445">
        <ele>74.957444</ele>
        <time>2020-11-05T19:29:03.449Z</time>
      </trkpt>
      <trkpt lat="52.127485" lon="5.910414">
        <ele>75.048802</ele>
        <time>2020-11-05T19:29:08.925Z</time>
      </trkpt>
      <trkpt lat="52.127319" lon="5.910520">
        <ele>75.160946</ele>
        <time>2020-11-05T19:29:15.107Z</time>
      </trkpt>
      <trkpt lat="52.127165" lon="5.910753">
        <ele>75.293143</ele>
        <time>2020-11-05T19:29:22.018Z</time>
      </trkpt>
      <trkpt lat="52.127083" lon="5.910813">
        <ele>75.349682</ele>
        <time>2020-11-05T19:29:24.805Z</time>
      </trkpt>
      <trkpt lat="52.126972" lon="5.910964">
        <ele>75.440641</ele>
        <time>2020-11-05T19:29:29.391Z</time>
      </trkpt>
      <trkpt lat="52.126917" lon="5.911183">
        <ele>75.532006</ele>
        <time>2020-11-05T19:29:33.488Z</time>
      </trkpt>
      <trkpt lat="52.126634" lon="5.911432">
        <ele>75.734309</ele>
        <time>2020-11-05T19:29:42.996Z</time>
      </trkpt>
      <trkpt lat="52.126466" lon="5.911498">
        <ele>75.843005</ele>
        <time>2020-11-05T19:29:48.182Z</time>
      </trkpt>
      <trkpt lat="52.126432" lon="5.911580">
        <ele>75.881213</ele>
        <time>2020-11-05T19:29:50.054Z</time>
      </trkpt>
      <trkpt lat="52.126285" lon="5.911931">
        <ele>75.960470</ele>
        <time>2020-11-05T19:29:57.403Z</time>
      </trkpt>
      <trkpt lat="52.126147" lon="5.912067">
        <ele>75.986378</ele>
        <time>2020-11-05T19:30:02.323Z</time>
      </trkpt>
      <trkpt lat="52.126052" lon="5.912054">
        <ele>76.001691</ele>
        <time>2020-11-05T19:30:04.927Z</time>
      </trkpt>
      <trkpt lat="52.126146" lon="5.912944">
        <ele>76.090744</ele>
        <time>2020-11-05T19:30:21.894Z</time>
      </trkpt>
      <trkpt lat="52.126375" lon="5.913981">
        <ele>76.199418</ele>
        <time>2020-11-05T19:30:42.590Z</time>
      </trkpt>
      <trkpt lat="52.126562" lon="5.914742">
        <ele>76.442516</ele>
        <time>2020-11-05T19:30:58.627Z</time>
      </trkpt>
      <trkpt lat="52.126649" lon="5.916413">
        <ele>77.055425</ele>
        <time>2020-11-05T19:31:33.315Z</time>
      </trkpt>
      <trkpt lat="52.126722" lon="5.916888">
        <ele>77.234385</ele>
        <time>2020-11-05T19:31:42.867Z</time>
      </trkpt>
      <trkpt lat="52.126799" lon="5.917893">
        <ele>76.748788</ele>
        <time>2020-11-05T19:32:00.953Z</time>
      </trkpt>
      <trkpt lat="52.127156" lon="5.920699">
        <ele>74.829084</ele>
        <time>2020-11-05T19:32:47.938Z</time>
      </trkpt>
      <trkpt lat="52.127333" lon="5.922087">
        <ele>73.739924</ele>
        <time>2020-11-05T19:33:11.005Z</time>
      </trkpt>
      <trkpt lat="52.127693" lon="5.924913">
        <ele>73.700335</ele>
        <time>2020-11-05T19:34:02.437Z</time>
      </trkpt>
      <trkpt lat="52.128070" lon="5.927616">
        <ele>76.429365</ele>
        <time>2020-11-05T19:35:06.972Z</time>
      </trkpt>
      <trkpt lat="52.128124" lon="5.927744">
        <ele>76.626345</ele>
        <time>2020-11-05T19:35:10.821Z</time>
      </trkpt>
      <trkpt lat="52.128286" lon="5.928992">
        <ele>78.059231</ele>
        <time>2020-11-05T19:35:41.542Z</time>
      </trkpt>
      <trkpt lat="52.128435" lon="5.930152">
        <ele>79.133086</ele>
        <time>2020-11-05T19:36:08.498Z</time>
      </trkpt>
      <trkpt lat="52.128525" lon="5.930846">
        <ele>79.775806</ele>
        <time>2020-11-05T19:36:23.539Z</time>
      </trkpt>
      <trkpt lat="52.126514" lon="5.931431">
        <ele>80.831025</ele>
        <time>2020-11-05T19:37:25.823Z</time>
      </trkpt>
      <trkpt lat="52.125301" lon="5.931779">
        <ele>81.263211</ele>
        <time>2020-11-05T19:38:05.709Z</time>
      </trkpt>
      <trkpt lat="52.123922" lon="5.932181">
        <ele>80.779731</ele>
        <time>2020-11-05T19:38:46.907Z</time>
      </trkpt>
      <trkpt lat="52.123861" lon="5.932200">
        <ele>80.721366</ele>
        <time>2020-11-05T19:38:48.630Z</time>
      </trkpt>
      <trkpt lat="52.123697" lon="5.930775">
        <ele>79.884845</ele>
        <time>2020-11-05T19:39:02.154Z</time>
      </trkpt>
      <trkpt lat="52.123711" lon="5.930653">
        <ele>79.813234</ele>
        <time>2020-11-05T19:39:03.292Z</time>
      </trkpt>
      <trkpt lat="52.123745" lon="5.930578">
        <ele>79.742793</ele>
        <time>2020-11-05T19:39:04.107Z</time>
      </trkpt>
      <trkpt lat="52.123742" lon="5.930549">
        <ele>79.718828</ele>
        <time>2020-11-05T19:39:04.413Z</time>
      </trkpt>
      <trkpt lat="52.123680" lon="5.930624">
        <ele>79.616322</ele>
        <time>2020-11-05T19:39:06.430Z</time>
      </trkpt>
      <trkpt lat="52.123600" lon="5.930662">
        <ele>79.505714</ele>
        <time>2020-11-05T19:39:08.691Z</time>
      </trkpt>
      <trkpt lat="52.122764" lon="5.930907">
        <ele>78.378272</ele>
        <time>2020-11-05T19:39:31.081Z</time>
      </trkpt>
      <trkpt lat="52.122820" lon="5.931337">
        <ele>78.020058</ele>
        <time>2020-11-05T19:39:38.400Z</time>
      </trkpt>
      <trkpt lat="52.123172" lon="5.934065">
        <ele>76.693827</ele>
        <time>2020-11-05T19:40:27.104Z</time>
      </trkpt>
      <trkpt lat="52.123151" lon="5.934159">
        <ele>76.658623</ele>
        <time>2020-11-05T19:40:28.885Z</time>
      </trkpt>
      <trkpt lat="52.123017" lon="5.934232">
        <ele>76.577631</ele>
        <time>2020-11-05T19:40:32.871Z</time>
      </trkpt>
      <trkpt lat="52.122909" lon="5.934243">
        <ele>76.515604</ele>
        <time>2020-11-05T19:40:35.967Z</time>
      </trkpt>
      <trkpt lat="52.122327" lon="5.934538">
        <ele>76.116030</ele>
        <time>2020-11-05T19:40:53.292Z</time>
      </trkpt>
      <trkpt lat="52.121107" lon="5.935153">
        <ele>75.213329</ele>
        <time>2020-11-05T19:41:29.120Z</time>
      </trkpt>
      <trkpt lat="52.120486" lon="5.935495">
        <ele>75.084170</ele>
        <time>2020-11-05T19:41:47.484Z</time>
      </trkpt>
      <trkpt lat="52.120282" lon="5.935804">
        <ele>75.069974</ele>
        <time>2020-11-05T19:41:55.498Z</time>
      </trkpt>
      <trkpt lat="52.119901" lon="5.935969">
        <ele>75.049885</ele>
        <time>2020-11-05T19:42:07.297Z</time>
      </trkpt>
      <trkpt lat="52.119356" lon="5.936171">
        <ele>75.021404</ele>
        <time>2020-11-05T19:42:25.075Z</time>
      </trkpt>
      <trkpt lat="52.118621" lon="5.936458">
        <ele>75.747654</ele>
        <time>2020-11-05T19:42:49.442Z</time>
      </trkpt>
      <trkpt lat="52.118463" lon="5.936482">
        <ele>75.913307</ele>
        <time>2020-11-05T19:42:54.975Z</time>
      </trkpt>
      <trkpt lat="52.118414" lon="5.936396">
        <ele>75.988508</ele>
        <time>2020-11-05T19:42:57.668Z</time>
      </trkpt>
      <trkpt lat="52.117995" lon="5.935972">
        <ele>76.503466</ele>
        <time>2020-11-05T19:43:14.734Z</time>
      </trkpt>
      <trkpt lat="52.117852" lon="5.935718">
        <ele>76.724356</ele>
        <time>2020-11-05T19:43:22.611Z</time>
      </trkpt>
      <trkpt lat="52.117625" lon="5.934929">
        <ele>76.952426</ele>
        <time>2020-11-05T19:43:40.841Z</time>
      </trkpt>
      <trkpt lat="52.117520" lon="5.934643">
        <ele>76.983533</ele>
        <time>2020-11-05T19:43:47.968Z</time>
      </trkpt>
      <trkpt lat="52.117404" lon="5.934526">
        <ele>77.004277</ele>
        <time>2020-11-05T19:43:51.965Z</time>
      </trkpt>
      <trkpt lat="52.117280" lon="5.934483">
        <ele>77.023551</ele>
        <time>2020-11-05T19:43:55.837Z</time>
      </trkpt>
      <trkpt lat="52.116813" lon="5.933934">
        <ele>77.111114</ele>
        <time>2020-11-05T19:44:12.376Z</time>
      </trkpt>
      <trkpt lat="52.116513" lon="5.933721">
        <ele>77.160869</ele>
        <time>2020-11-05T19:44:21.723Z</time>
      </trkpt>
      <trkpt lat="52.116498" lon="5.933716">
        <ele>77.163196</ele>
        <time>2020-11-05T19:44:22.139Z</time>
      </trkpt>
      <trkpt lat="52.116378" lon="5.933676">
        <ele>77.136812</ele>
        <time>2020-11-05T19:44:25.671Z</time>
      </trkpt>
      <trkpt lat="52.115993" lon="5.933671">
        <ele>76.980711</ele>
        <time>2020-11-05T19:44:36.471Z</time>
      </trkpt>
      <trkpt lat="52.115582" lon="5.933833">
        <ele>76.809262</ele>
        <time>2020-11-05T19:44:48.138Z</time>
      </trkpt>
      <trkpt lat="52.114780" lon="5.934684">
        <ele>76.478569</ele>
        <time>2020-11-05T19:45:15.796Z</time>
      </trkpt>
      <trkpt lat="52.114252" lon="5.935272">
        <ele>76.997253</ele>
        <time>2020-11-05T19:45:36.744Z</time>
      </trkpt>
      <trkpt lat="52.113872" lon="5.935632">
        <ele>77.353738</ele>
        <time>2020-11-05T19:45:51.777Z</time>
      </trkpt>
      <trkpt lat="52.113372" lon="5.935966">
        <ele>77.791963</ele>
        <time>2020-11-05T19:46:11.279Z</time>
      </trkpt>
      <trkpt lat="52.112333" lon="5.936469">
        <ele>77.717982</ele>
        <time>2020-11-05T19:46:45.327Z</time>
      </trkpt>
      <trkpt lat="52.112112" lon="5.936622">
        <ele>77.672388</ele>
        <time>2020-11-05T19:46:52.488Z</time>
      </trkpt>
      <trkpt lat="52.111592" lon="5.937000">
        <ele>77.564270</ele>
        <time>2020-11-05T19:47:07.637Z</time>
      </trkpt>
      <trkpt lat="52.111470" lon="5.937040">
        <ele>77.485480</ele>
        <time>2020-11-05T19:47:11.042Z</time>
      </trkpt>
      <trkpt lat="52.111116" lon="5.937091">
        <ele>77.194321</ele>
        <time>2020-11-05T19:47:20.560Z</time>
      </trkpt>
      <trkpt lat="52.110631" lon="5.937030">
        <ele>76.795786</ele>
        <time>2020-11-05T19:47:33.684Z</time>
      </trkpt>
      <trkpt lat="52.110293" lon="5.937044">
        <ele>76.518779</ele>
        <time>2020-11-05T19:47:42.810Z</time>
      </trkpt>
      <trkpt lat="52.110075" lon="5.937127">
        <ele>76.335358</ele>
        <time>2020-11-05T19:47:49.305Z</time>
      </trkpt>
      <trkpt lat="52.108939" lon="5.937946">
        <ele>77.159890</ele>
        <time>2020-11-05T19:48:29.109Z</time>
      </trkpt>
      <trkpt lat="52.108550" lon="5.938231">
        <ele>77.650779</ele>
        <time>2020-11-05T19:48:45.011Z</time>
      </trkpt>
      <trkpt lat="52.108391" lon="5.938409">
        <ele>77.872832</ele>
        <time>2020-11-05T19:48:52.207Z</time>
      </trkpt>
      <trkpt lat="52.108104" lon="5.939241">
        <ele>78.738364</ele>
        <time>2020-11-05T19:49:14.131Z</time>
      </trkpt>
      <trkpt lat="52.108082" lon="5.939306">
        <ele>78.816277</ele>
        <time>2020-11-05T19:49:15.837Z</time>
      </trkpt>
      <trkpt lat="52.107969" lon="5.939869">
        <ele>79.438076</ele>
        <time>2020-11-05T19:49:29.464Z</time>
      </trkpt>
      <trkpt lat="52.107960" lon="5.940324">
        <ele>79.915985</ele>
        <time>2020-11-05T19:49:39.860Z</time>
      </trkpt>
      <trkpt lat="52.108396" lon="5.944131">
        <ele>83.107213</ele>
        <time>2020-11-05T19:51:04.057Z</time>
      </trkpt>
      <trkpt lat="52.108296" lon="5.944172">
        <ele>83.227513</ele>
        <time>2020-11-05T19:51:07.069Z</time>
      </trkpt>
      <trkpt lat="52.108240" lon="5.944176">
        <ele>83.292905</ele>
        <time>2020-11-05T19:51:08.886Z</time>
      </trkpt>
      <trkpt lat="52.108054" lon="5.944189">
        <ele>83.193830</ele>
        <time>2020-11-05T19:51:14.902Z</time>
      </trkpt>
      <trkpt lat="52.108004" lon="5.944273">
        <ele>83.133481</ele>
        <time>2020-11-05T19:51:16.995Z</time>
      </trkpt>
      <trkpt lat="52.107707" lon="5.946079">
        <ele>82.168937</ele>
        <time>2020-11-05T19:51:48.948Z</time>
      </trkpt>
      <trkpt lat="52.107605" lon="5.947147">
        <ele>81.394123</ele>
        <time>2020-11-05T19:52:06.256Z</time>
      </trkpt>
      <trkpt lat="52.107592" lon="5.947277">
        <ele>81.253839</ele>
        <time>2020-11-05T19:52:08.335Z</time>
      </trkpt>
      <trkpt lat="52.107114" lon="5.947386">
        <ele>80.416828</ele>
        <time>2020-11-05T19:52:21.191Z</time>
      </trkpt>
      <trkpt lat="52.107068" lon="5.947409">
        <ele>80.333380</ele>
        <time>2020-11-05T19:52:22.319Z</time>
      </trkpt>
      <trkpt lat="52.106668" lon="5.947220">
        <ele>79.611103</ele>
        <time>2020-11-05T19:52:33.307Z</time>
      </trkpt>
      <trkpt lat="52.106553" lon="5.948146">
        <ele>78.645424</ele>
        <time>2020-11-05T19:52:42.109Z</time>
      </trkpt>
      <trkpt lat="52.106524" lon="5.948535">
        <ele>78.413271</ele>
        <time>2020-11-05T19:52:45.719Z</time>
      </trkpt>
      <trkpt lat="52.106581" lon="5.949360">
        <ele>77.921422</ele>
        <time>2020-11-05T19:52:53.634Z</time>
      </trkpt>
      <trkpt lat="52.106927" lon="5.951984">
        <ele>76.390326</ele>
        <time>2020-11-05T19:53:21.072Z</time>
      </trkpt>
      <trkpt lat="52.106922" lon="5.952197">
        <ele>76.275852</ele>
        <time>2020-11-05T19:53:23.293Z</time>
      </trkpt>
      <trkpt lat="52.105181" lon="5.951840">
        <ele>74.909399</ele>
        <time>2020-11-05T19:53:50.757Z</time>
      </trkpt>
      <trkpt lat="52.104798" lon="5.951778">
        <ele>74.660177</ele>
        <time>2020-11-05T19:53:56.928Z</time>
      </trkpt>
      <trkpt lat="52.103733" lon="5.951722">
        <ele>74.499993</ele>
        <time>2020-11-05T19:54:15.791Z</time>
      </trkpt>
      <trkpt lat="52.101608" lon="5.951683">
        <ele>76.315083</ele>
        <time>2020-11-05T19:55:02.004Z</time>
      </trkpt>
      <trkpt lat="52.101448" lon="5.951829">
        <ele>76.525481</ele>
        <time>2020-11-05T19:55:06.083Z</time>
      </trkpt>
      <trkpt lat="52.101334" lon="5.952124">
        <ele>76.771055</ele>
        <time>2020-11-05T19:55:10.873Z</time>
      </trkpt>
      <trkpt lat="52.100911" lon="5.951868">
        <ele>77.288716</ele>
        <time>2020-11-05T19:55:21.203Z</time>
      </trkpt>
      <trkpt lat="52.100428" lon="5.951752">
        <ele>77.951700</ele>
        <time>2020-11-05T19:55:32.320Z</time>
      </trkpt>
      <trkpt lat="52.099959" lon="5.951614">
        <ele>78.689527</ele>
        <time>2020-11-05T19:55:43.457Z</time>
      </trkpt>
      <trkpt lat="52.099939" lon="5.951608">
        <ele>78.721010</ele>
        <time>2020-11-05T19:55:44.057Z</time>
      </trkpt>
      <trkpt lat="52.099901" lon="5.951599">
        <ele>78.780457</ele>
        <time>2020-11-05T19:55:45.038Z</time>
      </trkpt>
      <trkpt lat="52.099877" lon="5.951593">
        <ele>78.818047</ele>
        <time>2020-11-05T19:55:45.777Z</time>
      </trkpt>
      <trkpt lat="52.099400" lon="5.951471">
        <ele>79.565552</ele>
        <time>2020-11-05T19:55:57.832Z</time>
      </trkpt>
      <trkpt lat="52.097985" lon="5.951127">
        <ele>81.564925</ele>
        <time>2020-11-05T19:56:32.626Z</time>
      </trkpt>
      <trkpt lat="52.096404" lon="5.950670">
        <ele>83.261642</ele>
        <time>2020-11-05T19:57:07.247Z</time>
      </trkpt>
      <trkpt lat="52.096229" lon="5.950530">
        <ele>83.408112</ele>
        <time>2020-11-05T19:57:11.093Z</time>
      </trkpt>
      <trkpt lat="52.096110" lon="5.950222">
        <ele>83.576014</ele>
        <time>2020-11-05T19:57:15.725Z</time>
      </trkpt>
      <trkpt lat="52.096104" lon="5.949937">
        <ele>83.707609</ele>
        <time>2020-11-05T19:57:21.289Z</time>
      </trkpt>
      <trkpt lat="52.096392" lon="5.946465">
        <ele>85.384718</ele>
        <time>2020-11-05T19:58:31.353Z</time>
      </trkpt>
      <trkpt lat="52.088261" lon="5.944475">
        <ele>93.268081</ele>
        <time>2020-11-05T20:03:09.938Z</time>
      </trkpt>
      <trkpt lat="52.083750" lon="5.943374">
        <ele>91.444625</ele>
        <time>2020-11-05T20:05:19.596Z</time>
      </trkpt>
      <trkpt lat="52.083451" lon="5.943300">
        <ele>91.362910</ele>
        <time>2020-11-05T20:05:28.142Z</time>
      </trkpt>
      <trkpt lat="52.080264" lon="5.942515">
        <ele>90.941480</ele>
        <time>2020-11-05T20:07:02.574Z</time>
      </trkpt>
      <trkpt lat="52.078073" lon="5.942010">
        <ele>92.361561</ele>
        <time>2020-11-05T20:08:15.858Z</time>
      </trkpt>
      <trkpt lat="52.077686" lon="5.941848">
        <ele>92.427135</ele>
        <time>2020-11-05T20:08:28.864Z</time>
      </trkpt>
      <trkpt lat="52.077269" lon="5.941806">
        <ele>92.495695</ele>
        <time>2020-11-05T20:08:41.991Z</time>
      </trkpt>
      <trkpt lat="52.077182" lon="5.941694">
        <ele>92.513900</ele>
        <time>2020-11-05T20:08:45.667Z</time>
      </trkpt>
      <trkpt lat="52.075628" lon="5.934573">
        <ele>87.850540</ele>
        <time>2020-11-05T20:10:52.637Z</time>
      </trkpt>
      <trkpt lat="52.075415" lon="5.933594">
        <ele>87.084938</ele>
        <time>2020-11-05T20:11:09.518Z</time>
      </trkpt>
      <trkpt lat="52.074582" lon="5.929682">
        <ele>85.305418</ele>
        <time>2020-11-05T20:12:20.833Z</time>
      </trkpt>
      <trkpt lat="52.072719" lon="5.921200">
        <ele>87.391665</ele>
        <time>2020-11-05T20:15:17.598Z</time>
      </trkpt>
      <trkpt lat="52.071854" lon="5.917173">
        <ele>85.244653</ele>
        <time>2020-11-05T20:16:28.826Z</time>
      </trkpt>
      <trkpt lat="52.071763" lon="5.916815">
        <ele>85.046167</ele>
        <time>2020-11-05T20:16:35.571Z</time>
      </trkpt>
      <trkpt lat="52.071597" lon="5.915969">
        <ele>84.763637</ele>
        <time>2020-11-05T20:16:51.517Z</time>
      </trkpt>
      <trkpt lat="52.070765" lon="5.912192">
        <ele>84.903896</ele>
        <time>2020-11-05T20:18:10.360Z</time>
      </trkpt>
      <trkpt lat="52.068675" lon="5.902604">
        <ele>80.090809</ele>
        <time>2020-11-05T20:21:02.954Z</time>
      </trkpt>
      <trkpt lat="52.068642" lon="5.902519">
        <ele>80.040366</ele>
        <time>2020-11-05T20:21:04.722Z</time>
      </trkpt>
      <trkpt lat="52.067923" lon="5.902146">
        <ele>80.145502</ele>
        <time>2020-11-05T20:21:27.673Z</time>
      </trkpt>
      <trkpt lat="52.066499" lon="5.901525">
        <ele>80.319433</ele>
        <time>2020-11-05T20:22:14.655Z</time>
      </trkpt>
      <trkpt lat="52.064659" lon="5.900885">
        <ele>79.047823</ele>
        <time>2020-11-05T20:22:49.973Z</time>
      </trkpt>
      <trkpt lat="52.063187" lon="5.899668">
        <ele>75.422276</ele>
        <time>2020-11-05T20:23:16.594Z</time>
      </trkpt>
      <trkpt lat="52.063164" lon="5.899650">
        <ele>75.335097</ele>
        <time>2020-11-05T20:23:17.216Z</time>
      </trkpt>
      <trkpt lat="52.063016" lon="5.899535">
        <ele>74.774869</ele>
        <time>2020-11-05T20:23:21.270Z</time>
      </trkpt>
      <trkpt lat="52.062996" lon="5.899519">
        <ele>74.698742</ele>
        <time>2020-11-05T20:23:21.821Z</time>
      </trkpt>
      <trkpt lat="52.062129" lon="5.898819">
        <ele>71.392658</ele>
        <time>2020-11-05T20:23:45.071Z</time>
      </trkpt>
      <trkpt lat="52.061789" lon="5.898516">
        <ele>70.108879</ele>
        <time>2020-11-05T20:23:54.377Z</time>
      </trkpt>
      <trkpt lat="52.061627" lon="5.898371">
        <ele>69.607248</ele>
        <time>2020-11-05T20:23:58.786Z</time>
      </trkpt>
      <trkpt lat="52.061555" lon="5.898284">
        <ele>69.363920</ele>
        <time>2020-11-05T20:24:01.015Z</time>
      </trkpt>
      <trkpt lat="52.061475" lon="5.898108">
        <ele>68.998854</ele>
        <time>2020-11-05T20:24:04.247Z</time>
      </trkpt>
      <trkpt lat="52.061452" lon="5.898212">
        <ele>68.814511</ele>
        <time>2020-11-05T20:24:05.828Z</time>
      </trkpt>
      <trkpt lat="52.061316" lon="5.898489">
        <ele>68.223260</ele>
        <time>2020-11-05T20:24:11.254Z</time>
      </trkpt>
      <trkpt lat="52.061050" lon="5.899028">
        <ele>67.070460</ele>
        <time>2020-11-05T20:24:21.805Z</time>
      </trkpt>
      <trkpt lat="52.060177" lon="5.900572">
        <ele>65.000920</ele>
        <time>2020-11-05T20:24:56.252Z</time>
      </trkpt>
      <trkpt lat="52.059612" lon="5.901657">
        <ele>64.498130</ele>
        <time>2020-11-05T20:25:22.065Z</time>
      </trkpt>
      <trkpt lat="52.059388" lon="5.902009">
        <ele>64.359137</ele>
        <time>2020-11-05T20:25:31.605Z</time>
      </trkpt>
      <trkpt lat="52.059246" lon="5.902609">
        <ele>64.417219</ele>
        <time>2020-11-05T20:25:43.850Z</time>
      </trkpt>
      <trkpt lat="52.058982" lon="5.903371">
        <ele>64.496236</ele>
        <time>2020-11-05T20:26:00.522Z</time>
      </trkpt>
      <trkpt lat="52.058751" lon="5.903682">
        <ele>64.540298</ele>
        <time>2020-11-05T20:26:09.660Z</time>
      </trkpt>
      <trkpt lat="52.058041" lon="5.904467">
        <ele>64.557909</ele>
        <time>2020-11-05T20:26:34.823Z</time>
      </trkpt>
      <trkpt lat="52.056703" lon="5.906972">
        <ele>64.244859</ele>
        <time>2020-11-05T20:27:34.437Z</time>
      </trkpt>
      <trkpt lat="52.055624" lon="5.908930">
        <ele>63.881106</ele>
        <time>2020-11-05T20:28:22.087Z</time>
      </trkpt>
      <trkpt lat="52.049724" lon="5.919778">
        <ele>58.985062</ele>
        <time>2020-11-05T20:32:35.407Z</time>
      </trkpt>
      <trkpt lat="52.048825" lon="5.921430">
        <ele>57.664082</ele>
        <time>2020-11-05T20:33:11.965Z</time>
      </trkpt>
      <trkpt lat="52.043156" lon="5.931768">
        <ele>57.391648</ele>
        <time>2020-11-05T20:37:25.531Z</time>
      </trkpt>
      <trkpt lat="52.042798" lon="5.932472">
        <ele>57.314073</ele>
        <time>2020-11-05T20:37:41.834Z</time>
      </trkpt>
      <trkpt lat="52.042695" lon="5.932599">
        <ele>57.229243</ele>
        <time>2020-11-05T20:37:45.513Z</time>
      </trkpt>
      <trkpt lat="52.042502" lon="5.932650">
        <ele>57.064071</ele>
        <time>2020-11-05T20:37:51.126Z</time>
      </trkpt>
      <trkpt lat="52.040917" lon="5.931920">
        <ele>55.716097</ele>
        <time>2020-11-05T20:38:36.468Z</time>
      </trkpt>
      <trkpt lat="52.039918" lon="5.931266">
        <ele>55.144129</ele>
        <time>2020-11-05T20:39:06.699Z</time>
      </trkpt>
      <trkpt lat="52.038845" lon="5.930493">
        <ele>55.055737</ele>
        <time>2020-11-05T20:39:41.498Z</time>
      </trkpt>
      <trkpt lat="52.038680" lon="5.930321">
        <ele>55.129049</ele>
        <time>2020-11-05T20:39:47.740Z</time>
      </trkpt>
      <trkpt lat="52.038614" lon="5.930096">
        <ele>55.186401</ele>
        <time>2020-11-05T20:39:52.693Z</time>
      </trkpt>
      <trkpt lat="52.038568" lon="5.929388">
        <ele>55.350200</ele>
        <time>2020-11-05T20:40:07.142Z</time>
      </trkpt>
      <trkpt lat="52.038610" lon="5.929200">
        <ele>55.396218</ele>
        <time>2020-11-05T20:40:11.142Z</time>
      </trkpt>
      <trkpt lat="52.038846" lon="5.928713">
        <ele>55.506723</ele>
        <time>2020-11-05T20:40:23.324Z</time>
      </trkpt>
      <trkpt lat="52.038851" lon="5.928508">
        <ele>55.505662</ele>
        <time>2020-11-05T20:40:27.252Z</time>
      </trkpt>
      <trkpt lat="52.038808" lon="5.928447">
        <ele>55.505183</ele>
        <time>2020-11-05T20:40:29.048Z</time>
      </trkpt>
      <trkpt lat="52.038532" lon="5.928449">
        <ele>55.502864</ele>
        <time>2020-11-05T20:40:37.566Z</time>
      </trkpt>
      <trkpt lat="52.038347" lon="5.928450">
        <ele>55.501309</ele>
        <time>2020-11-05T20:40:43.188Z</time>
      </trkpt>
      <trkpt lat="52.038187" lon="5.928462">
        <ele>55.499963</ele>
        <time>2020-11-05T20:40:46.912Z</time>
      </trkpt>
      <trkpt lat="52.038176" lon="5.928106">
        <ele>55.498121</ele>
        <time>2020-11-05T20:40:50.792Z</time>
      </trkpt>
      <trkpt lat="52.038128" lon="5.927853">
        <ele>55.496752</ele>
        <time>2020-11-05T20:40:53.600Z</time>
      </trkpt>
      <trkpt lat="52.038115" lon="5.927720">
        <ele>55.496056</ele>
        <time>2020-11-05T20:40:55.030Z</time>
      </trkpt>
      <trkpt lat="52.038112" lon="5.927596">
        <ele>55.495414</ele>
        <time>2020-11-05T20:40:56.381Z</time>
      </trkpt>
      <trkpt lat="52.038153" lon="5.927308">
        <ele>55.493886</ele>
        <time>2020-11-05T20:40:59.492Z</time>
      </trkpt>
      <trkpt lat="52.037969" lon="5.927315">
        <ele>55.492340</ele>
        <time>2020-11-05T20:41:04.803Z</time>
      </trkpt>
      <trkpt lat="52.037660" lon="5.927332">
        <ele>55.215573</ele>
        <time>2020-11-05T20:41:13.587Z</time>
      </trkpt>
      <trkpt lat="52.036706" lon="5.927384">
        <ele>54.352868</ele>
        <time>2020-11-05T20:41:39.995Z</time>
      </trkpt>
      <trkpt lat="52.036505" lon="5.927469">
        <ele>54.165159</ele>
        <time>2020-11-05T20:41:45.665Z</time>
      </trkpt>
      <trkpt lat="52.036196" lon="5.927715">
        <ele>53.848014</ele>
        <time>2020-11-05T20:41:55.088Z</time>
      </trkpt>
      <trkpt lat="52.036018" lon="5.927985">
        <ele>53.519340</ele>
        <time>2020-11-05T20:42:01.765Z</time>
      </trkpt>
      <trkpt lat="52.035873" lon="5.928303">
        <ele>53.190604</ele>
        <time>2020-11-05T20:42:08.302Z</time>
      </trkpt>
      <trkpt lat="52.035758" lon="5.928440">
        <ele>52.998123</ele>
        <time>2020-11-05T20:42:12.118Z</time>
      </trkpt>
      <trkpt lat="52.035654" lon="5.928470">
        <ele>52.855526</ele>
        <time>2020-11-05T20:42:14.860Z</time>
      </trkpt>
      <trkpt lat="52.035370" lon="5.928404">
        <ele>52.468219</ele>
        <time>2020-11-05T20:42:22.454Z</time>
      </trkpt>
      <trkpt lat="52.034776" lon="5.928138">
        <ele>51.636429</ele>
        <time>2020-11-05T20:42:39.016Z</time>
      </trkpt>
      <trkpt lat="52.034064" lon="5.927872">
        <ele>50.856899</ele>
        <time>2020-11-05T20:42:59.174Z</time>
      </trkpt>
      <trkpt lat="52.033105" lon="5.927523">
        <ele>49.878120</ele>
        <time>2020-11-05T20:43:26.309Z</time>
      </trkpt>
      <trkpt lat="52.032936" lon="5.927431">
        <ele>49.700613</ele>
        <time>2020-11-05T20:43:31.218Z</time>
      </trkpt>
      <trkpt lat="52.032721" lon="5.927207">
        <ele>49.478592</ele>
        <time>2020-11-05T20:43:38.376Z</time>
      </trkpt>
      <trkpt lat="52.032556" lon="5.927141">
        <ele>49.336593</ele>
        <time>2020-11-05T20:43:43.258Z</time>
      </trkpt>
      <trkpt lat="52.032526" lon="5.927142">
        <ele>49.311517</ele>
        <time>2020-11-05T20:43:44.107Z</time>
      </trkpt>
      <trkpt lat="52.032281" lon="5.927145">
        <ele>49.106773</ele>
        <time>2020-11-05T20:43:51.054Z</time>
      </trkpt>
      <trkpt lat="52.030366" lon="5.926456">
        <ele>47.673439</ele>
        <time>2020-11-05T20:44:45.442Z</time>
      </trkpt>
      <trkpt lat="52.028924" lon="5.925784">
        <ele>47.193474</ele>
        <time>2020-11-05T20:45:28.867Z</time>
      </trkpt>
      <trkpt lat="52.027743" lon="5.925383">
        <ele>47.418665</ele>
        <time>2020-11-05T20:46:06.303Z</time>
      </trkpt>
      <trkpt lat="52.027261" lon="5.925142">
        <ele>47.663804</ele>
        <time>2020-11-05T20:46:22.606Z</time>
      </trkpt>
      <trkpt lat="52.025845" lon="5.924302">
        <ele>48.474079</ele>
        <time>2020-11-05T20:47:10.520Z</time>
      </trkpt>
      <trkpt lat="52.024710" lon="5.923705">
        <ele>49.037997</ele>
        <time>2020-11-05T20:47:48.183Z</time>
      </trkpt>
      <trkpt lat="52.024040" lon="5.923398">
        <ele>49.395398</ele>
        <time>2020-11-05T20:48:10.100Z</time>
      </trkpt>
      <trkpt lat="52.023894" lon="5.923389">
        <ele>49.483110</ele>
        <time>2020-11-05T20:48:14.755Z</time>
      </trkpt>
      <trkpt lat="52.023593" lon="5.923473">
        <ele>49.666455</ele>
        <time>2020-11-05T20:48:24.573Z</time>
      </trkpt>
      <trkpt lat="52.023268" lon="5.923442">
        <ele>49.861899</ele>
        <time>2020-11-05T20:48:35.145Z</time>
      </trkpt>
      <trkpt lat="52.021871" lon="5.923022">
        <ele>50.554434</ele>
        <time>2020-11-05T20:49:20.804Z</time>
      </trkpt>
      <trkpt lat="52.020991" lon="5.922700">
        <ele>50.863097</ele>
        <time>2020-11-05T20:49:48.054Z</time>
      </trkpt>
      <trkpt lat="52.019669" lon="5.921880">
        <ele>51.646029</ele>
        <time>2020-11-05T20:50:31.483Z</time>
      </trkpt>
      <trkpt lat="52.018487" lon="5.921298">
        <ele>52.953350</ele>
        <time>2020-11-05T20:51:14.068Z</time>
      </trkpt>
      <trkpt lat="52.018337" lon="5.921147">
        <ele>53.231807</ele>
        <time>2020-11-05T20:51:20.608Z</time>
      </trkpt>
      <trkpt lat="52.018261" lon="5.920907">
        <ele>53.493936</ele>
        <time>2020-11-05T20:51:26.746Z</time>
      </trkpt>
      <trkpt lat="52.018206" lon="5.920109">
        <ele>54.273777</ele>
        <time>2020-11-05T20:51:45.125Z</time>
      </trkpt>
      <trkpt lat="52.018174" lon="5.919626">
        <ele>54.745565</ele>
        <time>2020-11-05T20:51:56.088Z</time>
      </trkpt>
      <trkpt lat="52.018161" lon="5.919411">
        <ele>54.918086</ele>
        <time>2020-11-05T20:51:59.406Z</time>
      </trkpt>
      <trkpt lat="52.018122" lon="5.919244">
        <ele>55.002548</ele>
        <time>2020-11-05T20:52:01.984Z</time>
      </trkpt>
      <trkpt lat="52.017606" lon="5.918342">
        <ele>55.584879</ele>
        <time>2020-11-05T20:52:19.442Z</time>
      </trkpt>
      <trkpt lat="52.017535" lon="5.918206">
        <ele>55.669210</ele>
        <time>2020-11-05T20:52:21.804Z</time>
      </trkpt>
      <trkpt lat="52.017506" lon="5.918070">
        <ele>55.737271</ele>
        <time>2020-11-05T20:52:23.710Z</time>
      </trkpt>
      <trkpt lat="52.017499" lon="5.918041">
        <ele>55.752001</ele>
        <time>2020-11-05T20:52:24.128Z</time>
      </trkpt>
      <trkpt lat="52.017390" lon="5.917232">
        <ele>56.143608</ele>
        <time>2020-11-05T20:52:33.686Z</time>
      </trkpt>
      <trkpt lat="52.017379" lon="5.916938">
        <ele>56.245617</ele>
        <time>2020-11-05T20:52:36.850Z</time>
      </trkpt>
      <trkpt lat="52.017846" lon="5.913466">
        <ele>54.174857</ele>
        <time>2020-11-05T20:53:11.872Z</time>
      </trkpt>
      <trkpt lat="52.017976" lon="5.912447">
        <ele>53.182356</ele>
        <time>2020-11-05T20:53:21.429Z</time>
      </trkpt>
      <trkpt lat="52.018200" lon="5.910780">
        <ele>51.631559</ele>
        <time>2020-11-05T20:53:37.095Z</time>
      </trkpt>
      <trkpt lat="52.018247" lon="5.910474">
        <ele>51.379606</ele>
        <time>2020-11-05T20:53:39.975Z</time>
      </trkpt>
      <trkpt lat="52.018335" lon="5.910248">
        <ele>51.165959</ele>
        <time>2020-11-05T20:53:42.518Z</time>
      </trkpt>
      <trkpt lat="52.018789" lon="5.909448">
        <ele>50.296616</ele>
        <time>2020-11-05T20:53:52.921Z</time>
      </trkpt>
      <trkpt lat="52.018878" lon="5.909243">
        <ele>50.096199</ele>
        <time>2020-11-05T20:53:55.400Z</time>
      </trkpt>
      <trkpt lat="52.018934" lon="5.908982">
        <ele>49.875389</ele>
        <time>2020-11-05T20:53:57.980Z</time>
      </trkpt>
      <trkpt lat="52.019137" lon="5.907571">
        <ele>49.075232</ele>
        <time>2020-11-05T20:54:12.706Z</time>
      </trkpt>
      <trkpt lat="52.019158" lon="5.907050">
        <ele>48.811257</ele>
        <time>2020-11-05T20:54:17.949Z</time>
      </trkpt>
      <trkpt lat="52.019067" lon="5.906610">
        <ele>48.576571</ele>
        <time>2020-11-05T20:54:22.755Z</time>
      </trkpt>
      <trkpt lat="52.018941" lon="5.905946">
        <ele>48.225263</ele>
        <time>2020-11-05T20:54:30.070Z</time>
      </trkpt>
      <trkpt lat="52.018901" lon="5.905734">
        <ele>48.065582</ele>
        <time>2020-11-05T20:54:32.423Z</time>
      </trkpt>
      <trkpt lat="52.018897" lon="5.905452">
        <ele>47.855510</ele>
        <time>2020-11-05T20:54:35.265Z</time>
      </trkpt>
      <trkpt lat="52.019881" lon="5.899056">
        <ele>43.032329</ele>
        <time>2020-11-05T20:55:40.918Z</time>
      </trkpt>
      <trkpt lat="52.020175" lon="5.897327">
        <ele>42.107369</ele>
        <time>2020-11-05T20:55:59.849Z</time>
      </trkpt>
      <trkpt lat="52.020851" lon="5.893442">
        <ele>41.895360</ele>
        <time>2020-11-05T20:56:44.873Z</time>
      </trkpt>
      <trkpt lat="52.020997" lon="5.892678">
        <ele>42.054261</ele>
        <time>2020-11-05T20:56:54.810Z</time>
      </trkpt>
      <trkpt lat="52.021000" lon="5.892479">
        <ele>42.093800</ele>
        <time>2020-11-05T20:56:57.374Z</time>
      </trkpt>
      <trkpt lat="52.020985" lon="5.892375">
        <ele>42.115017</ele>
        <time>2020-11-05T20:56:58.745Z</time>
      </trkpt>
      <trkpt lat="52.020420" lon="5.892559">
        <ele>42.509567</ele>
        <time>2020-11-05T20:57:10.930Z</time>
      </trkpt>
      <trkpt lat="52.017351" lon="5.893532">
        <ele>46.788290</ele>
        <time>2020-11-05T20:58:25.007Z</time>
      </trkpt>
      <trkpt lat="52.016216" lon="5.893897">
        <ele>48.259232</ele>
        <time>2020-11-05T20:58:50.597Z</time>
      </trkpt>
      <trkpt lat="52.015599" lon="5.894096">
        <ele>49.035184</ele>
        <time>2020-11-05T20:59:05.203Z</time>
      </trkpt>
      <trkpt lat="52.015554" lon="5.894106">
        <ele>49.091211</ele>
        <time>2020-11-05T20:59:06.238Z</time>
      </trkpt>
      <trkpt lat="52.015452" lon="5.894138">
        <ele>49.219357</ele>
        <time>2020-11-05T20:59:08.679Z</time>
      </trkpt>
      <trkpt lat="52.014916" lon="5.894308">
        <ele>49.731757</ele>
        <time>2020-11-05T20:59:21.550Z</time>
      </trkpt>
      <trkpt lat="52.014775" lon="5.894352">
        <ele>49.853411</ele>
        <time>2020-11-05T20:59:24.577Z</time>
      </trkpt>
      <trkpt lat="52.014655" lon="5.894391">
        <ele>49.957102</ele>
        <time>2020-11-05T20:59:27.193Z</time>
      </trkpt>
      <trkpt lat="52.014662" lon="5.894276">
        <ele>50.017365</ele>
        <time>2020-11-05T20:59:28.794Z</time>
      </trkpt>
      <trkpt lat="52.014684" lon="5.894254">
        <ele>50.039253</ele>
        <time>2020-11-05T20:59:29.356Z</time>
      </trkpt>
      <trkpt lat="52.014730" lon="5.894222">
        <ele>50.081651</ele>
        <time>2020-11-05T20:59:30.366Z</time>
      </trkpt>
      <trkpt lat="52.014556" lon="5.893089">
        <ele>50.690608</ele>
        <time>2020-11-05T20:59:46.192Z</time>
      </trkpt>
      <trkpt lat="52.014568" lon="5.890812">
        <ele>50.559579</ele>
        <time>2020-11-05T21:00:12.388Z</time>
      </trkpt>
      <trkpt lat="52.014602" lon="5.890158">
        <ele>50.439508</ele>
        <time>2020-11-05T21:00:19.038Z</time>
      </trkpt>
      <trkpt lat="52.014671" lon="5.887336">
        <ele>49.069592</ele>
        <time>2020-11-05T21:00:48.216Z</time>
      </trkpt>
      <trkpt lat="52.014716" lon="5.887135">
        <ele>48.955357</ele>
        <time>2020-11-05T21:00:50.434Z</time>
      </trkpt>
      <trkpt lat="52.014757" lon="5.887164">
        <ele>48.916553</ele>
        <time>2020-11-05T21:00:51.731Z</time>
      </trkpt>
      <trkpt lat="52.014992" lon="5.886942">
        <ele>48.683620</ele>
        <time>2020-11-05T21:00:59.348Z</time>
      </trkpt>
      <trkpt lat="52.015029" lon="5.886885">
        <ele>48.640415</ele>
        <time>2020-11-05T21:01:00.773Z</time>
      </trkpt>
      <trkpt lat="52.015069" lon="5.886728">
        <ele>48.551799</ele>
        <time>2020-11-05T21:01:03.748Z</time>
      </trkpt>
      <trkpt lat="52.015060" lon="5.886348">
        <ele>48.353477</ele>
        <time>2020-11-05T21:01:10.214Z</time>
      </trkpt>
      <trkpt lat="52.015027" lon="5.885055">
        <ele>47.678579</ele>
        <time>2020-11-05T21:01:32.366Z</time>
      </trkpt>
      <trkpt lat="52.014992" lon="5.885057">
        <ele>47.648903</ele>
        <time>2020-11-05T21:01:33.352Z</time>
      </trkpt>
      <trkpt lat="52.014944" lon="5.883475">
        <ele>46.743841</ele>
        <time>2020-11-05T21:01:49.718Z</time>
      </trkpt>
      <trkpt lat="52.014879" lon="5.883067">
        <ele>46.486253</ele>
        <time>2020-11-05T21:01:54.035Z</time>
      </trkpt>
      <trkpt lat="52.014835" lon="5.881635">
        <ele>45.609926</ele>
        <time>2020-11-05T21:02:08.584Z</time>
      </trkpt>
      <trkpt lat="52.014792" lon="5.879969">
        <ele>44.689803</ele>
        <time>2020-11-05T21:02:25.736Z</time>
      </trkpt>
      <trkpt lat="52.014752" lon="5.878477">
        <ele>43.884956</ele>
        <time>2020-11-05T21:02:41.287Z</time>
      </trkpt>
      <trkpt lat="52.014734" lon="5.877555">
        <ele>43.525421</ele>
        <time>2020-11-05T21:02:51.084Z</time>
      </trkpt>
      <trkpt lat="52.014737" lon="5.877486">
        <ele>43.498460</ele>
        <time>2020-11-05T21:02:51.846Z</time>
      </trkpt>
      <trkpt lat="52.014801" lon="5.877383">
        <ele>43.441414</ele>
        <time>2020-11-05T21:02:53.457Z</time>
      </trkpt>
      <trkpt lat="52.014869" lon="5.877272">
        <ele>43.380373</ele>
        <time>2020-11-05T21:02:55.153Z</time>
      </trkpt>
      <trkpt lat="52.014854" lon="5.876365">
        <ele>43.026738</ele>
        <time>2020-11-05T21:03:04.809Z</time>
      </trkpt>
      <trkpt lat="52.014833" lon="5.876253">
        <ele>42.981104</ele>
        <time>2020-11-05T21:03:06.073Z</time>
      </trkpt>
      <trkpt lat="52.014749" lon="5.875964">
        <ele>42.856536</ele>
        <time>2020-11-05T21:03:09.344Z</time>
      </trkpt>
      <trkpt lat="52.014006" lon="5.876309">
        <ele>42.537194</ele>
        <time>2020-11-05T21:03:26.227Z</time>
      </trkpt>
      <trkpt lat="52.013916" lon="5.876350">
        <ele>42.503215</ele>
        <time>2020-11-05T21:03:28.283Z</time>
      </trkpt>
      <trkpt lat="52.013550" lon="5.874723">
        <ele>42.115634</ele>
        <time>2020-11-05T21:03:52.075Z</time>
      </trkpt>
      <trkpt lat="52.013104" lon="5.872807">
        <ele>43.810710</ele>
        <time>2020-11-05T21:04:28.445Z</time>
      </trkpt>
      <trkpt lat="52.013098" lon="5.872664">
        <ele>43.930365</ele>
        <time>2020-11-05T21:04:31.258Z</time>
      </trkpt>
      <trkpt lat="52.012997" lon="5.872218">
        <ele>44.327095</ele>
        <time>2020-11-05T21:04:38.345Z</time>
      </trkpt>
      <trkpt lat="52.012965" lon="5.872141">
        <ele>44.404657</ele>
        <time>2020-11-05T21:04:40.253Z</time>
      </trkpt>
      <trkpt lat="52.012920" lon="5.872078">
        <ele>44.485226</ele>
        <time>2020-11-05T21:04:41.890Z</time>
      </trkpt>
      <trkpt lat="52.013394" lon="5.871952">
        <ele>44.761713</ele>
        <time>2020-11-05T21:04:54.178Z</time>
      </trkpt>
      <trkpt lat="52.013884" lon="5.871634">
        <ele>45.018351</ele>
        <time>2020-11-05T21:05:07.522Z</time>
      </trkpt>
      <trkpt lat="52.014339" lon="5.871173">
        <ele>45.279158</ele>
        <time>2020-11-05T21:05:18.024Z</time>
      </trkpt>
      <trkpt lat="52.014759" lon="5.870654">
        <ele>44.746073</ele>
        <time>2020-11-05T21:05:26.131Z</time>
      </trkpt>
      <trkpt lat="52.015097" lon="5.870176">
        <ele>43.383519</ele>
        <time>2020-11-05T21:05:32.514Z</time>
      </trkpt>
      <trkpt lat="52.015124" lon="5.870242">
        <ele>43.235207</ele>
        <time>2020-11-05T21:05:33.729Z</time>
      </trkpt>
      <trkpt lat="52.015154" lon="5.870306">
        <ele>43.084651</ele>
        <time>2020-11-05T21:05:34.921Z</time>
      </trkpt>
      <trkpt lat="52.015227" lon="5.870469">
        <ele>42.707390</ele>
        <time>2020-11-05T21:05:37.909Z</time>
      </trkpt>
      <trkpt lat="52.015341" lon="5.870713">
        <ele>42.134087</ele>
        <time>2020-11-05T21:05:42.493Z</time>
      </trkpt>
      <trkpt lat="52.015582" lon="5.871269">
        <ele>40.861411</ele>
        <time>2020-11-05T21:05:52.583Z</time>
      </trkpt>
      <trkpt lat="52.015842" lon="5.871850">
        <ele>39.800124</ele>
        <time>2020-11-05T21:06:03.283Z</time>
      </trkpt>
      <trkpt lat="52.016350" lon="5.871680">
        <ele>39.236207</ele>
        <time>2020-11-05T21:06:16.325Z</time>
      </trkpt>
      <trkpt lat="52.016978" lon="5.871469">
        <ele>38.538968</ele>
        <time>2020-11-05T21:06:33.302Z</time>
      </trkpt>
      <trkpt lat="52.021470" lon="5.870015">
        <ele>45.677299</ele>
        <time>2020-11-05T21:09:27.597Z</time>
      </trkpt>
      <trkpt lat="52.021498" lon="5.870000">
        <ele>45.700085</ele>
        <time>2020-11-05T21:09:28.674Z</time>
      </trkpt>
      <trkpt lat="52.021339" lon="5.867982">
        <ele>46.667679</ele>
        <time>2020-11-05T21:09:54.602Z</time>
      </trkpt>
      <trkpt lat="52.021244" lon="5.866778">
        <ele>45.751998</ele>
        <time>2020-11-05T21:10:06.813Z</time>
      </trkpt>
      <trkpt lat="52.021234" lon="5.866675">
        <ele>45.668334</ele>
        <time>2020-11-05T21:10:08.468Z</time>
      </trkpt>
      <trkpt lat="52.021226" lon="5.866595">
        <ele>45.603305</ele>
        <time>2020-11-05T21:10:09.753Z</time>
      </trkpt>
      <trkpt lat="52.021170" lon="5.865963">
        <ele>45.090994</ele>
        <time>2020-11-05T21:10:20.159Z</time>
      </trkpt>
      <trkpt lat="52.021119" lon="5.865718">
        <ele>44.883477</ele>
        <time>2020-11-05T21:10:24.484Z</time>
      </trkpt>
      <trkpt lat="52.021027" lon="5.865398">
        <ele>44.600088</ele>
        <time>2020-11-05T21:10:30.078Z</time>
      </trkpt>
      <trkpt lat="52.020722" lon="5.864338">
        <ele>43.794442</ele>
        <time>2020-11-05T21:10:49.171Z</time>
      </trkpt>
      <trkpt lat="52.019940" lon="5.861700">
        <ele>42.002266</ele>
        <time>2020-11-05T21:11:39.783Z</time>
      </trkpt>
      <trkpt lat="52.019929" lon="5.861638">
        <ele>41.968047</ele>
        <time>2020-11-05T21:11:40.786Z</time>
      </trkpt>
      <trkpt lat="52.019865" lon="5.861537">
        <ele>41.891164</ele>
        <time>2020-11-05T21:11:43.290Z</time>
      </trkpt>
      <trkpt lat="52.019390" lon="5.860893">
        <ele>41.358054</ele>
        <time>2020-11-05T21:12:00.325Z</time>
      </trkpt>
      <trkpt lat="52.019282" lon="5.860804">
        <ele>41.253697</ele>
        <time>2020-11-05T21:12:03.682Z</time>
      </trkpt>
      <trkpt lat="52.019013" lon="5.860707">
        <ele>41.016240</ele>
        <time>2020-11-05T21:12:11.262Z</time>
      </trkpt>
      <trkpt lat="52.018963" lon="5.860709">
        <ele>40.973138</ele>
        <time>2020-11-05T21:12:12.694Z</time>
      </trkpt>
      <trkpt lat="52.018937" lon="5.860719">
        <ele>40.950113</ele>
        <time>2020-11-05T21:12:13.447Z</time>
      </trkpt>
      <trkpt lat="52.018720" lon="5.860862">
        <ele>40.880561</ele>
        <time>2020-11-05T21:12:20.017Z</time>
      </trkpt>
      <trkpt lat="52.017954" lon="5.861368">
        <ele>40.763786</ele>
        <time>2020-11-05T21:12:43.763Z</time>
      </trkpt>
      <trkpt lat="52.017509" lon="5.861626">
        <ele>40.697060</ele>
        <time>2020-11-05T21:12:57.767Z</time>
      </trkpt>
      <trkpt lat="52.017041" lon="5.861897">
        <ele>40.910988</ele>
        <time>2020-11-05T21:13:13.842Z</time>
      </trkpt>
      <trkpt lat="52.016833" lon="5.862076">
        <ele>41.247025</ele>
        <time>2020-11-05T21:13:21.709Z</time>
      </trkpt>
      <trkpt lat="52.016660" lon="5.862341">
        <ele>41.586465</ele>
        <time>2020-11-05T21:13:29.609Z</time>
      </trkpt>
      <trkpt lat="52.016441" lon="5.862786">
        <ele>42.087103</ele>
        <time>2020-11-05T21:13:42.211Z</time>
      </trkpt>
      <trkpt lat="52.016175" lon="5.863213">
        <ele>42.620944</ele>
        <time>2020-11-05T21:13:56.470Z</time>
      </trkpt>
      <trkpt lat="52.015978" lon="5.863529">
        <ele>43.016163</ele>
        <time>2020-11-05T21:14:06.824Z</time>
      </trkpt>
      <trkpt lat="52.015588" lon="5.864022">
        <ele>43.862117</ele>
        <time>2020-11-05T21:14:24.914Z</time>
      </trkpt>
      <trkpt lat="52.015440" lon="5.864222">
        <ele>44.213976</ele>
        <time>2020-11-05T21:14:31.918Z</time>
      </trkpt>
      <trkpt lat="52.015077" lon="5.864666">
        <ele>45.044478</ele>
        <time>2020-11-05T21:14:48.253Z</time>
      </trkpt>
      <trkpt lat="52.013563" lon="5.866514">
        <ele>48.952807</ele>
        <time>2020-11-05T21:15:59.535Z</time>
      </trkpt>
      <trkpt lat="52.013476" lon="5.866620">
        <ele>49.196055</ele>
        <time>2020-11-05T21:16:04.421Z</time>
      </trkpt>
      <trkpt lat="52.012346" lon="5.868757">
        <ele>53.757830</ele>
        <time>2020-11-05T21:17:12.663Z</time>
      </trkpt>
      <trkpt lat="52.012328" lon="5.868788">
        <ele>53.832259</ele>
        <time>2020-11-05T21:17:13.723Z</time>
      </trkpt>
      <trkpt lat="52.012278" lon="5.868876">
        <ele>54.041421</ele>
        <time>2020-11-05T21:17:16.676Z</time>
      </trkpt>
      <trkpt lat="52.012162" lon="5.869049">
        <ele>54.488216</ele>
        <time>2020-11-05T21:17:21.869Z</time>
      </trkpt>
      <trkpt lat="52.011958" lon="5.869235">
        <ele>55.151984</ele>
        <time>2020-11-05T21:17:29.360Z</time>
      </trkpt>
      <trkpt lat="52.011767" lon="5.869310">
        <ele>55.742396</ele>
        <time>2020-11-05T21:17:36.107Z</time>
      </trkpt>
      <trkpt lat="52.011453" lon="5.869357">
        <ele>57.031644</ele>
        <time>2020-11-05T21:17:47.542Z</time>
      </trkpt>
      <trkpt lat="52.011262" lon="5.869351">
        <ele>57.812706</ele>
        <time>2020-11-05T21:17:54.784Z</time>
      </trkpt>
      <trkpt lat="52.011116" lon="5.869296">
        <ele>58.425474</ele>
        <time>2020-11-05T21:18:00.551Z</time>
      </trkpt>
      <trkpt lat="52.011094" lon="5.869284">
        <ele>58.520357</ele>
        <time>2020-11-05T21:18:01.275Z</time>
      </trkpt>
      <trkpt lat="52.010978" lon="5.869206">
        <ele>59.033646</ele>
        <time>2020-11-05T21:18:05.309Z</time>
      </trkpt>
      <trkpt lat="52.010908" lon="5.869190">
        <ele>59.322665</ele>
        <time>2020-11-05T21:18:07.733Z</time>
      </trkpt>
      <trkpt lat="52.010809" lon="5.869171">
        <ele>59.730248</ele>
        <time>2020-11-05T21:18:11.285Z</time>
      </trkpt>
      <trkpt lat="52.009995" lon="5.869058">
        <ele>63.037033</ele>
        <time>2020-11-05T21:18:41.832Z</time>
      </trkpt>
      <trkpt lat="52.009739" lon="5.869015">
        <ele>63.657778</ele>
        <time>2020-11-05T21:18:51.869Z</time>
      </trkpt>
      <trkpt lat="52.009816" lon="5.868972">
        <ele>63.854162</ele>
        <time>2020-11-05T21:18:55.603Z</time>
      </trkpt>
      <trkpt lat="52.010105" lon="5.868969">
        <ele>64.551223</ele>
        <time>2020-11-05T21:19:15.700Z</time>
      </trkpt>
      <trkpt lat="52.009816" lon="5.868972">
        <ele>65.248285</ele>
        <time>2020-11-05T21:19:35.792Z</time>
      </trkpt>
      <trkpt lat="52.009739" lon="5.869015">
        <ele>65.444669</ele>
        <time>2020-11-05T21:19:39.090Z</time>
      </trkpt>
      <trkpt lat="52.009038" lon="5.868819">
        <ele>67.160287</ele>
        <time>2020-11-05T21:19:56.105Z</time>
      </trkpt>
      <trkpt lat="52.008868" lon="5.868625">
        <ele>67.109527</ele>
        <time>2020-11-05T21:19:59.727Z</time>
      </trkpt>
      <trkpt lat="52.008815" lon="5.868607">
        <ele>67.024504</ele>
        <time>2020-11-05T21:20:00.735Z</time>
      </trkpt>
      <trkpt lat="52.008739" lon="5.868118">
        <ele>66.537019</ele>
        <time>2020-11-05T21:20:05.817Z</time>
      </trkpt>
      <trkpt lat="52.008640" lon="5.867772">
        <ele>66.168221</ele>
        <time>2020-11-05T21:20:09.730Z</time>
      </trkpt>
      <trkpt lat="52.008307" lon="5.866841">
        <ele>65.127448</ele>
        <time>2020-11-05T21:20:19.379Z</time>
      </trkpt>
      <trkpt lat="52.008288" lon="5.866765">
        <ele>65.048160</ele>
        <time>2020-11-05T21:20:20.118Z</time>
      </trkpt>
      <trkpt lat="52.008263" lon="5.866642">
        <ele>64.922958</ele>
        <time>2020-11-05T21:20:21.244Z</time>
      </trkpt>
      <trkpt lat="52.008153" lon="5.866365">
        <ele>64.604333</ele>
        <time>2020-11-05T21:20:24.029Z</time>
      </trkpt>
      <trkpt lat="52.008109" lon="5.866274">
        <ele>64.490042</ele>
        <time>2020-11-05T21:20:25.038Z</time>
      </trkpt>
      <trkpt lat="52.008054" lon="5.866159">
        <ele>64.315879</ele>
        <time>2020-11-05T21:20:26.295Z</time>
      </trkpt>
      <trkpt lat="52.007980" lon="5.866149">
        <ele>64.171613</ele>
        <time>2020-11-05T21:20:28.165Z</time>
      </trkpt>
      <trkpt lat="52.007702" lon="5.866110">
        <ele>63.629494</ele>
        <time>2020-11-05T21:20:34.999Z</time>
      </trkpt>
      <trkpt lat="52.007631" lon="5.866120">
        <ele>63.491035</ele>
        <time>2020-11-05T21:20:36.738Z</time>
      </trkpt>
      <trkpt lat="52.007516" lon="5.866147">
        <ele>63.265288</ele>
        <time>2020-11-05T21:20:39.567Z</time>
      </trkpt>
      <trkpt lat="52.006932" lon="5.866531">
        <ele>62.041255</ele>
        <time>2020-11-05T21:20:55.787Z</time>
      </trkpt>
      <trkpt lat="52.006794" lon="5.866581">
        <ele>61.766556</ele>
        <time>2020-11-05T21:20:59.716Z</time>
      </trkpt>
      <trkpt lat="52.006467" lon="5.866605">
        <ele>61.130600</ele>
        <time>2020-11-05T21:21:09.042Z</time>
      </trkpt>
      <trkpt lat="52.006234" lon="5.866546">
        <ele>61.015538</ele>
        <time>2020-11-05T21:21:15.750Z</time>
      </trkpt>
      <trkpt lat="52.005764" lon="5.866472">
        <ele>61.035312</ele>
        <time>2020-11-05T21:21:29.756Z</time>
      </trkpt>
      <trkpt lat="52.005559" lon="5.866494">
        <ele>61.043916</ele>
        <time>2020-11-05T21:21:35.725Z</time>
      </trkpt>
      <trkpt lat="52.005175" lon="5.866731">
        <ele>61.061118</ele>
        <time>2020-11-05T21:21:47.637Z</time>
      </trkpt>
      <trkpt lat="52.004220" lon="5.867634">
        <ele>61.693432</ele>
        <time>2020-11-05T21:22:24.020Z</time>
      </trkpt>
      <trkpt lat="52.003875" lon="5.867886">
        <ele>62.099799</ele>
        <time>2020-11-05T21:22:36.934Z</time>
      </trkpt>
      <trkpt lat="52.003348" lon="5.868287">
        <ele>62.724970</ele>
        <time>2020-11-05T21:22:56.792Z</time>
      </trkpt>
      <trkpt lat="52.002821" lon="5.868800">
        <ele>63.724274</ele>
        <time>2020-11-05T21:23:18.189Z</time>
      </trkpt>
      <trkpt lat="52.002554" lon="5.869234">
        <ele>64.503016</ele>
        <time>2020-11-05T21:23:32.550Z</time>
      </trkpt>
      <trkpt lat="52.002155" lon="5.870174">
        <ele>65.952190</ele>
        <time>2020-11-05T21:24:00.084Z</time>
      </trkpt>
      <trkpt lat="52.002058" lon="5.870346">
        <ele>66.248250</ele>
        <time>2020-11-05T21:24:05.821Z</time>
      </trkpt>
      <trkpt lat="52.001928" lon="5.870482">
        <ele>66.567044</ele>
        <time>2020-11-05T21:24:11.998Z</time>
      </trkpt>
      <trkpt lat="52.001721" lon="5.870622">
        <ele>66.967377</ele>
        <time>2020-11-05T21:24:21.238Z</time>
      </trkpt>
      <trkpt lat="52.000752" lon="5.871189">
        <ele>68.659896</ele>
        <time>2020-11-05T21:25:00.238Z</time>
      </trkpt>
      <trkpt lat="52.000417" lon="5.871385">
        <ele>69.245022</ele>
        <time>2020-11-05T21:25:12.873Z</time>
      </trkpt>
      <trkpt lat="52.002172" lon="5.875646">
        <ele>69.769260</ele>
        <time>2020-11-05T21:26:46.169Z</time>
      </trkpt>
      <trkpt lat="52.002310" lon="5.875980">
        <ele>69.769260</ele>
        <time>2020-11-05T21:26:54.310Z</time>
      </trkpt>
    </trkseg>
  </trk>
</gpx>